<?xml version="1.0" encoding="UTF-8" standalone="no" ?>
<gpx xmlns="http://www.topografix.com/GPX/1/1" xmlns:xsi="http://www.w3.org/2001/XMLSchema-instance" xsi:schemaLocation="http://www.topografix.com/GPX/1/1 http://www.topografix.com/GPX/1/1/gpx.xsd" version="1.1" creator="VisuGPX - https://www.visugpx.com">
  <metadata>
    <name>Tour de Tête Grosse</name>
  </metadata>
  <trk>
    <name><![CDATA[tour de tête grosse]]></name>
    <extensions>
      <line xmlns="http://www.topografix.com/GPX/gpx_style/0/2">
        <color>0000FF</color>
        <width>4</width>
      </line>
    </extensions>
    <trkseg>
      <trkpt lat="44.34994" lon="6.30896">
        <ele>1546.42</ele>
        <time>2016-05-14T09:18:31Z</time>
      </trkpt>
      <trkpt lat="44.34997" lon="6.309">
        <ele>1547.38</ele>
        <time>2016-05-14T09:18:51Z</time>
      </trkpt>
      <trkpt lat="44.34997" lon="6.30911">
        <ele>1547.38</ele>
        <time>2016-05-14T09:19:04Z</time>
      </trkpt>
      <trkpt lat="44.34993" lon="6.30915">
        <ele>1547.38</ele>
        <time>2016-05-14T09:19:08Z</time>
      </trkpt>
      <trkpt lat="44.34974" lon="6.30932">
        <ele>1548.34</ele>
        <time>2016-05-14T09:19:22Z</time>
      </trkpt>
      <trkpt lat="44.34957" lon="6.3094">
        <ele>1549.3</ele>
        <time>2016-05-14T09:19:37Z</time>
      </trkpt>
      <trkpt lat="44.34947" lon="6.30942">
        <ele>1550.74</ele>
        <time>2016-05-14T09:19:48Z</time>
      </trkpt>
      <trkpt lat="44.34938" lon="6.30942">
        <ele>1551.71</ele>
        <time>2016-05-14T09:19:59Z</time>
      </trkpt>
      <trkpt lat="44.3493" lon="6.30945">
        <ele>1552.67</ele>
        <time>2016-05-14T09:20:10Z</time>
      </trkpt>
      <trkpt lat="44.34917" lon="6.30952">
        <ele>1553.15</ele>
        <time>2016-05-14T09:20:25Z</time>
      </trkpt>
      <trkpt lat="44.34906" lon="6.30962">
        <ele>1554.11</ele>
        <time>2016-05-14T09:20:33Z</time>
      </trkpt>
      <trkpt lat="44.34889" lon="6.30957">
        <ele>1556.51</ele>
        <time>2016-05-14T09:20:49Z</time>
      </trkpt>
      <trkpt lat="44.34879" lon="6.30941">
        <ele>1557.95</ele>
        <time>2016-05-14T09:21:02Z</time>
      </trkpt>
      <trkpt lat="44.34873" lon="6.3093">
        <ele>1558.92</ele>
        <time>2016-05-14T09:21:12Z</time>
      </trkpt>
      <trkpt lat="44.34871" lon="6.30927">
        <ele>1558.92</ele>
        <time>2016-05-14T09:21:15Z</time>
      </trkpt>
      <trkpt lat="44.3487" lon="6.30926">
        <ele>1558.92</ele>
        <time>2016-05-14T09:21:17Z</time>
      </trkpt>
      <trkpt lat="44.34858" lon="6.30938">
        <ele>1561.32</ele>
        <time>2016-05-14T09:21:32Z</time>
      </trkpt>
      <trkpt lat="44.34851" lon="6.30955">
        <ele>1562.76</ele>
        <time>2016-05-14T09:21:47Z</time>
      </trkpt>
      <trkpt lat="44.34832" lon="6.3095">
        <ele>1564.68</ele>
        <time>2016-05-14T09:22:02Z</time>
      </trkpt>
      <trkpt lat="44.34829" lon="6.30932">
        <ele>1564.68</ele>
        <time>2016-05-14T09:22:15Z</time>
      </trkpt>
      <trkpt lat="44.34822" lon="6.30916">
        <ele>1566.61</ele>
        <time>2016-05-14T09:22:30Z</time>
      </trkpt>
      <trkpt lat="44.34814" lon="6.30901">
        <ele>1568.05</ele>
        <time>2016-05-14T09:22:46Z</time>
      </trkpt>
      <trkpt lat="44.34803" lon="6.30884">
        <ele>1569.49</ele>
        <time>2016-05-14T09:23:03Z</time>
      </trkpt>
      <trkpt lat="44.34786" lon="6.30865">
        <ele>1571.41</ele>
        <time>2016-05-14T09:23:20Z</time>
      </trkpt>
      <trkpt lat="44.34774" lon="6.30851">
        <ele>1572.85</ele>
        <time>2016-05-14T09:23:36Z</time>
      </trkpt>
      <trkpt lat="44.34772" lon="6.30847">
        <ele>1573.33</ele>
        <time>2016-05-14T09:23:40Z</time>
      </trkpt>
      <trkpt lat="44.34763" lon="6.3083">
        <ele>1575.26</ele>
        <time>2016-05-14T09:23:55Z</time>
      </trkpt>
      <trkpt lat="44.34755" lon="6.30811">
        <ele>1577.18</ele>
        <time>2016-05-14T09:24:12Z</time>
      </trkpt>
      <trkpt lat="44.34744" lon="6.30794">
        <ele>1578.62</ele>
        <time>2016-05-14T09:24:30Z</time>
      </trkpt>
      <trkpt lat="44.34735" lon="6.30779">
        <ele>1579.58</ele>
        <time>2016-05-14T09:24:46Z</time>
      </trkpt>
      <trkpt lat="44.34719" lon="6.30769">
        <ele>1581.51</ele>
        <time>2016-05-14T09:25:02Z</time>
      </trkpt>
      <trkpt lat="44.34707" lon="6.30758">
        <ele>1582.95</ele>
        <time>2016-05-14T09:25:17Z</time>
      </trkpt>
      <trkpt lat="44.34696" lon="6.30743">
        <ele>1584.87</ele>
        <time>2016-05-14T09:25:34Z</time>
      </trkpt>
      <trkpt lat="44.34689" lon="6.30726">
        <ele>1585.83</ele>
        <time>2016-05-14T09:25:50Z</time>
      </trkpt>
      <trkpt lat="44.34684" lon="6.30713">
        <ele>1587.27</ele>
        <time>2016-05-14T09:26:02Z</time>
      </trkpt>
      <trkpt lat="44.34682" lon="6.30704">
        <ele>1587.75</ele>
        <time>2016-05-14T09:26:09Z</time>
      </trkpt>
      <trkpt lat="44.34681" lon="6.30692">
        <ele>1588.72</ele>
        <time>2016-05-14T09:26:20Z</time>
      </trkpt>
      <trkpt lat="44.34674" lon="6.30685">
        <ele>1589.2</ele>
        <time>2016-05-14T09:26:35Z</time>
      </trkpt>
      <trkpt lat="44.34673" lon="6.30683">
        <ele>1589.2</ele>
        <time>2016-05-14T09:26:37Z</time>
      </trkpt>
      <trkpt lat="44.34669" lon="6.30669">
        <ele>1591.12</ele>
        <time>2016-05-14T09:26:50Z</time>
      </trkpt>
      <trkpt lat="44.34669" lon="6.3065">
        <ele>1592.56</ele>
        <time>2016-05-14T09:27:05Z</time>
      </trkpt>
      <trkpt lat="44.34669" lon="6.3064">
        <ele>1593.52</ele>
        <time>2016-05-14T09:27:20Z</time>
      </trkpt>
      <trkpt lat="44.34678" lon="6.30624">
        <ele>1594.96</ele>
        <time>2016-05-14T09:27:36Z</time>
      </trkpt>
      <trkpt lat="44.34683" lon="6.30606">
        <ele>1595.93</ele>
        <time>2016-05-14T09:27:51Z</time>
      </trkpt>
      <trkpt lat="44.34684" lon="6.306">
        <ele>1596.89</ele>
        <time>2016-05-14T09:27:56Z</time>
      </trkpt>
      <trkpt lat="44.34682" lon="6.30582">
        <ele>1598.33</ele>
        <time>2016-05-14T09:28:11Z</time>
      </trkpt>
      <trkpt lat="44.34681" lon="6.30565">
        <ele>1599.77</ele>
        <time>2016-05-14T09:28:26Z</time>
      </trkpt>
      <trkpt lat="44.34678" lon="6.30544">
        <ele>1601.21</ele>
        <time>2016-05-14T09:28:42Z</time>
      </trkpt>
      <trkpt lat="44.34676" lon="6.30539">
        <ele>1601.21</ele>
        <time>2016-05-14T09:28:46Z</time>
      </trkpt>
      <trkpt lat="44.34672" lon="6.30517">
        <ele>1603.14</ele>
        <time>2016-05-14T09:29:03Z</time>
      </trkpt>
      <trkpt lat="44.34668" lon="6.30496">
        <ele>1605.06</ele>
        <time>2016-05-14T09:29:18Z</time>
      </trkpt>
      <trkpt lat="44.3466" lon="6.30481">
        <ele>1606.02</ele>
        <time>2016-05-14T09:29:33Z</time>
      </trkpt>
      <trkpt lat="44.34656" lon="6.30474">
        <ele>1606.5</ele>
        <time>2016-05-14T09:29:39Z</time>
      </trkpt>
      <trkpt lat="44.34648" lon="6.30463">
        <ele>1606.5</ele>
        <time>2016-05-14T09:29:52Z</time>
      </trkpt>
      <trkpt lat="44.34646" lon="6.30459">
        <ele>1606.5</ele>
        <time>2016-05-14T09:29:55Z</time>
      </trkpt>
      <trkpt lat="44.34638" lon="6.30435">
        <ele>1604.58</ele>
        <time>2016-05-14T09:30:12Z</time>
      </trkpt>
      <trkpt lat="44.3463" lon="6.30408">
        <ele>1604.1</ele>
        <time>2016-05-14T09:30:30Z</time>
      </trkpt>
      <trkpt lat="44.34625" lon="6.30381">
        <ele>1603.62</ele>
        <time>2016-05-14T09:30:47Z</time>
      </trkpt>
      <trkpt lat="44.3462" lon="6.30365">
        <ele>1603.14</ele>
        <time>2016-05-14T09:30:58Z</time>
      </trkpt>
      <trkpt lat="44.34611" lon="6.30341">
        <ele>1602.66</ele>
        <time>2016-05-14T09:31:15Z</time>
      </trkpt>
      <trkpt lat="44.346" lon="6.30318">
        <ele>1601.21</ele>
        <time>2016-05-14T09:31:32Z</time>
      </trkpt>
      <trkpt lat="44.34599" lon="6.30317">
        <ele>1601.21</ele>
        <time>2016-05-14T09:31:33Z</time>
      </trkpt>
      <trkpt lat="44.34589" lon="6.30295">
        <ele>1599.77</ele>
        <time>2016-05-14T09:31:50Z</time>
      </trkpt>
      <trkpt lat="44.34574" lon="6.30272">
        <ele>1598.81</ele>
        <time>2016-05-14T09:32:09Z</time>
      </trkpt>
      <trkpt lat="44.34559" lon="6.30252">
        <ele>1596.89</ele>
        <time>2016-05-14T09:32:27Z</time>
      </trkpt>
      <trkpt lat="44.34551" lon="6.30239">
        <ele>1595.93</ele>
        <time>2016-05-14T09:32:38Z</time>
      </trkpt>
      <trkpt lat="44.34539" lon="6.30222">
        <ele>1595.93</ele>
        <time>2016-05-14T09:32:54Z</time>
      </trkpt>
      <trkpt lat="44.34532" lon="6.3021">
        <ele>1595.93</ele>
        <time>2016-05-14T09:33:04Z</time>
      </trkpt>
      <trkpt lat="44.34525" lon="6.30207">
        <ele>1596.89</ele>
        <time>2016-05-14T09:33:11Z</time>
      </trkpt>
      <trkpt lat="44.34517" lon="6.30211">
        <ele>1597.37</ele>
        <time>2016-05-14T09:33:19Z</time>
      </trkpt>
      <trkpt lat="44.34513" lon="6.30225">
        <ele>1598.81</ele>
        <time>2016-05-14T09:33:32Z</time>
      </trkpt>
      <trkpt lat="44.34512" lon="6.30237">
        <ele>1599.29</ele>
        <time>2016-05-14T09:33:40Z</time>
      </trkpt>
      <trkpt lat="44.34507" lon="6.30261">
        <ele>1599.77</ele>
        <time>2016-05-14T09:33:54Z</time>
      </trkpt>
      <trkpt lat="44.34508" lon="6.30267">
        <ele>1599.77</ele>
        <time>2016-05-14T09:33:58Z</time>
      </trkpt>
      <trkpt lat="44.34505" lon="6.30294">
        <ele>1600.73</ele>
        <time>2016-05-14T09:34:17Z</time>
      </trkpt>
      <trkpt lat="44.34506" lon="6.30318">
        <ele>1601.69</ele>
        <time>2016-05-14T09:34:33Z</time>
      </trkpt>
      <trkpt lat="44.34506" lon="6.30323">
        <ele>1601.69</ele>
        <time>2016-05-14T09:34:36Z</time>
      </trkpt>
      <trkpt lat="44.34502" lon="6.30342">
        <ele>1603.14</ele>
        <time>2016-05-14T09:34:49Z</time>
      </trkpt>
      <trkpt lat="44.34503" lon="6.30368">
        <ele>1603.62</ele>
        <time>2016-05-14T09:35:04Z</time>
      </trkpt>
      <trkpt lat="44.34503" lon="6.30375">
        <ele>1603.62</ele>
        <time>2016-05-14T09:35:08Z</time>
      </trkpt>
      <trkpt lat="44.34501" lon="6.30384">
        <ele>1603.62</ele>
        <time>2016-05-14T09:35:14Z</time>
      </trkpt>
      <trkpt lat="44.34498" lon="6.30393">
        <ele>1604.1</ele>
        <time>2016-05-14T09:35:20Z</time>
      </trkpt>
      <trkpt lat="44.34494" lon="6.30425">
        <ele>1606.02</ele>
        <time>2016-05-14T09:35:40Z</time>
      </trkpt>
      <trkpt lat="44.34487" lon="6.30442">
        <ele>1606.98</ele>
        <time>2016-05-14T09:35:54Z</time>
      </trkpt>
      <trkpt lat="44.34478" lon="6.30463">
        <ele>1607.94</ele>
        <time>2016-05-14T09:36:09Z</time>
      </trkpt>
      <trkpt lat="44.34471" lon="6.30482">
        <ele>1608.9</ele>
        <time>2016-05-14T09:36:24Z</time>
      </trkpt>
      <trkpt lat="44.34461" lon="6.30499">
        <ele>1609.86</ele>
        <time>2016-05-14T09:36:38Z</time>
      </trkpt>
      <trkpt lat="44.3445" lon="6.30516">
        <ele>1611.31</ele>
        <time>2016-05-14T09:36:53Z</time>
      </trkpt>
      <trkpt lat="44.34437" lon="6.30531">
        <ele>1611.79</ele>
        <time>2016-05-14T09:37:08Z</time>
      </trkpt>
      <trkpt lat="44.34427" lon="6.30546">
        <ele>1612.27</ele>
        <time>2016-05-14T09:37:20Z</time>
      </trkpt>
      <trkpt lat="44.34419" lon="6.30557">
        <ele>1612.75</ele>
        <time>2016-05-14T09:37:31Z</time>
      </trkpt>
      <trkpt lat="44.34417" lon="6.30559">
        <ele>1612.75</ele>
        <time>2016-05-14T09:37:33Z</time>
      </trkpt>
      <trkpt lat="44.34405" lon="6.30576">
        <ele>1613.71</ele>
        <time>2016-05-14T09:37:48Z</time>
      </trkpt>
      <trkpt lat="44.34402" lon="6.3058">
        <ele>1613.71</ele>
        <time>2016-05-14T09:37:52Z</time>
      </trkpt>
      <trkpt lat="44.34388" lon="6.30581">
        <ele>1614.19</ele>
        <time>2016-05-14T09:38:08Z</time>
      </trkpt>
      <trkpt lat="44.3438" lon="6.30576">
        <ele>1612.75</ele>
        <time>2016-05-14T09:38:24Z</time>
      </trkpt>
      <trkpt lat="44.34367" lon="6.30569">
        <ele>1610.83</ele>
        <time>2016-05-14T09:38:39Z</time>
      </trkpt>
      <trkpt lat="44.34352" lon="6.30563">
        <ele>1609.86</ele>
        <time>2016-05-14T09:38:53Z</time>
      </trkpt>
      <trkpt lat="44.34343" lon="6.30554">
        <ele>1609.86</ele>
        <time>2016-05-14T09:39:06Z</time>
      </trkpt>
      <trkpt lat="44.34331" lon="6.3054">
        <ele>1610.35</ele>
        <time>2016-05-14T09:39:19Z</time>
      </trkpt>
      <trkpt lat="44.3431" lon="6.30523">
        <ele>1610.35</ele>
        <time>2016-05-14T09:39:33Z</time>
      </trkpt>
      <trkpt lat="44.34303" lon="6.30518">
        <ele>1610.35</ele>
        <time>2016-05-14T09:39:39Z</time>
      </trkpt>
      <trkpt lat="44.34294" lon="6.30513">
        <ele>1610.35</ele>
        <time>2016-05-14T09:39:55Z</time>
      </trkpt>
      <trkpt lat="44.34294" lon="6.30516">
        <ele>1610.35</ele>
        <time>2016-05-14T09:40:29Z</time>
      </trkpt>
      <trkpt lat="44.34295" lon="6.30513">
        <ele>1611.31</ele>
        <time>2016-05-14T09:40:40Z</time>
      </trkpt>
      <trkpt lat="44.34292" lon="6.30512">
        <ele>1612.27</ele>
        <time>2016-05-14T09:41:04Z</time>
      </trkpt>
      <trkpt lat="44.34274" lon="6.3052">
        <ele>1612.75</ele>
        <time>2016-05-14T09:41:20Z</time>
      </trkpt>
      <trkpt lat="44.34257" lon="6.30513">
        <ele>1613.23</ele>
        <time>2016-05-14T09:41:35Z</time>
      </trkpt>
      <trkpt lat="44.34244" lon="6.30519">
        <ele>1614.19</ele>
        <time>2016-05-14T09:41:46Z</time>
      </trkpt>
      <trkpt lat="44.34223" lon="6.30531">
        <ele>1615.15</ele>
        <time>2016-05-14T09:42:04Z</time>
      </trkpt>
      <trkpt lat="44.34217" lon="6.3053">
        <ele>1615.15</ele>
        <time>2016-05-14T09:42:10Z</time>
      </trkpt>
      <trkpt lat="44.34214" lon="6.30532">
        <ele>1615.15</ele>
        <time>2016-05-14T09:42:13Z</time>
      </trkpt>
      <trkpt lat="44.34195" lon="6.30535">
        <ele>1616.59</ele>
        <time>2016-05-14T09:42:31Z</time>
      </trkpt>
      <trkpt lat="44.34179" lon="6.30532">
        <ele>1618.04</ele>
        <time>2016-05-14T09:42:46Z</time>
      </trkpt>
      <trkpt lat="44.34166" lon="6.30523">
        <ele>1619.96</ele>
        <time>2016-05-14T09:43:01Z</time>
      </trkpt>
      <trkpt lat="44.34161" lon="6.30522">
        <ele>1620.44</ele>
        <time>2016-05-14T09:43:07Z</time>
      </trkpt>
      <trkpt lat="44.34147" lon="6.30526">
        <ele>1621.88</ele>
        <time>2016-05-14T09:43:20Z</time>
      </trkpt>
      <trkpt lat="44.34131" lon="6.30527">
        <ele>1622.84</ele>
        <time>2016-05-14T09:43:34Z</time>
      </trkpt>
      <trkpt lat="44.34116" lon="6.30519">
        <ele>1624.77</ele>
        <time>2016-05-14T09:43:51Z</time>
      </trkpt>
      <trkpt lat="44.34103" lon="6.30519">
        <ele>1626.69</ele>
        <time>2016-05-14T09:44:05Z</time>
      </trkpt>
      <trkpt lat="44.34096" lon="6.30527">
        <ele>1627.65</ele>
        <time>2016-05-14T09:44:14Z</time>
      </trkpt>
      <trkpt lat="44.3409" lon="6.3053">
        <ele>1628.61</ele>
        <time>2016-05-14T09:44:21Z</time>
      </trkpt>
      <trkpt lat="44.34074" lon="6.30523">
        <ele>1629.57</ele>
        <time>2016-05-14T09:44:37Z</time>
      </trkpt>
      <trkpt lat="44.34072" lon="6.30522">
        <ele>1629.57</ele>
        <time>2016-05-14T09:44:40Z</time>
      </trkpt>
      <trkpt lat="44.34061" lon="6.30516">
        <ele>1630.53</ele>
        <time>2016-05-14T09:44:53Z</time>
      </trkpt>
      <trkpt lat="44.34044" lon="6.30508">
        <ele>1632.46</ele>
        <time>2016-05-14T09:45:10Z</time>
      </trkpt>
      <trkpt lat="44.34034" lon="6.30507">
        <ele>1634.38</ele>
        <time>2016-05-14T09:45:20Z</time>
      </trkpt>
      <trkpt lat="44.34026" lon="6.30509">
        <ele>1635.34</ele>
        <time>2016-05-14T09:45:29Z</time>
      </trkpt>
      <trkpt lat="44.34023" lon="6.3051">
        <ele>1636.3</ele>
        <time>2016-05-14T09:45:33Z</time>
      </trkpt>
      <trkpt lat="44.34008" lon="6.30505">
        <ele>1637.74</ele>
        <time>2016-05-14T09:45:49Z</time>
      </trkpt>
      <trkpt lat="44.34004" lon="6.30503">
        <ele>1638.22</ele>
        <time>2016-05-14T09:45:54Z</time>
      </trkpt>
      <trkpt lat="44.34" lon="6.30504">
        <ele>1638.22</ele>
        <time>2016-05-14T09:45:58Z</time>
      </trkpt>
      <trkpt lat="44.33983" lon="6.30504">
        <ele>1639.19</ele>
        <time>2016-05-14T09:46:13Z</time>
      </trkpt>
      <trkpt lat="44.33963" lon="6.30498">
        <ele>1640.15</ele>
        <time>2016-05-14T09:46:31Z</time>
      </trkpt>
      <trkpt lat="44.3395" lon="6.30493">
        <ele>1640.15</ele>
        <time>2016-05-14T09:46:44Z</time>
      </trkpt>
      <trkpt lat="44.33947" lon="6.30493">
        <ele>1640.63</ele>
        <time>2016-05-14T09:46:48Z</time>
      </trkpt>
      <trkpt lat="44.33935" lon="6.30489">
        <ele>1641.59</ele>
        <time>2016-05-14T09:47:01Z</time>
      </trkpt>
      <trkpt lat="44.33914" lon="6.3048">
        <ele>1643.03</ele>
        <time>2016-05-14T09:47:20Z</time>
      </trkpt>
      <trkpt lat="44.33906" lon="6.30469">
        <ele>1643.51</ele>
        <time>2016-05-14T09:47:31Z</time>
      </trkpt>
      <trkpt lat="44.33889" lon="6.30471">
        <ele>1644.47</ele>
        <time>2016-05-14T09:47:49Z</time>
      </trkpt>
      <trkpt lat="44.33874" lon="6.30473">
        <ele>1645.43</ele>
        <time>2016-05-14T09:48:05Z</time>
      </trkpt>
      <trkpt lat="44.33877" lon="6.30478">
        <ele>1645.43</ele>
        <time>2016-05-14T09:48:31Z</time>
      </trkpt>
      <trkpt lat="44.33875" lon="6.30477">
        <ele>1645.91</ele>
        <time>2016-05-14T09:48:58Z</time>
      </trkpt>
      <trkpt lat="44.33875" lon="6.30479">
        <ele>1645.91</ele>
        <time>2016-05-14T09:49:21Z</time>
      </trkpt>
      <trkpt lat="44.33861" lon="6.30475">
        <ele>1645.91</ele>
        <time>2016-05-14T09:49:34Z</time>
      </trkpt>
      <trkpt lat="44.33857" lon="6.30473">
        <ele>1646.4</ele>
        <time>2016-05-14T09:49:38Z</time>
      </trkpt>
      <trkpt lat="44.33855" lon="6.3047">
        <ele>1646.4</ele>
        <time>2016-05-14T09:49:41Z</time>
      </trkpt>
      <trkpt lat="44.33848" lon="6.30471">
        <ele>1647.36</ele>
        <time>2016-05-14T09:49:47Z</time>
      </trkpt>
      <trkpt lat="44.33837" lon="6.30473">
        <ele>1647.84</ele>
        <time>2016-05-14T09:50:01Z</time>
      </trkpt>
      <trkpt lat="44.33834" lon="6.30469">
        <ele>1648.8</ele>
        <time>2016-05-14T09:50:28Z</time>
      </trkpt>
      <trkpt lat="44.33821" lon="6.30466">
        <ele>1649.28</ele>
        <time>2016-05-14T09:50:43Z</time>
      </trkpt>
      <trkpt lat="44.33798" lon="6.30459">
        <ele>1650.72</ele>
        <time>2016-05-14T09:50:59Z</time>
      </trkpt>
      <trkpt lat="44.33784" lon="6.30448">
        <ele>1651.2</ele>
        <time>2016-05-14T09:51:15Z</time>
      </trkpt>
      <trkpt lat="44.33778" lon="6.30445">
        <ele>1651.68</ele>
        <time>2016-05-14T09:51:21Z</time>
      </trkpt>
      <trkpt lat="44.33761" lon="6.30441">
        <ele>1653.12</ele>
        <time>2016-05-14T09:51:37Z</time>
      </trkpt>
      <trkpt lat="44.33749" lon="6.30438">
        <ele>1654.09</ele>
        <time>2016-05-14T09:51:50Z</time>
      </trkpt>
      <trkpt lat="44.33732" lon="6.30444">
        <ele>1655.53</ele>
        <time>2016-05-14T09:52:07Z</time>
      </trkpt>
      <trkpt lat="44.3372" lon="6.30438">
        <ele>1656.49</ele>
        <time>2016-05-14T09:52:20Z</time>
      </trkpt>
      <trkpt lat="44.33705" lon="6.30436">
        <ele>1656.97</ele>
        <time>2016-05-14T09:52:33Z</time>
      </trkpt>
      <trkpt lat="44.33699" lon="6.30434">
        <ele>1657.45</ele>
        <time>2016-05-14T09:52:38Z</time>
      </trkpt>
      <trkpt lat="44.33685" lon="6.30424">
        <ele>1657.93</ele>
        <time>2016-05-14T09:52:53Z</time>
      </trkpt>
      <trkpt lat="44.33671" lon="6.30427">
        <ele>1659.37</ele>
        <time>2016-05-14T09:53:06Z</time>
      </trkpt>
      <trkpt lat="44.33656" lon="6.3042">
        <ele>1659.85</ele>
        <time>2016-05-14T09:53:21Z</time>
      </trkpt>
      <trkpt lat="44.33651" lon="6.30422">
        <ele>1660.33</ele>
        <time>2016-05-14T09:53:25Z</time>
      </trkpt>
      <trkpt lat="44.33634" lon="6.30432">
        <ele>1661.3</ele>
        <time>2016-05-14T09:53:42Z</time>
      </trkpt>
      <trkpt lat="44.33622" lon="6.30435">
        <ele>1662.26</ele>
        <time>2016-05-14T09:53:53Z</time>
      </trkpt>
      <trkpt lat="44.33607" lon="6.30445">
        <ele>1663.22</ele>
        <time>2016-05-14T09:54:08Z</time>
      </trkpt>
      <trkpt lat="44.33606" lon="6.30446">
        <ele>1663.22</ele>
        <time>2016-05-14T09:54:09Z</time>
      </trkpt>
      <trkpt lat="44.33597" lon="6.30449">
        <ele>1663.22</ele>
        <time>2016-05-14T09:54:17Z</time>
      </trkpt>
      <trkpt lat="44.33581" lon="6.30456">
        <ele>1664.18</ele>
        <time>2016-05-14T09:54:32Z</time>
      </trkpt>
      <trkpt lat="44.33577" lon="6.30458">
        <ele>1664.66</ele>
        <time>2016-05-14T09:54:35Z</time>
      </trkpt>
      <trkpt lat="44.33571" lon="6.3046">
        <ele>1664.66</ele>
        <time>2016-05-14T09:54:41Z</time>
      </trkpt>
      <trkpt lat="44.33565" lon="6.30458">
        <ele>1664.66</ele>
        <time>2016-05-14T09:54:45Z</time>
      </trkpt>
      <trkpt lat="44.33561" lon="6.30459">
        <ele>1664.66</ele>
        <time>2016-05-14T09:54:50Z</time>
      </trkpt>
      <trkpt lat="44.33543" lon="6.30466">
        <ele>1665.14</ele>
        <time>2016-05-14T09:55:06Z</time>
      </trkpt>
      <trkpt lat="44.3353" lon="6.30477">
        <ele>1666.1</ele>
        <time>2016-05-14T09:55:20Z</time>
      </trkpt>
      <trkpt lat="44.33524" lon="6.30479">
        <ele>1666.58</ele>
        <time>2016-05-14T09:55:26Z</time>
      </trkpt>
      <trkpt lat="44.33509" lon="6.30476">
        <ele>1668.02</ele>
        <time>2016-05-14T09:55:41Z</time>
      </trkpt>
      <trkpt lat="44.33492" lon="6.30472">
        <ele>1668.51</ele>
        <time>2016-05-14T09:55:56Z</time>
      </trkpt>
      <trkpt lat="44.33474" lon="6.30474">
        <ele>1669.95</ele>
        <time>2016-05-14T09:56:13Z</time>
      </trkpt>
      <trkpt lat="44.33458" lon="6.30469">
        <ele>1670.43</ele>
        <time>2016-05-14T09:56:28Z</time>
      </trkpt>
      <trkpt lat="44.33446" lon="6.30465">
        <ele>1670.91</ele>
        <time>2016-05-14T09:56:39Z</time>
      </trkpt>
      <trkpt lat="44.3344" lon="6.30466">
        <ele>1671.39</ele>
        <time>2016-05-14T09:56:45Z</time>
      </trkpt>
      <trkpt lat="44.33418" lon="6.30473">
        <ele>1671.87</ele>
        <time>2016-05-14T09:57:03Z</time>
      </trkpt>
      <trkpt lat="44.33416" lon="6.30472">
        <ele>1671.87</ele>
        <time>2016-05-14T09:57:05Z</time>
      </trkpt>
      <trkpt lat="44.33397" lon="6.30483">
        <ele>1672.35</ele>
        <time>2016-05-14T09:57:23Z</time>
      </trkpt>
      <trkpt lat="44.33383" lon="6.30488">
        <ele>1672.83</ele>
        <time>2016-05-14T09:57:34Z</time>
      </trkpt>
      <trkpt lat="44.33381" lon="6.3049">
        <ele>1672.83</ele>
        <time>2016-05-14T09:57:36Z</time>
      </trkpt>
      <trkpt lat="44.33366" lon="6.30499">
        <ele>1673.31</ele>
        <time>2016-05-14T09:57:50Z</time>
      </trkpt>
      <trkpt lat="44.33348" lon="6.3051">
        <ele>1673.31</ele>
        <time>2016-05-14T09:58:07Z</time>
      </trkpt>
      <trkpt lat="44.3333" lon="6.30521">
        <ele>1674.75</ele>
        <time>2016-05-14T09:58:23Z</time>
      </trkpt>
      <trkpt lat="44.33323" lon="6.3052">
        <ele>1675.23</ele>
        <time>2016-05-14T09:58:30Z</time>
      </trkpt>
      <trkpt lat="44.33305" lon="6.30499">
        <ele>1676.68</ele>
        <time>2016-05-14T09:58:49Z</time>
      </trkpt>
      <trkpt lat="44.33302" lon="6.3049">
        <ele>1676.68</ele>
        <time>2016-05-14T09:58:55Z</time>
      </trkpt>
      <trkpt lat="44.333" lon="6.30487">
        <ele>1677.16</ele>
        <time>2016-05-14T09:58:58Z</time>
      </trkpt>
      <trkpt lat="44.33286" lon="6.30479">
        <ele>1677.64</ele>
        <time>2016-05-14T09:59:16Z</time>
      </trkpt>
      <trkpt lat="44.33279" lon="6.3047">
        <ele>1678.12</ele>
        <time>2016-05-14T09:59:27Z</time>
      </trkpt>
      <trkpt lat="44.33275" lon="6.3047">
        <ele>1678.12</ele>
        <time>2016-05-14T09:59:31Z</time>
      </trkpt>
      <trkpt lat="44.33253" lon="6.30462">
        <ele>1679.56</ele>
        <time>2016-05-14T09:59:49Z</time>
      </trkpt>
      <trkpt lat="44.33232" lon="6.30442">
        <ele>1680.04</ele>
        <time>2016-05-14T10:00:09Z</time>
      </trkpt>
      <trkpt lat="44.33211" lon="6.30434">
        <ele>1680.04</ele>
        <time>2016-05-14T10:00:27Z</time>
      </trkpt>
      <trkpt lat="44.33193" lon="6.30438">
        <ele>1681</ele>
        <time>2016-05-14T10:00:44Z</time>
      </trkpt>
      <trkpt lat="44.33188" lon="6.30438">
        <ele>1681.48</ele>
        <time>2016-05-14T10:00:49Z</time>
      </trkpt>
      <trkpt lat="44.33176" lon="6.30439">
        <ele>1683.41</ele>
        <time>2016-05-14T10:01:03Z</time>
      </trkpt>
      <trkpt lat="44.3317" lon="6.30441">
        <ele>1681.96</ele>
        <time>2016-05-14T10:01:26Z</time>
      </trkpt>
      <trkpt lat="44.33156" lon="6.30448">
        <ele>1682.93</ele>
        <time>2016-05-14T10:01:44Z</time>
      </trkpt>
      <trkpt lat="44.33155" lon="6.30448">
        <ele>1683.89</ele>
        <time>2016-05-14T10:02:06Z</time>
      </trkpt>
      <trkpt lat="44.33158" lon="6.30446">
        <ele>1684.85</ele>
        <time>2016-05-14T10:02:22Z</time>
      </trkpt>
      <trkpt lat="44.33157" lon="6.30446">
        <ele>1681.48</ele>
        <time>2016-05-14T10:02:34Z</time>
      </trkpt>
      <trkpt lat="44.33155" lon="6.30447">
        <ele>1681.48</ele>
        <time>2016-05-14T10:02:36Z</time>
      </trkpt>
      <trkpt lat="44.33145" lon="6.30446">
        <ele>1682.93</ele>
        <time>2016-05-14T10:02:45Z</time>
      </trkpt>
      <trkpt lat="44.33123" lon="6.30438">
        <ele>1683.89</ele>
        <time>2016-05-14T10:03:05Z</time>
      </trkpt>
      <trkpt lat="44.33105" lon="6.30429">
        <ele>1685.33</ele>
        <time>2016-05-14T10:03:23Z</time>
      </trkpt>
      <trkpt lat="44.33086" lon="6.30422">
        <ele>1686.29</ele>
        <time>2016-05-14T10:03:42Z</time>
      </trkpt>
      <trkpt lat="44.33079" lon="6.30419">
        <ele>1686.29</ele>
        <time>2016-05-14T10:03:57Z</time>
      </trkpt>
      <trkpt lat="44.33077" lon="6.30414">
        <ele>1686.29</ele>
        <time>2016-05-14T10:04:14Z</time>
      </trkpt>
      <trkpt lat="44.33077" lon="6.30407">
        <ele>1686.29</ele>
        <time>2016-05-14T10:04:19Z</time>
      </trkpt>
      <trkpt lat="44.33076" lon="6.30401">
        <ele>1684.85</ele>
        <time>2016-05-14T10:04:23Z</time>
      </trkpt>
      <trkpt lat="44.33071" lon="6.30376">
        <ele>1683.41</ele>
        <time>2016-05-14T10:04:39Z</time>
      </trkpt>
      <trkpt lat="44.33063" lon="6.30358">
        <ele>1680.52</ele>
        <time>2016-05-14T10:04:53Z</time>
      </trkpt>
      <trkpt lat="44.33044" lon="6.30333">
        <ele>1678.12</ele>
        <time>2016-05-14T10:05:15Z</time>
      </trkpt>
      <trkpt lat="44.33032" lon="6.30303">
        <ele>1676.68</ele>
        <time>2016-05-14T10:05:34Z</time>
      </trkpt>
      <trkpt lat="44.33018" lon="6.30293">
        <ele>1676.68</ele>
        <time>2016-05-14T10:05:50Z</time>
      </trkpt>
      <trkpt lat="44.32996" lon="6.30289">
        <ele>1679.56</ele>
        <time>2016-05-14T10:06:09Z</time>
      </trkpt>
      <trkpt lat="44.32971" lon="6.30288">
        <ele>1679.56</ele>
        <time>2016-05-14T10:06:29Z</time>
      </trkpt>
      <trkpt lat="44.3295" lon="6.30288">
        <ele>1679.56</ele>
        <time>2016-05-14T10:06:47Z</time>
      </trkpt>
      <trkpt lat="44.3293" lon="6.30289">
        <ele>1679.56</ele>
        <time>2016-05-14T10:07:05Z</time>
      </trkpt>
      <trkpt lat="44.32917" lon="6.30285">
        <ele>1680.04</ele>
        <time>2016-05-14T10:07:19Z</time>
      </trkpt>
      <trkpt lat="44.32893" lon="6.30273">
        <ele>1680.52</ele>
        <time>2016-05-14T10:07:39Z</time>
      </trkpt>
      <trkpt lat="44.32875" lon="6.3025">
        <ele>1681</ele>
        <time>2016-05-14T10:08:00Z</time>
      </trkpt>
      <trkpt lat="44.32862" lon="6.3024">
        <ele>1681.48</ele>
        <time>2016-05-14T10:08:13Z</time>
      </trkpt>
      <trkpt lat="44.32852" lon="6.30229">
        <ele>1680.52</ele>
        <time>2016-05-14T10:08:25Z</time>
      </trkpt>
      <trkpt lat="44.32837" lon="6.30212">
        <ele>1678.6</ele>
        <time>2016-05-14T10:08:43Z</time>
      </trkpt>
      <trkpt lat="44.32825" lon="6.30191">
        <ele>1677.16</ele>
        <time>2016-05-14T10:09:01Z</time>
      </trkpt>
      <trkpt lat="44.32815" lon="6.30169">
        <ele>1676.2</ele>
        <time>2016-05-14T10:09:18Z</time>
      </trkpt>
      <trkpt lat="44.32812" lon="6.30143">
        <ele>1675.23</ele>
        <time>2016-05-14T10:09:35Z</time>
      </trkpt>
      <trkpt lat="44.32812" lon="6.30124">
        <ele>1674.75</ele>
        <time>2016-05-14T10:09:47Z</time>
      </trkpt>
      <trkpt lat="44.32813" lon="6.30117">
        <ele>1674.27</ele>
        <time>2016-05-14T10:09:51Z</time>
      </trkpt>
      <trkpt lat="44.32812" lon="6.30107">
        <ele>1673.79</ele>
        <time>2016-05-14T10:09:59Z</time>
      </trkpt>
      <trkpt lat="44.32812" lon="6.30085">
        <ele>1670.91</ele>
        <time>2016-05-14T10:10:15Z</time>
      </trkpt>
      <trkpt lat="44.32813" lon="6.30077">
        <ele>1669.95</ele>
        <time>2016-05-14T10:10:21Z</time>
      </trkpt>
      <trkpt lat="44.32819" lon="6.30071">
        <ele>1669.47</ele>
        <time>2016-05-14T10:10:28Z</time>
      </trkpt>
      <trkpt lat="44.32822" lon="6.30067">
        <ele>1668.99</ele>
        <time>2016-05-14T10:10:32Z</time>
      </trkpt>
      <trkpt lat="44.32827" lon="6.30057">
        <ele>1668.51</ele>
        <time>2016-05-14T10:10:40Z</time>
      </trkpt>
      <trkpt lat="44.32827" lon="6.30051">
        <ele>1667.54</ele>
        <time>2016-05-14T10:10:45Z</time>
      </trkpt>
      <trkpt lat="44.32824" lon="6.30043">
        <ele>1668.99</ele>
        <time>2016-05-14T10:10:56Z</time>
      </trkpt>
      <trkpt lat="44.32813" lon="6.30025">
        <ele>1670.43</ele>
        <time>2016-05-14T10:11:14Z</time>
      </trkpt>
      <trkpt lat="44.32804" lon="6.30018">
        <ele>1672.35</ele>
        <time>2016-05-14T10:11:27Z</time>
      </trkpt>
      <trkpt lat="44.32798" lon="6.30018">
        <ele>1672.83</ele>
        <time>2016-05-14T10:11:35Z</time>
      </trkpt>
      <trkpt lat="44.32784" lon="6.30024">
        <ele>1674.27</ele>
        <time>2016-05-14T10:11:50Z</time>
      </trkpt>
      <trkpt lat="44.32769" lon="6.30039">
        <ele>1674.27</ele>
        <time>2016-05-14T10:12:08Z</time>
      </trkpt>
      <trkpt lat="44.32755" lon="6.3006">
        <ele>1674.27</ele>
        <time>2016-05-14T10:12:26Z</time>
      </trkpt>
      <trkpt lat="44.32739" lon="6.30069">
        <ele>1674.75</ele>
        <time>2016-05-14T10:12:42Z</time>
      </trkpt>
      <trkpt lat="44.32726" lon="6.30065">
        <ele>1676.68</ele>
        <time>2016-05-14T10:12:59Z</time>
      </trkpt>
      <trkpt lat="44.32718" lon="6.30056">
        <ele>1679.08</ele>
        <time>2016-05-14T10:13:15Z</time>
      </trkpt>
      <trkpt lat="44.3271" lon="6.30042">
        <ele>1682.44</ele>
        <time>2016-05-14T10:13:34Z</time>
      </trkpt>
      <trkpt lat="44.32709" lon="6.30036">
        <ele>1682.93</ele>
        <time>2016-05-14T10:13:39Z</time>
      </trkpt>
      <trkpt lat="44.32704" lon="6.30018">
        <ele>1683.41</ele>
        <time>2016-05-14T10:13:54Z</time>
      </trkpt>
      <trkpt lat="44.32694" lon="6.30001">
        <ele>1685.33</ele>
        <time>2016-05-14T10:14:11Z</time>
      </trkpt>
      <trkpt lat="44.32685" lon="6.29982">
        <ele>1686.77</ele>
        <time>2016-05-14T10:14:28Z</time>
      </trkpt>
      <trkpt lat="44.32687" lon="6.29959">
        <ele>1685.33</ele>
        <time>2016-05-14T10:14:43Z</time>
      </trkpt>
      <trkpt lat="44.32693" lon="6.29934">
        <ele>1684.37</ele>
        <time>2016-05-14T10:15:02Z</time>
      </trkpt>
      <trkpt lat="44.32687" lon="6.29927">
        <ele>1684.85</ele>
        <time>2016-05-14T10:15:10Z</time>
      </trkpt>
      <trkpt lat="44.3267" lon="6.29934">
        <ele>1686.29</ele>
        <time>2016-05-14T10:15:29Z</time>
      </trkpt>
      <trkpt lat="44.32657" lon="6.2994">
        <ele>1688.69</ele>
        <time>2016-05-14T10:15:47Z</time>
      </trkpt>
      <trkpt lat="44.32645" lon="6.29951">
        <ele>1691.1</ele>
        <time>2016-05-14T10:16:07Z</time>
      </trkpt>
      <trkpt lat="44.32637" lon="6.29955">
        <ele>1692.54</ele>
        <time>2016-05-14T10:16:15Z</time>
      </trkpt>
      <trkpt lat="44.32622" lon="6.29968">
        <ele>1694.94</ele>
        <time>2016-05-14T10:16:34Z</time>
      </trkpt>
      <trkpt lat="44.32616" lon="6.29984">
        <ele>1696.38</ele>
        <time>2016-05-14T10:16:51Z</time>
      </trkpt>
      <trkpt lat="44.3261" lon="6.29992">
        <ele>1697.34</ele>
        <time>2016-05-14T10:17:01Z</time>
      </trkpt>
      <trkpt lat="44.32595" lon="6.29997">
        <ele>1699.27</ele>
        <time>2016-05-14T10:17:19Z</time>
      </trkpt>
      <trkpt lat="44.32584" lon="6.30003">
        <ele>1700.71</ele>
        <time>2016-05-14T10:17:33Z</time>
      </trkpt>
      <trkpt lat="44.32567" lon="6.30013">
        <ele>1703.59</ele>
        <time>2016-05-14T10:17:51Z</time>
      </trkpt>
      <trkpt lat="44.32552" lon="6.30025">
        <ele>1705.52</ele>
        <time>2016-05-14T10:18:08Z</time>
      </trkpt>
      <trkpt lat="44.32544" lon="6.30036">
        <ele>1706.48</ele>
        <time>2016-05-14T10:18:19Z</time>
      </trkpt>
      <trkpt lat="44.32531" lon="6.30051">
        <ele>1708.4</ele>
        <time>2016-05-14T10:18:37Z</time>
      </trkpt>
      <trkpt lat="44.32518" lon="6.30062">
        <ele>1710.32</ele>
        <time>2016-05-14T10:18:56Z</time>
      </trkpt>
      <trkpt lat="44.32506" lon="6.30071">
        <ele>1712.73</ele>
        <time>2016-05-14T10:19:13Z</time>
      </trkpt>
      <trkpt lat="44.32494" lon="6.30085">
        <ele>1715.61</ele>
        <time>2016-05-14T10:19:32Z</time>
      </trkpt>
      <trkpt lat="44.32482" lon="6.30096">
        <ele>1718.49</ele>
        <time>2016-05-14T10:19:49Z</time>
      </trkpt>
      <trkpt lat="44.3247" lon="6.30108">
        <ele>1719.94</ele>
        <time>2016-05-14T10:20:05Z</time>
      </trkpt>
      <trkpt lat="44.32455" lon="6.30125">
        <ele>1721.38</ele>
        <time>2016-05-14T10:20:24Z</time>
      </trkpt>
      <trkpt lat="44.32439" lon="6.30142">
        <ele>1723.3</ele>
        <time>2016-05-14T10:20:43Z</time>
      </trkpt>
      <trkpt lat="44.32434" lon="6.30143">
        <ele>1723.78</ele>
        <time>2016-05-14T10:20:57Z</time>
      </trkpt>
      <trkpt lat="44.32421" lon="6.30148">
        <ele>1723.78</ele>
        <time>2016-05-14T10:21:14Z</time>
      </trkpt>
      <trkpt lat="44.3242" lon="6.30145">
        <ele>1723.78</ele>
        <time>2016-05-14T10:21:31Z</time>
      </trkpt>
      <trkpt lat="44.32421" lon="6.30146">
        <ele>1723.78</ele>
        <time>2016-05-14T10:21:46Z</time>
      </trkpt>
      <trkpt lat="44.32414" lon="6.30142">
        <ele>1724.26</ele>
        <time>2016-05-14T10:22:03Z</time>
      </trkpt>
      <trkpt lat="44.32413" lon="6.30142">
        <ele>1724.26</ele>
        <time>2016-05-14T10:22:22Z</time>
      </trkpt>
      <trkpt lat="44.32419" lon="6.30124">
        <ele>1725.22</ele>
        <time>2016-05-14T10:22:38Z</time>
      </trkpt>
      <trkpt lat="44.32419" lon="6.30124">
        <ele>1725.22</ele>
        <time>2016-05-14T10:22:56Z</time>
      </trkpt>
      <trkpt lat="44.32428" lon="6.30102">
        <ele>1725.22</ele>
        <time>2016-05-14T10:23:12Z</time>
      </trkpt>
      <trkpt lat="44.32436" lon="6.30082">
        <ele>1726.67</ele>
        <time>2016-05-14T10:23:30Z</time>
      </trkpt>
      <trkpt lat="44.32437" lon="6.30076">
        <ele>1726.67</ele>
        <time>2016-05-14T10:23:36Z</time>
      </trkpt>
      <trkpt lat="44.32442" lon="6.30048">
        <ele>1726.67</ele>
        <time>2016-05-14T10:23:56Z</time>
      </trkpt>
      <trkpt lat="44.32448" lon="6.30024">
        <ele>1724.74</ele>
        <time>2016-05-14T10:24:13Z</time>
      </trkpt>
      <trkpt lat="44.32454" lon="6.29999">
        <ele>1724.26</ele>
        <time>2016-05-14T10:24:29Z</time>
      </trkpt>
      <trkpt lat="44.32463" lon="6.29973">
        <ele>1723.3</ele>
        <time>2016-05-14T10:24:47Z</time>
      </trkpt>
      <trkpt lat="44.32475" lon="6.29943">
        <ele>1722.82</ele>
        <time>2016-05-14T10:25:08Z</time>
      </trkpt>
      <trkpt lat="44.32487" lon="6.29918">
        <ele>1724.74</ele>
        <time>2016-05-14T10:25:26Z</time>
      </trkpt>
      <trkpt lat="44.32497" lon="6.29897">
        <ele>1727.15</ele>
        <time>2016-05-14T10:25:43Z</time>
      </trkpt>
      <trkpt lat="44.32505" lon="6.29875">
        <ele>1728.11</ele>
        <time>2016-05-14T10:26:00Z</time>
      </trkpt>
      <trkpt lat="44.32513" lon="6.2985">
        <ele>1729.07</ele>
        <time>2016-05-14T10:26:19Z</time>
      </trkpt>
      <trkpt lat="44.32519" lon="6.29827">
        <ele>1730.99</ele>
        <time>2016-05-14T10:26:37Z</time>
      </trkpt>
      <trkpt lat="44.32526" lon="6.29802">
        <ele>1731.95</ele>
        <time>2016-05-14T10:26:56Z</time>
      </trkpt>
      <trkpt lat="44.32527" lon="6.298">
        <ele>1731.95</ele>
        <time>2016-05-14T10:26:57Z</time>
      </trkpt>
      <trkpt lat="44.32529" lon="6.2978">
        <ele>1733.39</ele>
        <time>2016-05-14T10:27:12Z</time>
      </trkpt>
      <trkpt lat="44.3253" lon="6.29777">
        <ele>1733.39</ele>
        <time>2016-05-14T10:27:14Z</time>
      </trkpt>
      <trkpt lat="44.32533" lon="6.29752">
        <ele>1734.84</ele>
        <time>2016-05-14T10:27:33Z</time>
      </trkpt>
      <trkpt lat="44.32537" lon="6.29727">
        <ele>1735.32</ele>
        <time>2016-05-14T10:27:51Z</time>
      </trkpt>
      <trkpt lat="44.32539" lon="6.29716">
        <ele>1737.24</ele>
        <time>2016-05-14T10:28:07Z</time>
      </trkpt>
      <trkpt lat="44.32541" lon="6.29718">
        <ele>1737.72</ele>
        <time>2016-05-14T10:28:39Z</time>
      </trkpt>
      <trkpt lat="44.32541" lon="6.29715">
        <ele>1736.76</ele>
        <time>2016-05-14T10:28:56Z</time>
      </trkpt>
      <trkpt lat="44.32543" lon="6.2969">
        <ele>1739.16</ele>
        <time>2016-05-14T10:29:15Z</time>
      </trkpt>
      <trkpt lat="44.32546" lon="6.29664">
        <ele>1741.08</ele>
        <time>2016-05-14T10:29:35Z</time>
      </trkpt>
      <trkpt lat="44.32549" lon="6.2964">
        <ele>1743.49</ele>
        <time>2016-05-14T10:29:53Z</time>
      </trkpt>
      <trkpt lat="44.3255" lon="6.29621">
        <ele>1745.89</ele>
        <time>2016-05-14T10:30:09Z</time>
      </trkpt>
      <trkpt lat="44.32553" lon="6.29598">
        <ele>1747.81</ele>
        <time>2016-05-14T10:30:28Z</time>
      </trkpt>
      <trkpt lat="44.32555" lon="6.29579">
        <ele>1748.78</ele>
        <time>2016-05-14T10:30:43Z</time>
      </trkpt>
      <trkpt lat="44.32555" lon="6.29555">
        <ele>1750.22</ele>
        <time>2016-05-14T10:31:00Z</time>
      </trkpt>
      <trkpt lat="44.32558" lon="6.29533">
        <ele>1752.14</ele>
        <time>2016-05-14T10:31:17Z</time>
      </trkpt>
      <trkpt lat="44.32564" lon="6.29513">
        <ele>1753.1</ele>
        <time>2016-05-14T10:31:35Z</time>
      </trkpt>
      <trkpt lat="44.32567" lon="6.29502">
        <ele>1755.02</ele>
        <time>2016-05-14T10:31:50Z</time>
      </trkpt>
      <trkpt lat="44.3257" lon="6.29484">
        <ele>1755.5</ele>
        <time>2016-05-14T10:32:08Z</time>
      </trkpt>
      <trkpt lat="44.32577" lon="6.29465">
        <ele>1757.91</ele>
        <time>2016-05-14T10:32:26Z</time>
      </trkpt>
      <trkpt lat="44.32581" lon="6.29442">
        <ele>1759.83</ele>
        <time>2016-05-14T10:32:44Z</time>
      </trkpt>
      <trkpt lat="44.32586" lon="6.2942">
        <ele>1761.27</ele>
        <time>2016-05-14T10:33:02Z</time>
      </trkpt>
      <trkpt lat="44.32587" lon="6.29402">
        <ele>1762.71</ele>
        <time>2016-05-14T10:33:18Z</time>
      </trkpt>
      <trkpt lat="44.32585" lon="6.29384">
        <ele>1764.16</ele>
        <time>2016-05-14T10:33:34Z</time>
      </trkpt>
      <trkpt lat="44.32583" lon="6.29363">
        <ele>1766.08</ele>
        <time>2016-05-14T10:33:51Z</time>
      </trkpt>
      <trkpt lat="44.32583" lon="6.29339">
        <ele>1768.96</ele>
        <time>2016-05-14T10:34:13Z</time>
      </trkpt>
      <trkpt lat="44.32589" lon="6.29322">
        <ele>1771.37</ele>
        <time>2016-05-14T10:34:31Z</time>
      </trkpt>
      <trkpt lat="44.32593" lon="6.29311">
        <ele>1771.85</ele>
        <time>2016-05-14T10:34:50Z</time>
      </trkpt>
      <trkpt lat="44.32593" lon="6.29311">
        <ele>1771.85</ele>
        <time>2016-05-14T10:34:51Z</time>
      </trkpt>
      <trkpt lat="44.32597" lon="6.29293">
        <ele>1770.41</ele>
        <time>2016-05-14T10:35:11Z</time>
      </trkpt>
      <trkpt lat="44.32602" lon="6.2927">
        <ele>1768.48</ele>
        <time>2016-05-14T10:35:28Z</time>
      </trkpt>
      <trkpt lat="44.32606" lon="6.29249">
        <ele>1765.6</ele>
        <time>2016-05-14T10:35:44Z</time>
      </trkpt>
      <trkpt lat="44.32606" lon="6.29248">
        <ele>1765.6</ele>
        <time>2016-05-14T10:35:45Z</time>
      </trkpt>
      <trkpt lat="44.32613" lon="6.29231">
        <ele>1762.71</ele>
        <time>2016-05-14T10:35:59Z</time>
      </trkpt>
      <trkpt lat="44.32621" lon="6.29209">
        <ele>1760.79</ele>
        <time>2016-05-14T10:36:15Z</time>
      </trkpt>
      <trkpt lat="44.32631" lon="6.2919">
        <ele>1757.43</ele>
        <time>2016-05-14T10:36:31Z</time>
      </trkpt>
      <trkpt lat="44.32634" lon="6.2918">
        <ele>1757.43</ele>
        <time>2016-05-14T10:36:38Z</time>
      </trkpt>
      <trkpt lat="44.32639" lon="6.29169">
        <ele>1755.5</ele>
        <time>2016-05-14T10:36:47Z</time>
      </trkpt>
      <trkpt lat="44.32651" lon="6.29151">
        <ele>1753.58</ele>
        <time>2016-05-14T10:37:04Z</time>
      </trkpt>
      <trkpt lat="44.32663" lon="6.29135">
        <ele>1750.22</ele>
        <time>2016-05-14T10:37:19Z</time>
      </trkpt>
      <trkpt lat="44.32674" lon="6.29111">
        <ele>1747.81</ele>
        <time>2016-05-14T10:37:39Z</time>
      </trkpt>
      <trkpt lat="44.32681" lon="6.29088">
        <ele>1744.45</ele>
        <time>2016-05-14T10:37:57Z</time>
      </trkpt>
      <trkpt lat="44.32683" lon="6.29083">
        <ele>1742.53</ele>
        <time>2016-05-14T10:38:01Z</time>
      </trkpt>
      <trkpt lat="44.32693" lon="6.29061">
        <ele>1741.08</ele>
        <time>2016-05-14T10:38:19Z</time>
      </trkpt>
      <trkpt lat="44.32704" lon="6.29046">
        <ele>1737.72</ele>
        <time>2016-05-14T10:38:35Z</time>
      </trkpt>
      <trkpt lat="44.32715" lon="6.29028">
        <ele>1734.84</ele>
        <time>2016-05-14T10:38:52Z</time>
      </trkpt>
      <trkpt lat="44.32718" lon="6.29025">
        <ele>1733.39</ele>
        <time>2016-05-14T10:38:55Z</time>
      </trkpt>
      <trkpt lat="44.32721" lon="6.29016">
        <ele>1732.43</ele>
        <time>2016-05-14T10:39:02Z</time>
      </trkpt>
      <trkpt lat="44.32722" lon="6.29011">
        <ele>1731.95</ele>
        <time>2016-05-14T10:39:07Z</time>
      </trkpt>
      <trkpt lat="44.32724" lon="6.29003">
        <ele>1730.51</ele>
        <time>2016-05-14T10:39:17Z</time>
      </trkpt>
      <trkpt lat="44.32724" lon="6.29">
        <ele>1730.51</ele>
        <time>2016-05-14T10:39:21Z</time>
      </trkpt>
      <trkpt lat="44.32725" lon="6.28998">
        <ele>1731.95</ele>
        <time>2016-05-14T10:39:23Z</time>
      </trkpt>
      <trkpt lat="44.32728" lon="6.2899">
        <ele>1733.39</ele>
        <time>2016-05-14T10:39:38Z</time>
      </trkpt>
      <trkpt lat="44.3273" lon="6.28988">
        <ele>1733.39</ele>
        <time>2016-05-14T10:40:01Z</time>
      </trkpt>
      <trkpt lat="44.3273" lon="6.28985">
        <ele>1732.43</ele>
        <time>2016-05-14T10:40:07Z</time>
      </trkpt>
      <trkpt lat="44.32728" lon="6.28976">
        <ele>1732.91</ele>
        <time>2016-05-14T10:40:13Z</time>
      </trkpt>
      <trkpt lat="44.32723" lon="6.28959">
        <ele>1734.84</ele>
        <time>2016-05-14T10:40:29Z</time>
      </trkpt>
      <trkpt lat="44.32723" lon="6.28951">
        <ele>1736.28</ele>
        <time>2016-05-14T10:40:39Z</time>
      </trkpt>
      <trkpt lat="44.32717" lon="6.28939">
        <ele>1736.28</ele>
        <time>2016-05-14T10:40:59Z</time>
      </trkpt>
      <trkpt lat="44.32707" lon="6.28926">
        <ele>1738.2</ele>
        <time>2016-05-14T10:41:16Z</time>
      </trkpt>
      <trkpt lat="44.3271" lon="6.28911">
        <ele>1739.16</ele>
        <time>2016-05-14T10:41:31Z</time>
      </trkpt>
      <trkpt lat="44.32712" lon="6.28909">
        <ele>1737.72</ele>
        <time>2016-05-14T10:41:34Z</time>
      </trkpt>
      <trkpt lat="44.32715" lon="6.28904">
        <ele>1736.76</ele>
        <time>2016-05-14T10:41:40Z</time>
      </trkpt>
      <trkpt lat="44.32726" lon="6.28894">
        <ele>1736.28</ele>
        <time>2016-05-14T10:41:57Z</time>
      </trkpt>
      <trkpt lat="44.32735" lon="6.28896">
        <ele>1736.28</ele>
        <time>2016-05-14T10:42:17Z</time>
      </trkpt>
      <trkpt lat="44.32739" lon="6.28896">
        <ele>1735.32</ele>
        <time>2016-05-14T10:42:22Z</time>
      </trkpt>
      <trkpt lat="44.32743" lon="6.28897">
        <ele>1735.32</ele>
        <time>2016-05-14T10:42:30Z</time>
      </trkpt>
      <trkpt lat="44.32744" lon="6.28898">
        <ele>1735.32</ele>
        <time>2016-05-14T10:42:35Z</time>
      </trkpt>
      <trkpt lat="44.32747" lon="6.28896">
        <ele>1733.88</ele>
        <time>2016-05-14T10:42:39Z</time>
      </trkpt>
      <trkpt lat="44.32761" lon="6.28883">
        <ele>1732.91</ele>
        <time>2016-05-14T10:42:56Z</time>
      </trkpt>
      <trkpt lat="44.32768" lon="6.28872">
        <ele>1731.95</ele>
        <time>2016-05-14T10:43:07Z</time>
      </trkpt>
      <trkpt lat="44.32786" lon="6.28853">
        <ele>1729.55</ele>
        <time>2016-05-14T10:43:27Z</time>
      </trkpt>
      <trkpt lat="44.32799" lon="6.28834">
        <ele>1728.59</ele>
        <time>2016-05-14T10:43:44Z</time>
      </trkpt>
      <trkpt lat="44.32809" lon="6.28809">
        <ele>1727.15</ele>
        <time>2016-05-14T10:44:02Z</time>
      </trkpt>
      <trkpt lat="44.32816" lon="6.2878">
        <ele>1725.7</ele>
        <time>2016-05-14T10:44:22Z</time>
      </trkpt>
      <trkpt lat="44.32816" lon="6.28778">
        <ele>1725.7</ele>
        <time>2016-05-14T10:44:25Z</time>
      </trkpt>
      <trkpt lat="44.32824" lon="6.28758">
        <ele>1722.34</ele>
        <time>2016-05-14T10:44:41Z</time>
      </trkpt>
      <trkpt lat="44.32839" lon="6.28739">
        <ele>1718.97</ele>
        <time>2016-05-14T10:45:01Z</time>
      </trkpt>
      <trkpt lat="44.3285" lon="6.28727">
        <ele>1716.09</ele>
        <time>2016-05-14T10:45:17Z</time>
      </trkpt>
      <trkpt lat="44.3285" lon="6.28726">
        <ele>1716.09</ele>
        <time>2016-05-14T10:45:18Z</time>
      </trkpt>
      <trkpt lat="44.32859" lon="6.28713">
        <ele>1712.73</ele>
        <time>2016-05-14T10:45:35Z</time>
      </trkpt>
      <trkpt lat="44.32869" lon="6.28698">
        <ele>1710.32</ele>
        <time>2016-05-14T10:45:54Z</time>
      </trkpt>
      <trkpt lat="44.32874" lon="6.28698">
        <ele>1709.84</ele>
        <time>2016-05-14T10:45:59Z</time>
      </trkpt>
      <trkpt lat="44.32889" lon="6.28701">
        <ele>1706.96</ele>
        <time>2016-05-14T10:46:15Z</time>
      </trkpt>
      <trkpt lat="44.32907" lon="6.28708">
        <ele>1705.04</ele>
        <time>2016-05-14T10:46:34Z</time>
      </trkpt>
      <trkpt lat="44.32916" lon="6.28709">
        <ele>1705.04</ele>
        <time>2016-05-14T10:46:45Z</time>
      </trkpt>
      <trkpt lat="44.3292" lon="6.28693">
        <ele>1704.55</ele>
        <time>2016-05-14T10:46:57Z</time>
      </trkpt>
      <trkpt lat="44.32918" lon="6.28685">
        <ele>1704.55</ele>
        <time>2016-05-14T10:47:02Z</time>
      </trkpt>
      <trkpt lat="44.32917" lon="6.28673">
        <ele>1704.55</ele>
        <time>2016-05-14T10:47:10Z</time>
      </trkpt>
      <trkpt lat="44.32917" lon="6.28651">
        <ele>1706</ele>
        <time>2016-05-14T10:47:26Z</time>
      </trkpt>
      <trkpt lat="44.3292" lon="6.28643">
        <ele>1704.07</ele>
        <time>2016-05-14T10:47:32Z</time>
      </trkpt>
      <trkpt lat="44.32925" lon="6.28631">
        <ele>1704.07</ele>
        <time>2016-05-14T10:47:41Z</time>
      </trkpt>
      <trkpt lat="44.32931" lon="6.28614">
        <ele>1703.59</ele>
        <time>2016-05-14T10:47:54Z</time>
      </trkpt>
      <trkpt lat="44.32929" lon="6.28608">
        <ele>1703.59</ele>
        <time>2016-05-14T10:47:58Z</time>
      </trkpt>
      <trkpt lat="44.32931" lon="6.28581">
        <ele>1703.11</ele>
        <time>2016-05-14T10:48:16Z</time>
      </trkpt>
      <trkpt lat="44.32929" lon="6.28565">
        <ele>1702.63</ele>
        <time>2016-05-14T10:48:30Z</time>
      </trkpt>
      <trkpt lat="44.32927" lon="6.28552">
        <ele>1702.63</ele>
        <time>2016-05-14T10:48:40Z</time>
      </trkpt>
      <trkpt lat="44.32926" lon="6.28531">
        <ele>1703.59</ele>
        <time>2016-05-14T10:48:53Z</time>
      </trkpt>
      <trkpt lat="44.32925" lon="6.28525">
        <ele>1703.59</ele>
        <time>2016-05-14T10:49:02Z</time>
      </trkpt>
      <trkpt lat="44.32929" lon="6.28504">
        <ele>1702.63</ele>
        <time>2016-05-14T10:49:19Z</time>
      </trkpt>
      <trkpt lat="44.32934" lon="6.28494">
        <ele>1700.71</ele>
        <time>2016-05-14T10:49:28Z</time>
      </trkpt>
      <trkpt lat="44.32945" lon="6.2848">
        <ele>1700.71</ele>
        <time>2016-05-14T10:49:45Z</time>
      </trkpt>
      <trkpt lat="44.32954" lon="6.28475">
        <ele>1700.71</ele>
        <time>2016-05-14T10:49:59Z</time>
      </trkpt>
      <trkpt lat="44.32954" lon="6.28473">
        <ele>1700.71</ele>
        <time>2016-05-14T10:50:01Z</time>
      </trkpt>
      <trkpt lat="44.32962" lon="6.28458">
        <ele>1700.71</ele>
        <time>2016-05-14T10:50:13Z</time>
      </trkpt>
      <trkpt lat="44.32966" lon="6.28447">
        <ele>1698.31</ele>
        <time>2016-05-14T10:50:29Z</time>
      </trkpt>
      <trkpt lat="44.32967" lon="6.28441">
        <ele>1696.86</ele>
        <time>2016-05-14T10:50:42Z</time>
      </trkpt>
      <trkpt lat="44.32969" lon="6.28427">
        <ele>1695.42</ele>
        <time>2016-05-14T10:51:01Z</time>
      </trkpt>
      <trkpt lat="44.32973" lon="6.28422">
        <ele>1694.46</ele>
        <time>2016-05-14T10:51:19Z</time>
      </trkpt>
      <trkpt lat="44.32973" lon="6.28409">
        <ele>1692.06</ele>
        <time>2016-05-14T10:51:34Z</time>
      </trkpt>
      <trkpt lat="44.32973" lon="6.28395">
        <ele>1688.69</ele>
        <time>2016-05-14T10:51:47Z</time>
      </trkpt>
      <trkpt lat="44.32979" lon="6.28382">
        <ele>1686.77</ele>
        <time>2016-05-14T10:52:01Z</time>
      </trkpt>
      <trkpt lat="44.32982" lon="6.28378">
        <ele>1685.33</ele>
        <time>2016-05-14T10:52:07Z</time>
      </trkpt>
      <trkpt lat="44.32989" lon="6.28374">
        <ele>1683.89</ele>
        <time>2016-05-14T10:52:22Z</time>
      </trkpt>
      <trkpt lat="44.32992" lon="6.28372">
        <ele>1683.89</ele>
        <time>2016-05-14T10:52:27Z</time>
      </trkpt>
      <trkpt lat="44.32989" lon="6.2836">
        <ele>1682.93</ele>
        <time>2016-05-14T10:52:41Z</time>
      </trkpt>
      <trkpt lat="44.32986" lon="6.2836">
        <ele>1681.96</ele>
        <time>2016-05-14T10:52:57Z</time>
      </trkpt>
      <trkpt lat="44.32987" lon="6.28358">
        <ele>1681.48</ele>
        <time>2016-05-14T10:53:00Z</time>
      </trkpt>
      <trkpt lat="44.32992" lon="6.28351">
        <ele>1682.44</ele>
        <time>2016-05-14T10:53:15Z</time>
      </trkpt>
      <trkpt lat="44.32992" lon="6.2835">
        <ele>1682.44</ele>
        <time>2016-05-14T10:53:16Z</time>
      </trkpt>
      <trkpt lat="44.33001" lon="6.28349">
        <ele>1683.89</ele>
        <time>2016-05-14T10:53:26Z</time>
      </trkpt>
      <trkpt lat="44.33011" lon="6.28345">
        <ele>1684.37</ele>
        <time>2016-05-14T10:53:40Z</time>
      </trkpt>
      <trkpt lat="44.33023" lon="6.28343">
        <ele>1687.25</ele>
        <time>2016-05-14T10:53:57Z</time>
      </trkpt>
      <trkpt lat="44.33023" lon="6.28344">
        <ele>1688.21</ele>
        <time>2016-05-14T10:54:11Z</time>
      </trkpt>
      <trkpt lat="44.33022" lon="6.28345">
        <ele>1688.69</ele>
        <time>2016-05-14T10:54:32Z</time>
      </trkpt>
      <trkpt lat="44.33021" lon="6.2835">
        <ele>1688.69</ele>
        <time>2016-05-14T10:54:47Z</time>
      </trkpt>
      <trkpt lat="44.3302" lon="6.2835">
        <ele>1688.69</ele>
        <time>2016-05-14T10:55:03Z</time>
      </trkpt>
      <trkpt lat="44.33022" lon="6.28348">
        <ele>1688.69</ele>
        <time>2016-05-14T10:55:25Z</time>
      </trkpt>
      <trkpt lat="44.33019" lon="6.28349">
        <ele>1688.69</ele>
        <time>2016-05-14T10:55:40Z</time>
      </trkpt>
      <trkpt lat="44.33018" lon="6.28349">
        <ele>1687.25</ele>
        <time>2016-05-14T10:55:53Z</time>
      </trkpt>
      <trkpt lat="44.33017" lon="6.28351">
        <ele>1687.25</ele>
        <time>2016-05-14T10:56:10Z</time>
      </trkpt>
      <trkpt lat="44.33018" lon="6.28356">
        <ele>1687.25</ele>
        <time>2016-05-14T10:56:30Z</time>
      </trkpt>
      <trkpt lat="44.33015" lon="6.28353">
        <ele>1687.25</ele>
        <time>2016-05-14T10:56:50Z</time>
      </trkpt>
      <trkpt lat="44.33011" lon="6.28351">
        <ele>1687.25</ele>
        <time>2016-05-14T10:57:12Z</time>
      </trkpt>
      <trkpt lat="44.3301" lon="6.28351">
        <ele>1687.25</ele>
        <time>2016-05-14T10:57:35Z</time>
      </trkpt>
      <trkpt lat="44.33007" lon="6.28354">
        <ele>1687.25</ele>
        <time>2016-05-14T10:57:54Z</time>
      </trkpt>
      <trkpt lat="44.33008" lon="6.28355">
        <ele>1688.69</ele>
        <time>2016-05-14T10:58:03Z</time>
      </trkpt>
      <trkpt lat="44.33013" lon="6.28351">
        <ele>1687.73</ele>
        <time>2016-05-14T10:58:20Z</time>
      </trkpt>
      <trkpt lat="44.33015" lon="6.28343">
        <ele>1688.21</ele>
        <time>2016-05-14T10:58:48Z</time>
      </trkpt>
      <trkpt lat="44.33019" lon="6.28349">
        <ele>1688.21</ele>
        <time>2016-05-14T10:59:09Z</time>
      </trkpt>
      <trkpt lat="44.3302" lon="6.28351">
        <ele>1688.21</ele>
        <time>2016-05-14T10:59:31Z</time>
      </trkpt>
      <trkpt lat="44.33017" lon="6.28347">
        <ele>1688.69</ele>
        <time>2016-05-14T11:00:01Z</time>
      </trkpt>
      <trkpt lat="44.33019" lon="6.2835">
        <ele>1688.69</ele>
        <time>2016-05-14T11:00:31Z</time>
      </trkpt>
      <trkpt lat="44.33016" lon="6.28348">
        <ele>1689.17</ele>
        <time>2016-05-14T11:00:59Z</time>
      </trkpt>
      <trkpt lat="44.33018" lon="6.28347">
        <ele>1690.14</ele>
        <time>2016-05-14T11:01:12Z</time>
      </trkpt>
      <trkpt lat="44.33021" lon="6.28348">
        <ele>1690.14</ele>
        <time>2016-05-14T11:01:40Z</time>
      </trkpt>
      <trkpt lat="44.33024" lon="6.2835">
        <ele>1688.69</ele>
        <time>2016-05-14T11:01:48Z</time>
      </trkpt>
      <trkpt lat="44.33024" lon="6.28351">
        <ele>1690.14</ele>
        <time>2016-05-14T11:02:06Z</time>
      </trkpt>
      <trkpt lat="44.33017" lon="6.28344">
        <ele>1690.14</ele>
        <time>2016-05-14T11:02:23Z</time>
      </trkpt>
      <trkpt lat="44.3301" lon="6.28338">
        <ele>1690.14</ele>
        <time>2016-05-14T11:02:44Z</time>
      </trkpt>
      <trkpt lat="44.3301" lon="6.28339">
        <ele>1690.62</ele>
        <time>2016-05-14T11:03:11Z</time>
      </trkpt>
      <trkpt lat="44.33008" lon="6.2834">
        <ele>1690.62</ele>
        <time>2016-05-14T11:03:38Z</time>
      </trkpt>
      <trkpt lat="44.33014" lon="6.28344">
        <ele>1690.62</ele>
        <time>2016-05-14T11:04:05Z</time>
      </trkpt>
      <trkpt lat="44.33014" lon="6.28343">
        <ele>1690.62</ele>
        <time>2016-05-14T11:04:35Z</time>
      </trkpt>
      <trkpt lat="44.33014" lon="6.28343">
        <ele>1691.1</ele>
        <time>2016-05-14T11:05:03Z</time>
      </trkpt>
      <trkpt lat="44.33013" lon="6.28342">
        <ele>1691.1</ele>
        <time>2016-05-14T11:05:29Z</time>
      </trkpt>
      <trkpt lat="44.33013" lon="6.28344">
        <ele>1691.1</ele>
        <time>2016-05-14T11:05:56Z</time>
      </trkpt>
      <trkpt lat="44.33013" lon="6.28344">
        <ele>1691.1</ele>
        <time>2016-05-14T11:06:22Z</time>
      </trkpt>
      <trkpt lat="44.33016" lon="6.28347">
        <ele>1691.58</ele>
        <time>2016-05-14T11:06:55Z</time>
      </trkpt>
      <trkpt lat="44.33016" lon="6.28347">
        <ele>1691.58</ele>
        <time>2016-05-14T11:07:23Z</time>
      </trkpt>
      <trkpt lat="44.33016" lon="6.28348">
        <ele>1691.58</ele>
        <time>2016-05-14T11:07:40Z</time>
      </trkpt>
      <trkpt lat="44.33016" lon="6.28347">
        <ele>1691.58</ele>
        <time>2016-05-14T11:08:10Z</time>
      </trkpt>
      <trkpt lat="44.33018" lon="6.28347">
        <ele>1691.58</ele>
        <time>2016-05-14T11:08:32Z</time>
      </trkpt>
      <trkpt lat="44.33019" lon="6.28348">
        <ele>1691.58</ele>
        <time>2016-05-14T11:08:52Z</time>
      </trkpt>
      <trkpt lat="44.33022" lon="6.28349">
        <ele>1692.06</ele>
        <time>2016-05-14T11:09:19Z</time>
      </trkpt>
      <trkpt lat="44.33014" lon="6.28344">
        <ele>1692.06</ele>
        <time>2016-05-14T11:09:49Z</time>
      </trkpt>
      <trkpt lat="44.33014" lon="6.28345">
        <ele>1691.1</ele>
        <time>2016-05-14T11:10:12Z</time>
      </trkpt>
      <trkpt lat="44.33014" lon="6.28346">
        <ele>1691.1</ele>
        <time>2016-05-14T11:10:30Z</time>
      </trkpt>
      <trkpt lat="44.33017" lon="6.28348">
        <ele>1691.1</ele>
        <time>2016-05-14T11:10:51Z</time>
      </trkpt>
      <trkpt lat="44.3302" lon="6.28349">
        <ele>1691.1</ele>
        <time>2016-05-14T11:11:12Z</time>
      </trkpt>
      <trkpt lat="44.33018" lon="6.28348">
        <ele>1691.1</ele>
        <time>2016-05-14T11:11:36Z</time>
      </trkpt>
      <trkpt lat="44.33018" lon="6.28348">
        <ele>1691.1</ele>
        <time>2016-05-14T11:11:53Z</time>
      </trkpt>
      <trkpt lat="44.33019" lon="6.28349">
        <ele>1691.1</ele>
        <time>2016-05-14T11:12:15Z</time>
      </trkpt>
      <trkpt lat="44.33018" lon="6.28345">
        <ele>1691.58</ele>
        <time>2016-05-14T11:12:37Z</time>
      </trkpt>
      <trkpt lat="44.33016" lon="6.28347">
        <ele>1691.58</ele>
        <time>2016-05-14T11:13:01Z</time>
      </trkpt>
      <trkpt lat="44.33016" lon="6.28346">
        <ele>1692.54</ele>
        <time>2016-05-14T11:13:30Z</time>
      </trkpt>
      <trkpt lat="44.33014" lon="6.28345">
        <ele>1693.02</ele>
        <time>2016-05-14T11:13:47Z</time>
      </trkpt>
      <trkpt lat="44.33017" lon="6.28347">
        <ele>1693.02</ele>
        <time>2016-05-14T11:14:10Z</time>
      </trkpt>
      <trkpt lat="44.3302" lon="6.28348">
        <ele>1693.02</ele>
        <time>2016-05-14T11:14:40Z</time>
      </trkpt>
      <trkpt lat="44.33018" lon="6.28345">
        <ele>1693.02</ele>
        <time>2016-05-14T11:15:03Z</time>
      </trkpt>
      <trkpt lat="44.3302" lon="6.28344">
        <ele>1693.02</ele>
        <time>2016-05-14T11:15:26Z</time>
      </trkpt>
      <trkpt lat="44.33018" lon="6.28345">
        <ele>1693.02</ele>
        <time>2016-05-14T11:15:50Z</time>
      </trkpt>
      <trkpt lat="44.33018" lon="6.28345">
        <ele>1693.5</ele>
        <time>2016-05-14T11:16:24Z</time>
      </trkpt>
      <trkpt lat="44.3302" lon="6.28347">
        <ele>1693.5</ele>
        <time>2016-05-14T11:16:52Z</time>
      </trkpt>
      <trkpt lat="44.3302" lon="6.28349">
        <ele>1693.5</ele>
        <time>2016-05-14T11:17:19Z</time>
      </trkpt>
      <trkpt lat="44.3302" lon="6.2835">
        <ele>1693.5</ele>
        <time>2016-05-14T11:17:44Z</time>
      </trkpt>
      <trkpt lat="44.33019" lon="6.28349">
        <ele>1693.5</ele>
        <time>2016-05-14T11:18:07Z</time>
      </trkpt>
      <trkpt lat="44.3302" lon="6.28349">
        <ele>1693.98</ele>
        <time>2016-05-14T11:18:26Z</time>
      </trkpt>
      <trkpt lat="44.33016" lon="6.28344">
        <ele>1693.98</ele>
        <time>2016-05-14T11:19:00Z</time>
      </trkpt>
      <trkpt lat="44.33015" lon="6.28349">
        <ele>1693.98</ele>
        <time>2016-05-14T11:19:23Z</time>
      </trkpt>
      <trkpt lat="44.3301" lon="6.2834">
        <ele>1693.98</ele>
        <time>2016-05-14T11:20:03Z</time>
      </trkpt>
      <trkpt lat="44.33009" lon="6.28337">
        <ele>1694.46</ele>
        <time>2016-05-14T11:20:44Z</time>
      </trkpt>
      <trkpt lat="44.33012" lon="6.28341">
        <ele>1694.46</ele>
        <time>2016-05-14T11:21:15Z</time>
      </trkpt>
      <trkpt lat="44.33015" lon="6.28347">
        <ele>1694.46</ele>
        <time>2016-05-14T11:21:50Z</time>
      </trkpt>
      <trkpt lat="44.33018" lon="6.28349">
        <ele>1694.94</ele>
        <time>2016-05-14T11:22:28Z</time>
      </trkpt>
      <trkpt lat="44.33017" lon="6.28347">
        <ele>1694.94</ele>
        <time>2016-05-14T11:23:06Z</time>
      </trkpt>
      <trkpt lat="44.33015" lon="6.28344">
        <ele>1694.94</ele>
        <time>2016-05-14T11:23:40Z</time>
      </trkpt>
      <trkpt lat="44.33009" lon="6.28335">
        <ele>1694.94</ele>
        <time>2016-05-14T11:24:13Z</time>
      </trkpt>
      <trkpt lat="44.33016" lon="6.28342">
        <ele>1694.94</ele>
        <time>2016-05-14T11:24:51Z</time>
      </trkpt>
      <trkpt lat="44.33019" lon="6.28344">
        <ele>1694.94</ele>
        <time>2016-05-14T11:25:18Z</time>
      </trkpt>
      <trkpt lat="44.33021" lon="6.2835">
        <ele>1694.94</ele>
        <time>2016-05-14T11:25:46Z</time>
      </trkpt>
      <trkpt lat="44.3302" lon="6.28349">
        <ele>1694.94</ele>
        <time>2016-05-14T11:26:14Z</time>
      </trkpt>
      <trkpt lat="44.33018" lon="6.28349">
        <ele>1695.42</ele>
        <time>2016-05-14T11:26:51Z</time>
      </trkpt>
      <trkpt lat="44.33018" lon="6.2835">
        <ele>1695.42</ele>
        <time>2016-05-14T11:27:27Z</time>
      </trkpt>
      <trkpt lat="44.33019" lon="6.28349">
        <ele>1695.42</ele>
        <time>2016-05-14T11:28:04Z</time>
      </trkpt>
      <trkpt lat="44.33018" lon="6.28348">
        <ele>1695.42</ele>
        <time>2016-05-14T11:28:30Z</time>
      </trkpt>
      <trkpt lat="44.3302" lon="6.28349">
        <ele>1695.42</ele>
        <time>2016-05-14T11:28:59Z</time>
      </trkpt>
      <trkpt lat="44.33022" lon="6.28351">
        <ele>1695.42</ele>
        <time>2016-05-14T11:29:36Z</time>
      </trkpt>
      <trkpt lat="44.33021" lon="6.28348">
        <ele>1695.42</ele>
        <time>2016-05-14T11:30:07Z</time>
      </trkpt>
      <trkpt lat="44.3302" lon="6.28346">
        <ele>1695.42</ele>
        <time>2016-05-14T11:30:31Z</time>
      </trkpt>
      <trkpt lat="44.33018" lon="6.28345">
        <ele>1695.9</ele>
        <time>2016-05-14T11:31:00Z</time>
      </trkpt>
      <trkpt lat="44.33016" lon="6.28345">
        <ele>1695.9</ele>
        <time>2016-05-14T11:31:24Z</time>
      </trkpt>
      <trkpt lat="44.33018" lon="6.28347">
        <ele>1694.94</ele>
        <time>2016-05-14T11:31:53Z</time>
      </trkpt>
      <trkpt lat="44.3302" lon="6.28345">
        <ele>1694.94</ele>
        <time>2016-05-14T11:32:20Z</time>
      </trkpt>
      <trkpt lat="44.33021" lon="6.28349">
        <ele>1694.94</ele>
        <time>2016-05-14T11:32:47Z</time>
      </trkpt>
      <trkpt lat="44.3302" lon="6.28347">
        <ele>1694.94</ele>
        <time>2016-05-14T11:33:14Z</time>
      </trkpt>
      <trkpt lat="44.33017" lon="6.28347">
        <ele>1694.94</ele>
        <time>2016-05-14T11:33:33Z</time>
      </trkpt>
      <trkpt lat="44.3302" lon="6.28348">
        <ele>1694.94</ele>
        <time>2016-05-14T11:34:08Z</time>
      </trkpt>
      <trkpt lat="44.33015" lon="6.28345">
        <ele>1696.38</ele>
        <time>2016-05-14T11:34:53Z</time>
      </trkpt>
      <trkpt lat="44.3302" lon="6.28347">
        <ele>1696.38</ele>
        <time>2016-05-14T11:35:39Z</time>
      </trkpt>
      <trkpt lat="44.33021" lon="6.28346">
        <ele>1696.38</ele>
        <time>2016-05-14T11:36:24Z</time>
      </trkpt>
      <trkpt lat="44.33021" lon="6.28348">
        <ele>1696.38</ele>
        <time>2016-05-14T11:36:57Z</time>
      </trkpt>
      <trkpt lat="44.33022" lon="6.2835">
        <ele>1696.38</ele>
        <time>2016-05-14T11:37:30Z</time>
      </trkpt>
      <trkpt lat="44.3302" lon="6.28348">
        <ele>1696.38</ele>
        <time>2016-05-14T11:37:59Z</time>
      </trkpt>
      <trkpt lat="44.33018" lon="6.28348">
        <ele>1696.38</ele>
        <time>2016-05-14T11:38:25Z</time>
      </trkpt>
      <trkpt lat="44.3302" lon="6.28346">
        <ele>1696.38</ele>
        <time>2016-05-14T11:38:45Z</time>
      </trkpt>
      <trkpt lat="44.3302" lon="6.28345">
        <ele>1696.38</ele>
        <time>2016-05-14T11:39:06Z</time>
      </trkpt>
      <trkpt lat="44.33019" lon="6.28348">
        <ele>1696.38</ele>
        <time>2016-05-14T11:39:34Z</time>
      </trkpt>
      <trkpt lat="44.33019" lon="6.28347">
        <ele>1696.38</ele>
        <time>2016-05-14T11:40:02Z</time>
      </trkpt>
      <trkpt lat="44.3302" lon="6.28348">
        <ele>1696.38</ele>
        <time>2016-05-14T11:40:35Z</time>
      </trkpt>
      <trkpt lat="44.33019" lon="6.28347">
        <ele>1695.9</ele>
        <time>2016-05-14T11:41:07Z</time>
      </trkpt>
      <trkpt lat="44.3302" lon="6.28346">
        <ele>1695.9</ele>
        <time>2016-05-14T11:41:37Z</time>
      </trkpt>
      <trkpt lat="44.33018" lon="6.28347">
        <ele>1695.9</ele>
        <time>2016-05-14T11:41:54Z</time>
      </trkpt>
      <trkpt lat="44.33017" lon="6.28347">
        <ele>1696.38</ele>
        <time>2016-05-14T11:42:27Z</time>
      </trkpt>
      <trkpt lat="44.33018" lon="6.28345">
        <ele>1696.38</ele>
        <time>2016-05-14T11:42:53Z</time>
      </trkpt>
      <trkpt lat="44.33017" lon="6.28346">
        <ele>1696.38</ele>
        <time>2016-05-14T11:43:15Z</time>
      </trkpt>
      <trkpt lat="44.33019" lon="6.28348">
        <ele>1695.9</ele>
        <time>2016-05-14T11:43:39Z</time>
      </trkpt>
      <trkpt lat="44.3302" lon="6.28348">
        <ele>1695.42</ele>
        <time>2016-05-14T11:44:06Z</time>
      </trkpt>
      <trkpt lat="44.33021" lon="6.2835">
        <ele>1694.94</ele>
        <time>2016-05-14T11:44:42Z</time>
      </trkpt>
      <trkpt lat="44.33023" lon="6.28349">
        <ele>1694.46</ele>
        <time>2016-05-14T11:45:23Z</time>
      </trkpt>
      <trkpt lat="44.33019" lon="6.28347">
        <ele>1694.46</ele>
        <time>2016-05-14T11:45:42Z</time>
      </trkpt>
      <trkpt lat="44.33009" lon="6.28341">
        <ele>1692.06</ele>
        <time>2016-05-14T11:45:58Z</time>
      </trkpt>
      <trkpt lat="44.32995" lon="6.28332">
        <ele>1693.02</ele>
        <time>2016-05-14T11:46:17Z</time>
      </trkpt>
      <trkpt lat="44.32987" lon="6.28327">
        <ele>1693.5</ele>
        <time>2016-05-14T11:46:27Z</time>
      </trkpt>
      <trkpt lat="44.32973" lon="6.28319">
        <ele>1693.02</ele>
        <time>2016-05-14T11:46:43Z</time>
      </trkpt>
      <trkpt lat="44.32961" lon="6.28314">
        <ele>1695.9</ele>
        <time>2016-05-14T11:47:00Z</time>
      </trkpt>
      <trkpt lat="44.32959" lon="6.28313">
        <ele>1697.34</ele>
        <time>2016-05-14T11:47:03Z</time>
      </trkpt>
      <trkpt lat="44.32948" lon="6.28306">
        <ele>1699.27</ele>
        <time>2016-05-14T11:47:21Z</time>
      </trkpt>
      <trkpt lat="44.32947" lon="6.28306">
        <ele>1699.27</ele>
        <time>2016-05-14T11:47:22Z</time>
      </trkpt>
      <trkpt lat="44.32946" lon="6.28305">
        <ele>1697.83</ele>
        <time>2016-05-14T11:47:24Z</time>
      </trkpt>
      <trkpt lat="44.32944" lon="6.28305">
        <ele>1699.27</ele>
        <time>2016-05-14T11:47:27Z</time>
      </trkpt>
      <trkpt lat="44.32933" lon="6.28298">
        <ele>1700.23</ele>
        <time>2016-05-14T11:47:46Z</time>
      </trkpt>
      <trkpt lat="44.32924" lon="6.28293">
        <ele>1703.11</ele>
        <time>2016-05-14T11:48:03Z</time>
      </trkpt>
      <trkpt lat="44.32919" lon="6.28289">
        <ele>1704.55</ele>
        <time>2016-05-14T11:48:17Z</time>
      </trkpt>
      <trkpt lat="44.32912" lon="6.28282">
        <ele>1707.44</ele>
        <time>2016-05-14T11:48:33Z</time>
      </trkpt>
      <trkpt lat="44.32902" lon="6.28284">
        <ele>1709.84</ele>
        <time>2016-05-14T11:48:49Z</time>
      </trkpt>
      <trkpt lat="44.32896" lon="6.28279">
        <ele>1711.28</ele>
        <time>2016-05-14T11:49:04Z</time>
      </trkpt>
      <trkpt lat="44.32892" lon="6.28268">
        <ele>1712.73</ele>
        <time>2016-05-14T11:49:18Z</time>
      </trkpt>
      <trkpt lat="44.32887" lon="6.28258">
        <ele>1714.65</ele>
        <time>2016-05-14T11:49:35Z</time>
      </trkpt>
      <trkpt lat="44.32878" lon="6.28257">
        <ele>1716.09</ele>
        <time>2016-05-14T11:49:52Z</time>
      </trkpt>
      <trkpt lat="44.32869" lon="6.28246">
        <ele>1717.05</ele>
        <time>2016-05-14T11:50:08Z</time>
      </trkpt>
      <trkpt lat="44.32863" lon="6.28236">
        <ele>1718.01</ele>
        <time>2016-05-14T11:50:23Z</time>
      </trkpt>
      <trkpt lat="44.32861" lon="6.28232">
        <ele>1716.57</ele>
        <time>2016-05-14T11:50:29Z</time>
      </trkpt>
      <trkpt lat="44.32861" lon="6.2823">
        <ele>1716.09</ele>
        <time>2016-05-14T11:50:46Z</time>
      </trkpt>
      <trkpt lat="44.32859" lon="6.28222">
        <ele>1715.61</ele>
        <time>2016-05-14T11:50:58Z</time>
      </trkpt>
      <trkpt lat="44.32858" lon="6.28212">
        <ele>1714.65</ele>
        <time>2016-05-14T11:51:05Z</time>
      </trkpt>
      <trkpt lat="44.32856" lon="6.28197">
        <ele>1714.17</ele>
        <time>2016-05-14T11:51:20Z</time>
      </trkpt>
      <trkpt lat="44.32851" lon="6.28184">
        <ele>1712.25</ele>
        <time>2016-05-14T11:51:36Z</time>
      </trkpt>
      <trkpt lat="44.32851" lon="6.28183">
        <ele>1712.25</ele>
        <time>2016-05-14T11:51:37Z</time>
      </trkpt>
      <trkpt lat="44.32848" lon="6.28167">
        <ele>1710.8</ele>
        <time>2016-05-14T11:51:53Z</time>
      </trkpt>
      <trkpt lat="44.32852" lon="6.2817">
        <ele>1709.84</ele>
        <time>2016-05-14T11:52:12Z</time>
      </trkpt>
      <trkpt lat="44.32852" lon="6.28171">
        <ele>1709.84</ele>
        <time>2016-05-14T11:52:33Z</time>
      </trkpt>
      <trkpt lat="44.32845" lon="6.28163">
        <ele>1706.96</ele>
        <time>2016-05-14T11:52:46Z</time>
      </trkpt>
      <trkpt lat="44.32837" lon="6.2815">
        <ele>1706</ele>
        <time>2016-05-14T11:53:03Z</time>
      </trkpt>
      <trkpt lat="44.32834" lon="6.28151">
        <ele>1705.52</ele>
        <time>2016-05-14T11:53:09Z</time>
      </trkpt>
      <trkpt lat="44.32827" lon="6.28143">
        <ele>1706.96</ele>
        <time>2016-05-14T11:53:19Z</time>
      </trkpt>
      <trkpt lat="44.32817" lon="6.28129">
        <ele>1708.4</ele>
        <time>2016-05-14T11:53:35Z</time>
      </trkpt>
      <trkpt lat="44.32813" lon="6.2812">
        <ele>1711.28</ele>
        <time>2016-05-14T11:53:44Z</time>
      </trkpt>
      <trkpt lat="44.32806" lon="6.28104">
        <ele>1712.25</ele>
        <time>2016-05-14T11:54:01Z</time>
      </trkpt>
      <trkpt lat="44.32805" lon="6.28099">
        <ele>1712.25</ele>
        <time>2016-05-14T11:54:11Z</time>
      </trkpt>
      <trkpt lat="44.32802" lon="6.28081">
        <ele>1714.65</ele>
        <time>2016-05-14T11:54:28Z</time>
      </trkpt>
      <trkpt lat="44.32798" lon="6.28078">
        <ele>1717.05</ele>
        <time>2016-05-14T11:54:45Z</time>
      </trkpt>
      <trkpt lat="44.32795" lon="6.2807">
        <ele>1720.9</ele>
        <time>2016-05-14T11:55:00Z</time>
      </trkpt>
      <trkpt lat="44.32793" lon="6.28054">
        <ele>1724.26</ele>
        <time>2016-05-14T11:55:20Z</time>
      </trkpt>
      <trkpt lat="44.32794" lon="6.28044">
        <ele>1726.18</ele>
        <time>2016-05-14T11:55:38Z</time>
      </trkpt>
      <trkpt lat="44.32794" lon="6.28042">
        <ele>1727.15</ele>
        <time>2016-05-14T11:56:04Z</time>
      </trkpt>
      <trkpt lat="44.32791" lon="6.28033">
        <ele>1729.07</ele>
        <time>2016-05-14T11:56:23Z</time>
      </trkpt>
      <trkpt lat="44.32792" lon="6.28013">
        <ele>1730.99</ele>
        <time>2016-05-14T11:56:41Z</time>
      </trkpt>
      <trkpt lat="44.32793" lon="6.28001">
        <ele>1733.39</ele>
        <time>2016-05-14T11:57:02Z</time>
      </trkpt>
      <trkpt lat="44.32796" lon="6.27984">
        <ele>1736.28</ele>
        <time>2016-05-14T11:57:22Z</time>
      </trkpt>
      <trkpt lat="44.32796" lon="6.27976">
        <ele>1739.16</ele>
        <time>2016-05-14T11:57:42Z</time>
      </trkpt>
      <trkpt lat="44.32796" lon="6.27965">
        <ele>1740.12</ele>
        <time>2016-05-14T11:58:01Z</time>
      </trkpt>
      <trkpt lat="44.32795" lon="6.27954">
        <ele>1742.53</ele>
        <time>2016-05-14T11:58:20Z</time>
      </trkpt>
      <trkpt lat="44.32796" lon="6.27941">
        <ele>1745.41</ele>
        <time>2016-05-14T11:58:40Z</time>
      </trkpt>
      <trkpt lat="44.32797" lon="6.27924">
        <ele>1746.85</ele>
        <time>2016-05-14T11:59:03Z</time>
      </trkpt>
      <trkpt lat="44.32797" lon="6.27915">
        <ele>1748.29</ele>
        <time>2016-05-14T11:59:22Z</time>
      </trkpt>
      <trkpt lat="44.32797" lon="6.27911">
        <ele>1749.26</ele>
        <time>2016-05-14T11:59:38Z</time>
      </trkpt>
      <trkpt lat="44.32799" lon="6.27899">
        <ele>1750.7</ele>
        <time>2016-05-14T11:59:54Z</time>
      </trkpt>
      <trkpt lat="44.32797" lon="6.27892">
        <ele>1752.62</ele>
        <time>2016-05-14T12:00:10Z</time>
      </trkpt>
      <trkpt lat="44.32796" lon="6.27887">
        <ele>1753.58</ele>
        <time>2016-05-14T12:00:30Z</time>
      </trkpt>
      <trkpt lat="44.32789" lon="6.27886">
        <ele>1756.47</ele>
        <time>2016-05-14T12:00:49Z</time>
      </trkpt>
      <trkpt lat="44.32782" lon="6.27889">
        <ele>1758.87</ele>
        <time>2016-05-14T12:01:06Z</time>
      </trkpt>
      <trkpt lat="44.32776" lon="6.2789">
        <ele>1761.27</ele>
        <time>2016-05-14T12:01:22Z</time>
      </trkpt>
      <trkpt lat="44.32773" lon="6.27891">
        <ele>1762.71</ele>
        <time>2016-05-14T12:01:40Z</time>
      </trkpt>
      <trkpt lat="44.32772" lon="6.27892">
        <ele>1762.71</ele>
        <time>2016-05-14T12:02:12Z</time>
      </trkpt>
      <trkpt lat="44.32773" lon="6.27891">
        <ele>1763.68</ele>
        <time>2016-05-14T12:02:18Z</time>
      </trkpt>
      <trkpt lat="44.32773" lon="6.27892">
        <ele>1762.23</ele>
        <time>2016-05-14T12:02:29Z</time>
      </trkpt>
      <trkpt lat="44.32771" lon="6.27889">
        <ele>1763.68</ele>
        <time>2016-05-14T12:02:34Z</time>
      </trkpt>
      <trkpt lat="44.32769" lon="6.27879">
        <ele>1767.04</ele>
        <time>2016-05-14T12:02:47Z</time>
      </trkpt>
      <trkpt lat="44.32768" lon="6.27867">
        <ele>1768.48</ele>
        <time>2016-05-14T12:03:03Z</time>
      </trkpt>
      <trkpt lat="44.32769" lon="6.27852">
        <ele>1771.37</ele>
        <time>2016-05-14T12:03:20Z</time>
      </trkpt>
      <trkpt lat="44.32769" lon="6.27834">
        <ele>1773.29</ele>
        <time>2016-05-14T12:03:40Z</time>
      </trkpt>
      <trkpt lat="44.32769" lon="6.27815">
        <ele>1775.69</ele>
        <time>2016-05-14T12:04:00Z</time>
      </trkpt>
      <trkpt lat="44.32769" lon="6.27798">
        <ele>1779.06</ele>
        <time>2016-05-14T12:04:18Z</time>
      </trkpt>
      <trkpt lat="44.32768" lon="6.27783">
        <ele>1780.02</ele>
        <time>2016-05-14T12:04:34Z</time>
      </trkpt>
      <trkpt lat="44.32766" lon="6.27767">
        <ele>1781.46</ele>
        <time>2016-05-14T12:04:52Z</time>
      </trkpt>
      <trkpt lat="44.32766" lon="6.27753">
        <ele>1782.9</ele>
        <time>2016-05-14T12:05:12Z</time>
      </trkpt>
      <trkpt lat="44.32765" lon="6.27743">
        <ele>1784.34</ele>
        <time>2016-05-14T12:05:31Z</time>
      </trkpt>
      <trkpt lat="44.32766" lon="6.27734">
        <ele>1786.75</ele>
        <time>2016-05-14T12:05:48Z</time>
      </trkpt>
      <trkpt lat="44.32763" lon="6.27726">
        <ele>1789.15</ele>
        <time>2016-05-14T12:06:04Z</time>
      </trkpt>
      <trkpt lat="44.32758" lon="6.27719">
        <ele>1792.03</ele>
        <time>2016-05-14T12:06:23Z</time>
      </trkpt>
      <trkpt lat="44.32756" lon="6.2771">
        <ele>1793.96</ele>
        <time>2016-05-14T12:06:39Z</time>
      </trkpt>
      <trkpt lat="44.32755" lon="6.27695">
        <ele>1796.36</ele>
        <time>2016-05-14T12:06:57Z</time>
      </trkpt>
      <trkpt lat="44.32756" lon="6.2768">
        <ele>1797.8</ele>
        <time>2016-05-14T12:07:15Z</time>
      </trkpt>
      <trkpt lat="44.32757" lon="6.27668">
        <ele>1799.73</ele>
        <time>2016-05-14T12:07:31Z</time>
      </trkpt>
      <trkpt lat="44.32758" lon="6.27663">
        <ele>1800.69</ele>
        <time>2016-05-14T12:07:47Z</time>
      </trkpt>
      <trkpt lat="44.32757" lon="6.27659">
        <ele>1801.65</ele>
        <time>2016-05-14T12:08:08Z</time>
      </trkpt>
      <trkpt lat="44.32758" lon="6.2765">
        <ele>1800.21</ele>
        <time>2016-05-14T12:08:28Z</time>
      </trkpt>
      <trkpt lat="44.32758" lon="6.27648">
        <ele>1800.21</ele>
        <time>2016-05-14T12:08:30Z</time>
      </trkpt>
      <trkpt lat="44.32759" lon="6.27637">
        <ele>1801.17</ele>
        <time>2016-05-14T12:08:45Z</time>
      </trkpt>
      <trkpt lat="44.32757" lon="6.27624">
        <ele>1804.05</ele>
        <time>2016-05-14T12:09:01Z</time>
      </trkpt>
      <trkpt lat="44.32757" lon="6.27611">
        <ele>1805.97</ele>
        <time>2016-05-14T12:09:19Z</time>
      </trkpt>
      <trkpt lat="44.32761" lon="6.27616">
        <ele>1806.45</ele>
        <time>2016-05-14T12:09:44Z</time>
      </trkpt>
      <trkpt lat="44.32758" lon="6.27605">
        <ele>1807.9</ele>
        <time>2016-05-14T12:10:01Z</time>
      </trkpt>
      <trkpt lat="44.32756" lon="6.27593">
        <ele>1811.26</ele>
        <time>2016-05-14T12:10:18Z</time>
      </trkpt>
      <trkpt lat="44.32754" lon="6.27578">
        <ele>1814.15</ele>
        <time>2016-05-14T12:10:36Z</time>
      </trkpt>
      <trkpt lat="44.32753" lon="6.27563">
        <ele>1816.07</ele>
        <time>2016-05-14T12:10:53Z</time>
      </trkpt>
      <trkpt lat="44.3275" lon="6.27548">
        <ele>1817.99</ele>
        <time>2016-05-14T12:11:11Z</time>
      </trkpt>
      <trkpt lat="44.3275" lon="6.27534">
        <ele>1820.87</ele>
        <time>2016-05-14T12:11:31Z</time>
      </trkpt>
      <trkpt lat="44.32751" lon="6.27519">
        <ele>1823.28</ele>
        <time>2016-05-14T12:11:52Z</time>
      </trkpt>
      <trkpt lat="44.32752" lon="6.2752">
        <ele>1823.76</ele>
        <time>2016-05-14T12:12:16Z</time>
      </trkpt>
      <trkpt lat="44.32754" lon="6.2751">
        <ele>1825.2</ele>
        <time>2016-05-14T12:12:31Z</time>
      </trkpt>
      <trkpt lat="44.32752" lon="6.27494">
        <ele>1827.12</ele>
        <time>2016-05-14T12:12:47Z</time>
      </trkpt>
      <trkpt lat="44.32751" lon="6.27484">
        <ele>1830.49</ele>
        <time>2016-05-14T12:13:05Z</time>
      </trkpt>
      <trkpt lat="44.32752" lon="6.27471">
        <ele>1833.37</ele>
        <time>2016-05-14T12:13:23Z</time>
      </trkpt>
      <trkpt lat="44.32752" lon="6.27461">
        <ele>1834.33</ele>
        <time>2016-05-14T12:13:39Z</time>
      </trkpt>
      <trkpt lat="44.32751" lon="6.27454">
        <ele>1834.33</ele>
        <time>2016-05-14T12:14:00Z</time>
      </trkpt>
      <trkpt lat="44.32751" lon="6.27453">
        <ele>1834.33</ele>
        <time>2016-05-14T12:14:01Z</time>
      </trkpt>
      <trkpt lat="44.3275" lon="6.2745">
        <ele>1835.29</ele>
        <time>2016-05-14T12:14:04Z</time>
      </trkpt>
      <trkpt lat="44.3275" lon="6.27437">
        <ele>1837.7</ele>
        <time>2016-05-14T12:14:18Z</time>
      </trkpt>
      <trkpt lat="44.32751" lon="6.27425">
        <ele>1839.14</ele>
        <time>2016-05-14T12:14:34Z</time>
      </trkpt>
      <trkpt lat="44.32753" lon="6.27414">
        <ele>1842.02</ele>
        <time>2016-05-14T12:14:51Z</time>
      </trkpt>
      <trkpt lat="44.32756" lon="6.27402">
        <ele>1843.47</ele>
        <time>2016-05-14T12:15:09Z</time>
      </trkpt>
      <trkpt lat="44.32756" lon="6.27391">
        <ele>1846.35</ele>
        <time>2016-05-14T12:15:26Z</time>
      </trkpt>
      <trkpt lat="44.32754" lon="6.27384">
        <ele>1848.75</ele>
        <time>2016-05-14T12:15:42Z</time>
      </trkpt>
      <trkpt lat="44.32752" lon="6.27379">
        <ele>1850.19</ele>
        <time>2016-05-14T12:16:00Z</time>
      </trkpt>
      <trkpt lat="44.32749" lon="6.27379">
        <ele>1850.19</ele>
        <time>2016-05-14T12:16:23Z</time>
      </trkpt>
      <trkpt lat="44.32746" lon="6.27375">
        <ele>1850.19</ele>
        <time>2016-05-14T12:16:39Z</time>
      </trkpt>
      <trkpt lat="44.32743" lon="6.2737">
        <ele>1851.16</ele>
        <time>2016-05-14T12:16:53Z</time>
      </trkpt>
      <trkpt lat="44.32746" lon="6.27362">
        <ele>1852.6</ele>
        <time>2016-05-14T12:17:08Z</time>
      </trkpt>
      <trkpt lat="44.32747" lon="6.2736">
        <ele>1852.6</ele>
        <time>2016-05-14T12:17:45Z</time>
      </trkpt>
      <trkpt lat="44.32749" lon="6.27356">
        <ele>1853.08</ele>
        <time>2016-05-14T12:18:06Z</time>
      </trkpt>
      <trkpt lat="44.32756" lon="6.27346">
        <ele>1855.96</ele>
        <time>2016-05-14T12:18:23Z</time>
      </trkpt>
      <trkpt lat="44.32758" lon="6.27339">
        <ele>1858.37</ele>
        <time>2016-05-14T12:18:39Z</time>
      </trkpt>
      <trkpt lat="44.3276" lon="6.27336">
        <ele>1859.33</ele>
        <time>2016-05-14T12:19:04Z</time>
      </trkpt>
      <trkpt lat="44.32765" lon="6.27323">
        <ele>1862.69</ele>
        <time>2016-05-14T12:19:19Z</time>
      </trkpt>
      <trkpt lat="44.3277" lon="6.27314">
        <ele>1866.06</ele>
        <time>2016-05-14T12:19:35Z</time>
      </trkpt>
      <trkpt lat="44.32771" lon="6.27313">
        <ele>1867.98</ele>
        <time>2016-05-14T12:19:56Z</time>
      </trkpt>
      <trkpt lat="44.32777" lon="6.27307">
        <ele>1868.46</ele>
        <time>2016-05-14T12:20:23Z</time>
      </trkpt>
      <trkpt lat="44.3278" lon="6.27302">
        <ele>1871.82</ele>
        <time>2016-05-14T12:20:32Z</time>
      </trkpt>
      <trkpt lat="44.32782" lon="6.27292">
        <ele>1874.23</ele>
        <time>2016-05-14T12:20:44Z</time>
      </trkpt>
      <trkpt lat="44.32784" lon="6.27279">
        <ele>1876.63</ele>
        <time>2016-05-14T12:21:00Z</time>
      </trkpt>
      <trkpt lat="44.32793" lon="6.27271">
        <ele>1880</ele>
        <time>2016-05-14T12:21:19Z</time>
      </trkpt>
      <trkpt lat="44.32793" lon="6.27261">
        <ele>1881.92</ele>
        <time>2016-05-14T12:21:34Z</time>
      </trkpt>
      <trkpt lat="44.32791" lon="6.27252">
        <ele>1885.28</ele>
        <time>2016-05-14T12:21:47Z</time>
      </trkpt>
      <trkpt lat="44.32791" lon="6.27251">
        <ele>1885.28</ele>
        <time>2016-05-14T12:21:48Z</time>
      </trkpt>
      <trkpt lat="44.3279" lon="6.27248">
        <ele>1883.36</ele>
        <time>2016-05-14T12:21:51Z</time>
      </trkpt>
      <trkpt lat="44.32789" lon="6.27239">
        <ele>1884.8</ele>
        <time>2016-05-14T12:22:02Z</time>
      </trkpt>
      <trkpt lat="44.32789" lon="6.27236">
        <ele>1884.8</ele>
        <time>2016-05-14T12:22:05Z</time>
      </trkpt>
      <trkpt lat="44.32789" lon="6.27233">
        <ele>1885.28</ele>
        <time>2016-05-14T12:22:07Z</time>
      </trkpt>
      <trkpt lat="44.3279" lon="6.27219">
        <ele>1887.21</ele>
        <time>2016-05-14T12:22:21Z</time>
      </trkpt>
      <trkpt lat="44.32793" lon="6.27201">
        <ele>1888.65</ele>
        <time>2016-05-14T12:22:37Z</time>
      </trkpt>
      <trkpt lat="44.32797" lon="6.27181">
        <ele>1890.09</ele>
        <time>2016-05-14T12:22:55Z</time>
      </trkpt>
      <trkpt lat="44.328" lon="6.27164">
        <ele>1891.05</ele>
        <time>2016-05-14T12:23:10Z</time>
      </trkpt>
      <trkpt lat="44.32803" lon="6.27155">
        <ele>1892.49</ele>
        <time>2016-05-14T12:23:25Z</time>
      </trkpt>
      <trkpt lat="44.32803" lon="6.27155">
        <ele>1892.97</ele>
        <time>2016-05-14T12:23:32Z</time>
      </trkpt>
      <trkpt lat="44.32813" lon="6.27154">
        <ele>1893.45</ele>
        <time>2016-05-14T12:23:51Z</time>
      </trkpt>
      <trkpt lat="44.32813" lon="6.27155">
        <ele>1893.45</ele>
        <time>2016-05-14T12:24:02Z</time>
      </trkpt>
      <trkpt lat="44.32826" lon="6.2716">
        <ele>1894.9</ele>
        <time>2016-05-14T12:24:19Z</time>
      </trkpt>
      <trkpt lat="44.32839" lon="6.27164">
        <ele>1897.3</ele>
        <time>2016-05-14T12:24:35Z</time>
      </trkpt>
      <trkpt lat="44.32847" lon="6.27169">
        <ele>1899.22</ele>
        <time>2016-05-14T12:24:51Z</time>
      </trkpt>
      <trkpt lat="44.32856" lon="6.2717">
        <ele>1900.66</ele>
        <time>2016-05-14T12:25:07Z</time>
      </trkpt>
      <trkpt lat="44.32866" lon="6.27174">
        <ele>1903.55</ele>
        <time>2016-05-14T12:25:23Z</time>
      </trkpt>
      <trkpt lat="44.32876" lon="6.27173">
        <ele>1906.43</ele>
        <time>2016-05-14T12:25:40Z</time>
      </trkpt>
      <trkpt lat="44.32884" lon="6.27179">
        <ele>1909.8</ele>
        <time>2016-05-14T12:25:58Z</time>
      </trkpt>
      <trkpt lat="44.3289" lon="6.27181">
        <ele>1910.76</ele>
        <time>2016-05-14T12:26:28Z</time>
      </trkpt>
      <trkpt lat="44.32893" lon="6.27181">
        <ele>1911.72</ele>
        <time>2016-05-14T12:26:44Z</time>
      </trkpt>
      <trkpt lat="44.32894" lon="6.27182">
        <ele>1913.16</ele>
        <time>2016-05-14T12:26:49Z</time>
      </trkpt>
      <trkpt lat="44.32901" lon="6.27186">
        <ele>1916.53</ele>
        <time>2016-05-14T12:27:06Z</time>
      </trkpt>
      <trkpt lat="44.32907" lon="6.27186">
        <ele>1919.89</ele>
        <time>2016-05-14T12:27:20Z</time>
      </trkpt>
      <trkpt lat="44.32912" lon="6.27186">
        <ele>1923.74</ele>
        <time>2016-05-14T12:27:33Z</time>
      </trkpt>
      <trkpt lat="44.32913" lon="6.27187">
        <ele>1924.22</ele>
        <time>2016-05-14T12:27:35Z</time>
      </trkpt>
      <trkpt lat="44.32918" lon="6.27191">
        <ele>1923.25</ele>
        <time>2016-05-14T12:27:47Z</time>
      </trkpt>
      <trkpt lat="44.32919" lon="6.2719">
        <ele>1925.18</ele>
        <time>2016-05-14T12:27:50Z</time>
      </trkpt>
      <trkpt lat="44.32924" lon="6.27194">
        <ele>1926.62</ele>
        <time>2016-05-14T12:28:03Z</time>
      </trkpt>
      <trkpt lat="44.32928" lon="6.27199">
        <ele>1927.1</ele>
        <time>2016-05-14T12:28:20Z</time>
      </trkpt>
      <trkpt lat="44.32929" lon="6.27199">
        <ele>1927.58</ele>
        <time>2016-05-14T12:28:32Z</time>
      </trkpt>
      <trkpt lat="44.32936" lon="6.27203">
        <ele>1929.5</ele>
        <time>2016-05-14T12:28:50Z</time>
      </trkpt>
      <trkpt lat="44.32937" lon="6.272">
        <ele>1930.46</ele>
        <time>2016-05-14T12:28:54Z</time>
      </trkpt>
      <trkpt lat="44.32942" lon="6.27195">
        <ele>1930.95</ele>
        <time>2016-05-14T12:29:24Z</time>
      </trkpt>
      <trkpt lat="44.32945" lon="6.27189">
        <ele>1934.31</ele>
        <time>2016-05-14T12:29:42Z</time>
      </trkpt>
      <trkpt lat="44.32949" lon="6.27186">
        <ele>1936.71</ele>
        <time>2016-05-14T12:30:00Z</time>
      </trkpt>
      <trkpt lat="44.32951" lon="6.27182">
        <ele>1939.6</ele>
        <time>2016-05-14T12:30:17Z</time>
      </trkpt>
      <trkpt lat="44.32956" lon="6.27177">
        <ele>1940.56</ele>
        <time>2016-05-14T12:30:34Z</time>
      </trkpt>
      <trkpt lat="44.3296" lon="6.27173">
        <ele>1943.44</ele>
        <time>2016-05-14T12:30:46Z</time>
      </trkpt>
      <trkpt lat="44.32965" lon="6.27168">
        <ele>1945.36</ele>
        <time>2016-05-14T12:31:03Z</time>
      </trkpt>
      <trkpt lat="44.32968" lon="6.27165">
        <ele>1947.29</ele>
        <time>2016-05-14T12:31:21Z</time>
      </trkpt>
      <trkpt lat="44.32973" lon="6.27161">
        <ele>1949.69</ele>
        <time>2016-05-14T12:31:38Z</time>
      </trkpt>
      <trkpt lat="44.32976" lon="6.27161">
        <ele>1951.13</ele>
        <time>2016-05-14T12:31:56Z</time>
      </trkpt>
      <trkpt lat="44.3298" lon="6.27163">
        <ele>1953.06</ele>
        <time>2016-05-14T12:32:16Z</time>
      </trkpt>
      <trkpt lat="44.32984" lon="6.27164">
        <ele>1955.46</ele>
        <time>2016-05-14T12:32:33Z</time>
      </trkpt>
      <trkpt lat="44.32988" lon="6.27166">
        <ele>1956.9</ele>
        <time>2016-05-14T12:32:47Z</time>
      </trkpt>
      <trkpt lat="44.32988" lon="6.27167">
        <ele>1958.82</ele>
        <time>2016-05-14T12:32:49Z</time>
      </trkpt>
      <trkpt lat="44.3299" lon="6.27169">
        <ele>1960.27</ele>
        <time>2016-05-14T12:33:04Z</time>
      </trkpt>
      <trkpt lat="44.32991" lon="6.2717">
        <ele>1962.19</ele>
        <time>2016-05-14T12:33:26Z</time>
      </trkpt>
      <trkpt lat="44.32995" lon="6.2717">
        <ele>1965.07</ele>
        <time>2016-05-14T12:33:40Z</time>
      </trkpt>
      <trkpt lat="44.33002" lon="6.27177">
        <ele>1967.48</ele>
        <time>2016-05-14T12:33:57Z</time>
      </trkpt>
      <trkpt lat="44.33002" lon="6.27175">
        <ele>1970.36</ele>
        <time>2016-05-14T12:34:19Z</time>
      </trkpt>
      <trkpt lat="44.33008" lon="6.27173">
        <ele>1973.72</ele>
        <time>2016-05-14T12:34:36Z</time>
      </trkpt>
      <trkpt lat="44.33015" lon="6.27173">
        <ele>1976.61</ele>
        <time>2016-05-14T12:34:55Z</time>
      </trkpt>
      <trkpt lat="44.33021" lon="6.27175">
        <ele>1979.01</ele>
        <time>2016-05-14T12:35:17Z</time>
      </trkpt>
      <trkpt lat="44.33025" lon="6.27174">
        <ele>1981.9</ele>
        <time>2016-05-14T12:35:33Z</time>
      </trkpt>
      <trkpt lat="44.33024" lon="6.2718">
        <ele>1983.34</ele>
        <time>2016-05-14T12:35:50Z</time>
      </trkpt>
      <trkpt lat="44.33022" lon="6.27183">
        <ele>1985.26</ele>
        <time>2016-05-14T12:36:10Z</time>
      </trkpt>
      <trkpt lat="44.33025" lon="6.27196">
        <ele>1988.14</ele>
        <time>2016-05-14T12:36:33Z</time>
      </trkpt>
      <trkpt lat="44.33023" lon="6.27202">
        <ele>1991.03</ele>
        <time>2016-05-14T12:36:50Z</time>
      </trkpt>
      <trkpt lat="44.33022" lon="6.27201">
        <ele>1989.1</ele>
        <time>2016-05-14T12:37:01Z</time>
      </trkpt>
      <trkpt lat="44.33021" lon="6.27204">
        <ele>1989.59</ele>
        <time>2016-05-14T12:37:26Z</time>
      </trkpt>
      <trkpt lat="44.33021" lon="6.272">
        <ele>1990.55</ele>
        <time>2016-05-14T12:38:01Z</time>
      </trkpt>
      <trkpt lat="44.33021" lon="6.27201">
        <ele>1990.07</ele>
        <time>2016-05-14T12:38:20Z</time>
      </trkpt>
      <trkpt lat="44.3302" lon="6.27204">
        <ele>1991.51</ele>
        <time>2016-05-14T12:38:34Z</time>
      </trkpt>
      <trkpt lat="44.33019" lon="6.27202">
        <ele>1991.99</ele>
        <time>2016-05-14T12:39:13Z</time>
      </trkpt>
      <trkpt lat="44.3302" lon="6.27202">
        <ele>1990.55</ele>
        <time>2016-05-14T12:39:16Z</time>
      </trkpt>
      <trkpt lat="44.33021" lon="6.27195">
        <ele>1990.07</ele>
        <time>2016-05-14T12:39:55Z</time>
      </trkpt>
      <trkpt lat="44.3302" lon="6.27194">
        <ele>1989.59</ele>
        <time>2016-05-14T12:40:36Z</time>
      </trkpt>
      <trkpt lat="44.33019" lon="6.27194">
        <ele>1991.51</ele>
        <time>2016-05-14T12:41:19Z</time>
      </trkpt>
      <trkpt lat="44.33019" lon="6.27195">
        <ele>1990.07</ele>
        <time>2016-05-14T12:41:32Z</time>
      </trkpt>
      <trkpt lat="44.33019" lon="6.27192">
        <ele>1991.51</ele>
        <time>2016-05-14T12:42:09Z</time>
      </trkpt>
      <trkpt lat="44.33019" lon="6.27192">
        <ele>1991.99</ele>
        <time>2016-05-14T12:42:46Z</time>
      </trkpt>
      <trkpt lat="44.33018" lon="6.27193">
        <ele>1991.03</ele>
        <time>2016-05-14T12:42:51Z</time>
      </trkpt>
      <trkpt lat="44.3302" lon="6.27196">
        <ele>1990.07</ele>
        <time>2016-05-14T12:43:28Z</time>
      </trkpt>
      <trkpt lat="44.3302" lon="6.27195">
        <ele>1990.07</ele>
        <time>2016-05-14T12:43:52Z</time>
      </trkpt>
      <trkpt lat="44.33022" lon="6.27195">
        <ele>1989.1</ele>
        <time>2016-05-14T12:44:17Z</time>
      </trkpt>
      <trkpt lat="44.33021" lon="6.27197">
        <ele>1989.59</ele>
        <time>2016-05-14T12:44:52Z</time>
      </trkpt>
      <trkpt lat="44.33022" lon="6.27196">
        <ele>1989.1</ele>
        <time>2016-05-14T12:45:04Z</time>
      </trkpt>
      <trkpt lat="44.33021" lon="6.27194">
        <ele>1990.55</ele>
        <time>2016-05-14T12:45:42Z</time>
      </trkpt>
      <trkpt lat="44.33021" lon="6.27194">
        <ele>1990.55</ele>
        <time>2016-05-14T12:45:43Z</time>
      </trkpt>
      <trkpt lat="44.33024" lon="6.27192">
        <ele>1989.59</ele>
        <time>2016-05-14T12:45:51Z</time>
      </trkpt>
      <trkpt lat="44.33022" lon="6.27192">
        <ele>1991.51</ele>
        <time>2016-05-14T12:46:05Z</time>
      </trkpt>
      <trkpt lat="44.33021" lon="6.27192">
        <ele>1991.51</ele>
        <time>2016-05-14T12:46:23Z</time>
      </trkpt>
      <trkpt lat="44.33021" lon="6.27193">
        <ele>1993.43</ele>
        <time>2016-05-14T12:46:53Z</time>
      </trkpt>
      <trkpt lat="44.33021" lon="6.27193">
        <ele>1993.91</ele>
        <time>2016-05-14T12:47:03Z</time>
      </trkpt>
      <trkpt lat="44.3302" lon="6.27195">
        <ele>1991.99</ele>
        <time>2016-05-14T12:47:29Z</time>
      </trkpt>
      <trkpt lat="44.33021" lon="6.27196">
        <ele>1990.55</ele>
        <time>2016-05-14T12:47:45Z</time>
      </trkpt>
      <trkpt lat="44.33021" lon="6.27196">
        <ele>1990.55</ele>
        <time>2016-05-14T12:48:18Z</time>
      </trkpt>
      <trkpt lat="44.33022" lon="6.27196">
        <ele>1991.99</ele>
        <time>2016-05-14T12:48:41Z</time>
      </trkpt>
      <trkpt lat="44.33019" lon="6.27193">
        <ele>1991.99</ele>
        <time>2016-05-14T12:49:20Z</time>
      </trkpt>
      <trkpt lat="44.33019" lon="6.27194">
        <ele>1992.47</ele>
        <time>2016-05-14T12:49:40Z</time>
      </trkpt>
      <trkpt lat="44.3302" lon="6.27195">
        <ele>1991.03</ele>
        <time>2016-05-14T12:50:12Z</time>
      </trkpt>
      <trkpt lat="44.3302" lon="6.27195">
        <ele>1991.51</ele>
        <time>2016-05-14T12:50:57Z</time>
      </trkpt>
      <trkpt lat="44.3302" lon="6.27195">
        <ele>1991.51</ele>
        <time>2016-05-14T12:51:27Z</time>
      </trkpt>
      <trkpt lat="44.33021" lon="6.27196">
        <ele>1991.03</ele>
        <time>2016-05-14T12:51:59Z</time>
      </trkpt>
      <trkpt lat="44.33022" lon="6.27196">
        <ele>1994.39</ele>
        <time>2016-05-14T12:52:38Z</time>
      </trkpt>
      <trkpt lat="44.33022" lon="6.27196">
        <ele>1992.47</ele>
        <time>2016-05-14T12:52:42Z</time>
      </trkpt>
      <trkpt lat="44.33026" lon="6.27196">
        <ele>1991.51</ele>
        <time>2016-05-14T12:52:53Z</time>
      </trkpt>
      <trkpt lat="44.33029" lon="6.27197">
        <ele>1991.51</ele>
        <time>2016-05-14T12:52:56Z</time>
      </trkpt>
      <trkpt lat="44.33035" lon="6.27201">
        <ele>1994.87</ele>
        <time>2016-05-14T12:53:03Z</time>
      </trkpt>
      <trkpt lat="44.33048" lon="6.27207">
        <ele>1994.87</ele>
        <time>2016-05-14T12:53:19Z</time>
      </trkpt>
      <trkpt lat="44.33056" lon="6.27204">
        <ele>1996.8</ele>
        <time>2016-05-14T12:53:29Z</time>
      </trkpt>
      <trkpt lat="44.33061" lon="6.27199">
        <ele>1997.76</ele>
        <time>2016-05-14T12:53:45Z</time>
      </trkpt>
      <trkpt lat="44.33062" lon="6.27191">
        <ele>1999.2</ele>
        <time>2016-05-14T12:54:08Z</time>
      </trkpt>
      <trkpt lat="44.33063" lon="6.27191">
        <ele>1999.2</ele>
        <time>2016-05-14T12:54:18Z</time>
      </trkpt>
      <trkpt lat="44.33061" lon="6.27194">
        <ele>1997.76</ele>
        <time>2016-05-14T12:54:23Z</time>
      </trkpt>
      <trkpt lat="44.33053" lon="6.27196">
        <ele>1996.8</ele>
        <time>2016-05-14T12:54:34Z</time>
      </trkpt>
      <trkpt lat="44.33049" lon="6.27194">
        <ele>1995.83</ele>
        <time>2016-05-14T12:54:38Z</time>
      </trkpt>
      <trkpt lat="44.33046" lon="6.27189">
        <ele>1993.91</ele>
        <time>2016-05-14T12:54:55Z</time>
      </trkpt>
      <trkpt lat="44.33043" lon="6.27177">
        <ele>1991.51</ele>
        <time>2016-05-14T12:55:13Z</time>
      </trkpt>
      <trkpt lat="44.33045" lon="6.27163">
        <ele>1988.14</ele>
        <time>2016-05-14T12:55:28Z</time>
      </trkpt>
      <trkpt lat="44.33047" lon="6.27155">
        <ele>1984.78</ele>
        <time>2016-05-14T12:55:43Z</time>
      </trkpt>
      <trkpt lat="44.33051" lon="6.27141">
        <ele>1980.93</ele>
        <time>2016-05-14T12:55:59Z</time>
      </trkpt>
      <trkpt lat="44.33057" lon="6.27125">
        <ele>1978.53</ele>
        <time>2016-05-14T12:56:18Z</time>
      </trkpt>
      <trkpt lat="44.33058" lon="6.27119">
        <ele>1977.57</ele>
        <time>2016-05-14T12:56:34Z</time>
      </trkpt>
      <trkpt lat="44.33062" lon="6.27111">
        <ele>1972.28</ele>
        <time>2016-05-14T12:56:44Z</time>
      </trkpt>
      <trkpt lat="44.33063" lon="6.2711">
        <ele>1972.28</ele>
        <time>2016-05-14T12:56:45Z</time>
      </trkpt>
      <trkpt lat="44.33066" lon="6.27098">
        <ele>1970.84</ele>
        <time>2016-05-14T12:57:02Z</time>
      </trkpt>
      <trkpt lat="44.33067" lon="6.27096">
        <ele>1969.4</ele>
        <time>2016-05-14T12:57:05Z</time>
      </trkpt>
      <trkpt lat="44.3307" lon="6.27088">
        <ele>1966.51</ele>
        <time>2016-05-14T12:57:20Z</time>
      </trkpt>
      <trkpt lat="44.33075" lon="6.27077">
        <ele>1963.15</ele>
        <time>2016-05-14T12:57:37Z</time>
      </trkpt>
      <trkpt lat="44.33078" lon="6.27069">
        <ele>1959.78</ele>
        <time>2016-05-14T12:57:47Z</time>
      </trkpt>
      <trkpt lat="44.33079" lon="6.27061">
        <ele>1956.42</ele>
        <time>2016-05-14T12:58:06Z</time>
      </trkpt>
      <trkpt lat="44.33079" lon="6.27048">
        <ele>1953.06</ele>
        <time>2016-05-14T12:58:21Z</time>
      </trkpt>
      <trkpt lat="44.33081" lon="6.27045">
        <ele>1950.65</ele>
        <time>2016-05-14T12:58:40Z</time>
      </trkpt>
      <trkpt lat="44.33083" lon="6.27038">
        <ele>1949.21</ele>
        <time>2016-05-14T12:59:03Z</time>
      </trkpt>
      <trkpt lat="44.33083" lon="6.27028">
        <ele>1945.85</ele>
        <time>2016-05-14T12:59:15Z</time>
      </trkpt>
      <trkpt lat="44.33085" lon="6.27016">
        <ele>1942.48</ele>
        <time>2016-05-14T12:59:29Z</time>
      </trkpt>
      <trkpt lat="44.33091" lon="6.27007">
        <ele>1939.12</ele>
        <time>2016-05-14T12:59:40Z</time>
      </trkpt>
      <trkpt lat="44.33099" lon="6.26993">
        <ele>1935.75</ele>
        <time>2016-05-14T12:59:58Z</time>
      </trkpt>
      <trkpt lat="44.33103" lon="6.26987">
        <ele>1932.87</ele>
        <time>2016-05-14T13:00:07Z</time>
      </trkpt>
      <trkpt lat="44.33107" lon="6.26975">
        <ele>1930.46</ele>
        <time>2016-05-14T13:00:23Z</time>
      </trkpt>
      <trkpt lat="44.33112" lon="6.26964">
        <ele>1926.62</ele>
        <time>2016-05-14T13:00:37Z</time>
      </trkpt>
      <trkpt lat="44.33115" lon="6.26949">
        <ele>1923.25</ele>
        <time>2016-05-14T13:00:51Z</time>
      </trkpt>
      <trkpt lat="44.33118" lon="6.26935">
        <ele>1920.85</ele>
        <time>2016-05-14T13:01:10Z</time>
      </trkpt>
      <trkpt lat="44.3312" lon="6.26925">
        <ele>1917.49</ele>
        <time>2016-05-14T13:01:21Z</time>
      </trkpt>
      <trkpt lat="44.33123" lon="6.26915">
        <ele>1914.6</ele>
        <time>2016-05-14T13:01:32Z</time>
      </trkpt>
      <trkpt lat="44.33128" lon="6.26903">
        <ele>1911.72</ele>
        <time>2016-05-14T13:01:44Z</time>
      </trkpt>
      <trkpt lat="44.33128" lon="6.26892">
        <ele>1908.35</ele>
        <time>2016-05-14T13:01:57Z</time>
      </trkpt>
      <trkpt lat="44.3313" lon="6.26882">
        <ele>1905.95</ele>
        <time>2016-05-14T13:02:11Z</time>
      </trkpt>
      <trkpt lat="44.33133" lon="6.26871">
        <ele>1903.07</ele>
        <time>2016-05-14T13:02:27Z</time>
      </trkpt>
      <trkpt lat="44.33135" lon="6.26868">
        <ele>1901.14</ele>
        <time>2016-05-14T13:02:31Z</time>
      </trkpt>
      <trkpt lat="44.3314" lon="6.26857">
        <ele>1897.78</ele>
        <time>2016-05-14T13:02:46Z</time>
      </trkpt>
      <trkpt lat="44.33144" lon="6.26845">
        <ele>1894.9</ele>
        <time>2016-05-14T13:03:02Z</time>
      </trkpt>
      <trkpt lat="44.33147" lon="6.26838">
        <ele>1891.53</ele>
        <time>2016-05-14T13:03:12Z</time>
      </trkpt>
      <trkpt lat="44.33151" lon="6.26829">
        <ele>1888.17</ele>
        <time>2016-05-14T13:03:20Z</time>
      </trkpt>
      <trkpt lat="44.33151" lon="6.26829">
        <ele>1888.17</ele>
        <time>2016-05-14T13:03:21Z</time>
      </trkpt>
      <trkpt lat="44.33156" lon="6.26813">
        <ele>1885.28</ele>
        <time>2016-05-14T13:03:39Z</time>
      </trkpt>
      <trkpt lat="44.33158" lon="6.26809">
        <ele>1883.36</ele>
        <time>2016-05-14T13:03:45Z</time>
      </trkpt>
      <trkpt lat="44.33164" lon="6.2681">
        <ele>1880.96</ele>
        <time>2016-05-14T13:03:55Z</time>
      </trkpt>
      <trkpt lat="44.33168" lon="6.26805">
        <ele>1879.51</ele>
        <time>2016-05-14T13:04:00Z</time>
      </trkpt>
      <trkpt lat="44.3317" lon="6.268">
        <ele>1878.55</ele>
        <time>2016-05-14T13:04:16Z</time>
      </trkpt>
      <trkpt lat="44.33172" lon="6.26798">
        <ele>1877.11</ele>
        <time>2016-05-14T13:04:19Z</time>
      </trkpt>
      <trkpt lat="44.33178" lon="6.26789">
        <ele>1876.63</ele>
        <time>2016-05-14T13:04:33Z</time>
      </trkpt>
      <trkpt lat="44.33184" lon="6.2678">
        <ele>1873.75</ele>
        <time>2016-05-14T13:04:50Z</time>
      </trkpt>
      <trkpt lat="44.33188" lon="6.2677">
        <ele>1870.38</ele>
        <time>2016-05-14T13:05:00Z</time>
      </trkpt>
      <trkpt lat="44.33189" lon="6.26765">
        <ele>1868.46</ele>
        <time>2016-05-14T13:05:04Z</time>
      </trkpt>
      <trkpt lat="44.33192" lon="6.26758">
        <ele>1865.58</ele>
        <time>2016-05-14T13:05:12Z</time>
      </trkpt>
      <trkpt lat="44.33197" lon="6.26748">
        <ele>1863.17</ele>
        <time>2016-05-14T13:05:28Z</time>
      </trkpt>
      <trkpt lat="44.33201" lon="6.26738">
        <ele>1859.81</ele>
        <time>2016-05-14T13:05:41Z</time>
      </trkpt>
      <trkpt lat="44.33202" lon="6.26737">
        <ele>1859.81</ele>
        <time>2016-05-14T13:05:42Z</time>
      </trkpt>
      <trkpt lat="44.33208" lon="6.26727">
        <ele>1857.4</ele>
        <time>2016-05-14T13:05:59Z</time>
      </trkpt>
      <trkpt lat="44.3321" lon="6.26716">
        <ele>1855.48</ele>
        <time>2016-05-14T13:06:15Z</time>
      </trkpt>
      <trkpt lat="44.33217" lon="6.26698">
        <ele>1851.64</ele>
        <time>2016-05-14T13:06:30Z</time>
      </trkpt>
      <trkpt lat="44.33219" lon="6.26693">
        <ele>1850.19</ele>
        <time>2016-05-14T13:06:34Z</time>
      </trkpt>
      <trkpt lat="44.33222" lon="6.26679">
        <ele>1846.83</ele>
        <time>2016-05-14T13:06:48Z</time>
      </trkpt>
      <trkpt lat="44.33225" lon="6.26668">
        <ele>1845.87</ele>
        <time>2016-05-14T13:07:03Z</time>
      </trkpt>
      <trkpt lat="44.33228" lon="6.26661">
        <ele>1843.95</ele>
        <time>2016-05-14T13:07:17Z</time>
      </trkpt>
      <trkpt lat="44.33224" lon="6.2665">
        <ele>1842.02</ele>
        <time>2016-05-14T13:07:32Z</time>
      </trkpt>
      <trkpt lat="44.33215" lon="6.26648">
        <ele>1838.18</ele>
        <time>2016-05-14T13:07:48Z</time>
      </trkpt>
      <trkpt lat="44.3321" lon="6.26642">
        <ele>1835.77</ele>
        <time>2016-05-14T13:08:02Z</time>
      </trkpt>
      <trkpt lat="44.33208" lon="6.26631">
        <ele>1832.41</ele>
        <time>2016-05-14T13:08:18Z</time>
      </trkpt>
      <trkpt lat="44.332" lon="6.2663">
        <ele>1830.01</ele>
        <time>2016-05-14T13:08:35Z</time>
      </trkpt>
      <trkpt lat="44.33194" lon="6.26627">
        <ele>1827.6</ele>
        <time>2016-05-14T13:08:50Z</time>
      </trkpt>
      <trkpt lat="44.33183" lon="6.26624">
        <ele>1824.24</ele>
        <time>2016-05-14T13:09:06Z</time>
      </trkpt>
      <trkpt lat="44.33175" lon="6.26617">
        <ele>1821.84</ele>
        <time>2016-05-14T13:09:21Z</time>
      </trkpt>
      <trkpt lat="44.3317" lon="6.26611">
        <ele>1818.47</ele>
        <time>2016-05-14T13:09:30Z</time>
      </trkpt>
      <trkpt lat="44.33169" lon="6.2661">
        <ele>1818.47</ele>
        <time>2016-05-14T13:09:31Z</time>
      </trkpt>
      <trkpt lat="44.33158" lon="6.26599">
        <ele>1815.11</ele>
        <time>2016-05-14T13:09:49Z</time>
      </trkpt>
      <trkpt lat="44.33152" lon="6.2659">
        <ele>1812.22</ele>
        <time>2016-05-14T13:10:05Z</time>
      </trkpt>
      <trkpt lat="44.33144" lon="6.26583">
        <ele>1808.86</ele>
        <time>2016-05-14T13:10:18Z</time>
      </trkpt>
      <trkpt lat="44.33139" lon="6.26571">
        <ele>1805.49</ele>
        <time>2016-05-14T13:10:32Z</time>
      </trkpt>
      <trkpt lat="44.33131" lon="6.26556">
        <ele>1802.61</ele>
        <time>2016-05-14T13:10:48Z</time>
      </trkpt>
      <trkpt lat="44.33122" lon="6.26537">
        <ele>1799.73</ele>
        <time>2016-05-14T13:11:06Z</time>
      </trkpt>
      <trkpt lat="44.3311" lon="6.26518">
        <ele>1798.28</ele>
        <time>2016-05-14T13:11:23Z</time>
      </trkpt>
      <trkpt lat="44.33108" lon="6.26514">
        <ele>1797.32</ele>
        <time>2016-05-14T13:11:40Z</time>
      </trkpt>
      <trkpt lat="44.33107" lon="6.26515">
        <ele>1797.32</ele>
        <time>2016-05-14T13:12:02Z</time>
      </trkpt>
      <trkpt lat="44.33106" lon="6.26514">
        <ele>1797.32</ele>
        <time>2016-05-14T13:12:32Z</time>
      </trkpt>
      <trkpt lat="44.33106" lon="6.26512">
        <ele>1797.32</ele>
        <time>2016-05-14T13:12:56Z</time>
      </trkpt>
      <trkpt lat="44.33105" lon="6.26511">
        <ele>1797.32</ele>
        <time>2016-05-14T13:13:18Z</time>
      </trkpt>
      <trkpt lat="44.33105" lon="6.26509">
        <ele>1796.84</ele>
        <time>2016-05-14T13:13:43Z</time>
      </trkpt>
      <trkpt lat="44.33104" lon="6.26511">
        <ele>1796.36</ele>
        <time>2016-05-14T13:14:05Z</time>
      </trkpt>
      <trkpt lat="44.33106" lon="6.26514">
        <ele>1796.36</ele>
        <time>2016-05-14T13:14:29Z</time>
      </trkpt>
      <trkpt lat="44.33103" lon="6.26512">
        <ele>1796.36</ele>
        <time>2016-05-14T13:14:54Z</time>
      </trkpt>
      <trkpt lat="44.33106" lon="6.26512">
        <ele>1795.88</ele>
        <time>2016-05-14T13:15:12Z</time>
      </trkpt>
      <trkpt lat="44.33109" lon="6.26509">
        <ele>1796.84</ele>
        <time>2016-05-14T13:15:30Z</time>
      </trkpt>
      <trkpt lat="44.3311" lon="6.26502">
        <ele>1796.84</ele>
        <time>2016-05-14T13:15:38Z</time>
      </trkpt>
      <trkpt lat="44.33121" lon="6.26498">
        <ele>1793.96</ele>
        <time>2016-05-14T13:15:53Z</time>
      </trkpt>
      <trkpt lat="44.33139" lon="6.2649">
        <ele>1792.03</ele>
        <time>2016-05-14T13:16:12Z</time>
      </trkpt>
      <trkpt lat="44.33152" lon="6.26478">
        <ele>1790.59</ele>
        <time>2016-05-14T13:16:29Z</time>
      </trkpt>
      <trkpt lat="44.33162" lon="6.26471">
        <ele>1789.15</ele>
        <time>2016-05-14T13:16:41Z</time>
      </trkpt>
      <trkpt lat="44.33168" lon="6.26469">
        <ele>1788.67</ele>
        <time>2016-05-14T13:16:58Z</time>
      </trkpt>
      <trkpt lat="44.33178" lon="6.26468">
        <ele>1787.23</ele>
        <time>2016-05-14T13:17:15Z</time>
      </trkpt>
      <trkpt lat="44.33193" lon="6.26473">
        <ele>1785.31</ele>
        <time>2016-05-14T13:17:33Z</time>
      </trkpt>
      <trkpt lat="44.33202" lon="6.26469">
        <ele>1786.27</ele>
        <time>2016-05-14T13:17:48Z</time>
      </trkpt>
      <trkpt lat="44.33212" lon="6.26466">
        <ele>1787.23</ele>
        <time>2016-05-14T13:18:01Z</time>
      </trkpt>
      <trkpt lat="44.33215" lon="6.26465">
        <ele>1785.79</ele>
        <time>2016-05-14T13:18:05Z</time>
      </trkpt>
      <trkpt lat="44.33222" lon="6.26468">
        <ele>1783.38</ele>
        <time>2016-05-14T13:18:22Z</time>
      </trkpt>
      <trkpt lat="44.33224" lon="6.26465">
        <ele>1781.46</ele>
        <time>2016-05-14T13:18:37Z</time>
      </trkpt>
      <trkpt lat="44.33226" lon="6.26458">
        <ele>1779.54</ele>
        <time>2016-05-14T13:18:52Z</time>
      </trkpt>
      <trkpt lat="44.3323" lon="6.26457">
        <ele>1780.5</ele>
        <time>2016-05-14T13:19:01Z</time>
      </trkpt>
      <trkpt lat="44.33231" lon="6.26451">
        <ele>1782.9</ele>
        <time>2016-05-14T13:19:14Z</time>
      </trkpt>
      <trkpt lat="44.33235" lon="6.26446">
        <ele>1784.34</ele>
        <time>2016-05-14T13:19:22Z</time>
      </trkpt>
      <trkpt lat="44.33244" lon="6.26432">
        <ele>1782.9</ele>
        <time>2016-05-14T13:19:35Z</time>
      </trkpt>
      <trkpt lat="44.33264" lon="6.2643">
        <ele>1782.42</ele>
        <time>2016-05-14T13:19:52Z</time>
      </trkpt>
      <trkpt lat="44.33272" lon="6.26431">
        <ele>1781.94</ele>
        <time>2016-05-14T13:20:10Z</time>
      </trkpt>
      <trkpt lat="44.33286" lon="6.26427">
        <ele>1780.5</ele>
        <time>2016-05-14T13:20:25Z</time>
      </trkpt>
      <trkpt lat="44.33306" lon="6.26423">
        <ele>1779.06</ele>
        <time>2016-05-14T13:20:42Z</time>
      </trkpt>
      <trkpt lat="44.33325" lon="6.26417">
        <ele>1779.06</ele>
        <time>2016-05-14T13:21:01Z</time>
      </trkpt>
      <trkpt lat="44.33338" lon="6.26414">
        <ele>1776.17</ele>
        <time>2016-05-14T13:21:18Z</time>
      </trkpt>
      <trkpt lat="44.33353" lon="6.26413">
        <ele>1773.29</ele>
        <time>2016-05-14T13:21:32Z</time>
      </trkpt>
      <trkpt lat="44.33369" lon="6.26421">
        <ele>1771.85</ele>
        <time>2016-05-14T13:21:49Z</time>
      </trkpt>
      <trkpt lat="44.33376" lon="6.2642">
        <ele>1771.85</ele>
        <time>2016-05-14T13:21:59Z</time>
      </trkpt>
      <trkpt lat="44.33377" lon="6.2642">
        <ele>1772.81</ele>
        <time>2016-05-14T13:22:06Z</time>
      </trkpt>
      <trkpt lat="44.33388" lon="6.26419">
        <ele>1769.92</ele>
        <time>2016-05-14T13:22:33Z</time>
      </trkpt>
      <trkpt lat="44.33392" lon="6.26416">
        <ele>1768.48</ele>
        <time>2016-05-14T13:22:48Z</time>
      </trkpt>
      <trkpt lat="44.33392" lon="6.26412">
        <ele>1768</ele>
        <time>2016-05-14T13:23:01Z</time>
      </trkpt>
      <trkpt lat="44.33396" lon="6.26418">
        <ele>1766.56</ele>
        <time>2016-05-14T13:23:16Z</time>
      </trkpt>
      <trkpt lat="44.33398" lon="6.26418">
        <ele>1768.48</ele>
        <time>2016-05-14T13:23:23Z</time>
      </trkpt>
      <trkpt lat="44.33401" lon="6.26413">
        <ele>1768.48</ele>
        <time>2016-05-14T13:23:28Z</time>
      </trkpt>
      <trkpt lat="44.33403" lon="6.26409">
        <ele>1767.04</ele>
        <time>2016-05-14T13:23:32Z</time>
      </trkpt>
      <trkpt lat="44.33411" lon="6.26411">
        <ele>1767.04</ele>
        <time>2016-05-14T13:23:39Z</time>
      </trkpt>
      <trkpt lat="44.33418" lon="6.26413">
        <ele>1766.56</ele>
        <time>2016-05-14T13:23:58Z</time>
      </trkpt>
      <trkpt lat="44.33426" lon="6.26419">
        <ele>1765.12</ele>
        <time>2016-05-14T13:24:29Z</time>
      </trkpt>
      <trkpt lat="44.33431" lon="6.26422">
        <ele>1763.2</ele>
        <time>2016-05-14T13:24:37Z</time>
      </trkpt>
      <trkpt lat="44.33441" lon="6.26432">
        <ele>1760.31</ele>
        <time>2016-05-14T13:24:49Z</time>
      </trkpt>
      <trkpt lat="44.3346" lon="6.26446">
        <ele>1759.83</ele>
        <time>2016-05-14T13:25:08Z</time>
      </trkpt>
      <trkpt lat="44.33467" lon="6.26448">
        <ele>1759.35</ele>
        <time>2016-05-14T13:25:26Z</time>
      </trkpt>
      <trkpt lat="44.33479" lon="6.26462">
        <ele>1756.47</ele>
        <time>2016-05-14T13:25:43Z</time>
      </trkpt>
      <trkpt lat="44.3349" lon="6.26475">
        <ele>1753.58</ele>
        <time>2016-05-14T13:25:59Z</time>
      </trkpt>
      <trkpt lat="44.33495" lon="6.26486">
        <ele>1753.1</ele>
        <time>2016-05-14T13:26:15Z</time>
      </trkpt>
      <trkpt lat="44.3351" lon="6.26503">
        <ele>1750.22</ele>
        <time>2016-05-14T13:26:33Z</time>
      </trkpt>
      <trkpt lat="44.33529" lon="6.2652">
        <ele>1748.29</ele>
        <time>2016-05-14T13:26:53Z</time>
      </trkpt>
      <trkpt lat="44.33549" lon="6.26543">
        <ele>1746.37</ele>
        <time>2016-05-14T13:27:15Z</time>
      </trkpt>
      <trkpt lat="44.3357" lon="6.26562">
        <ele>1744.45</ele>
        <time>2016-05-14T13:27:38Z</time>
      </trkpt>
      <trkpt lat="44.33586" lon="6.26585">
        <ele>1743.01</ele>
        <time>2016-05-14T13:27:59Z</time>
      </trkpt>
      <trkpt lat="44.33601" lon="6.26606">
        <ele>1742.05</ele>
        <time>2016-05-14T13:28:20Z</time>
      </trkpt>
      <trkpt lat="44.33605" lon="6.26612">
        <ele>1741.57</ele>
        <time>2016-05-14T13:28:26Z</time>
      </trkpt>
      <trkpt lat="44.33623" lon="6.2663">
        <ele>1740.12</ele>
        <time>2016-05-14T13:28:47Z</time>
      </trkpt>
      <trkpt lat="44.33625" lon="6.26633">
        <ele>1740.12</ele>
        <time>2016-05-14T13:29:10Z</time>
      </trkpt>
      <trkpt lat="44.33627" lon="6.26634">
        <ele>1741.57</ele>
        <time>2016-05-14T13:29:28Z</time>
      </trkpt>
      <trkpt lat="44.33636" lon="6.26638">
        <ele>1741.57</ele>
        <time>2016-05-14T13:29:44Z</time>
      </trkpt>
      <trkpt lat="44.33643" lon="6.26639">
        <ele>1740.12</ele>
        <time>2016-05-14T13:29:52Z</time>
      </trkpt>
      <trkpt lat="44.33654" lon="6.26638">
        <ele>1739.16</ele>
        <time>2016-05-14T13:30:07Z</time>
      </trkpt>
      <trkpt lat="44.3366" lon="6.26636">
        <ele>1738.2</ele>
        <time>2016-05-14T13:30:22Z</time>
      </trkpt>
      <trkpt lat="44.33659" lon="6.26632">
        <ele>1737.72</ele>
        <time>2016-05-14T13:30:40Z</time>
      </trkpt>
      <trkpt lat="44.33657" lon="6.2663">
        <ele>1736.76</ele>
        <time>2016-05-14T13:31:05Z</time>
      </trkpt>
      <trkpt lat="44.33662" lon="6.26634">
        <ele>1736.76</ele>
        <time>2016-05-14T13:31:28Z</time>
      </trkpt>
      <trkpt lat="44.33661" lon="6.26637">
        <ele>1738.2</ele>
        <time>2016-05-14T13:31:32Z</time>
      </trkpt>
      <trkpt lat="44.33659" lon="6.26638">
        <ele>1738.2</ele>
        <time>2016-05-14T13:31:47Z</time>
      </trkpt>
      <trkpt lat="44.3366" lon="6.26637">
        <ele>1738.2</ele>
        <time>2016-05-14T13:32:13Z</time>
      </trkpt>
      <trkpt lat="44.33661" lon="6.2664">
        <ele>1738.2</ele>
        <time>2016-05-14T13:32:48Z</time>
      </trkpt>
      <trkpt lat="44.33661" lon="6.26642">
        <ele>1737.72</ele>
        <time>2016-05-14T13:33:22Z</time>
      </trkpt>
      <trkpt lat="44.33658" lon="6.26642">
        <ele>1737.72</ele>
        <time>2016-05-14T13:33:54Z</time>
      </trkpt>
      <trkpt lat="44.33658" lon="6.26644">
        <ele>1736.76</ele>
        <time>2016-05-14T13:34:30Z</time>
      </trkpt>
      <trkpt lat="44.33659" lon="6.26644">
        <ele>1736.76</ele>
        <time>2016-05-14T13:35:10Z</time>
      </trkpt>
      <trkpt lat="44.3366" lon="6.26642">
        <ele>1736.76</ele>
        <time>2016-05-14T13:35:52Z</time>
      </trkpt>
      <trkpt lat="44.3366" lon="6.26644">
        <ele>1736.28</ele>
        <time>2016-05-14T13:36:37Z</time>
      </trkpt>
      <trkpt lat="44.33658" lon="6.26639">
        <ele>1736.28</ele>
        <time>2016-05-14T13:37:19Z</time>
      </trkpt>
      <trkpt lat="44.33657" lon="6.26638">
        <ele>1736.28</ele>
        <time>2016-05-14T13:37:51Z</time>
      </trkpt>
      <trkpt lat="44.33656" lon="6.26638">
        <ele>1736.28</ele>
        <time>2016-05-14T13:38:31Z</time>
      </trkpt>
      <trkpt lat="44.33658" lon="6.26638">
        <ele>1736.28</ele>
        <time>2016-05-14T13:39:05Z</time>
      </trkpt>
      <trkpt lat="44.33657" lon="6.26639">
        <ele>1736.76</ele>
        <time>2016-05-14T13:39:36Z</time>
      </trkpt>
      <trkpt lat="44.33657" lon="6.26637">
        <ele>1738.68</ele>
        <time>2016-05-14T13:39:45Z</time>
      </trkpt>
      <trkpt lat="44.33656" lon="6.26636">
        <ele>1737.72</ele>
        <time>2016-05-14T13:39:48Z</time>
      </trkpt>
      <trkpt lat="44.33655" lon="6.26635">
        <ele>1738.68</ele>
        <time>2016-05-14T13:39:50Z</time>
      </trkpt>
      <trkpt lat="44.33654" lon="6.26635">
        <ele>1738.68</ele>
        <time>2016-05-14T13:39:53Z</time>
      </trkpt>
      <trkpt lat="44.33655" lon="6.26632">
        <ele>1737.24</ele>
        <time>2016-05-14T13:39:57Z</time>
      </trkpt>
      <trkpt lat="44.33656" lon="6.26633">
        <ele>1737.24</ele>
        <time>2016-05-14T13:40:18Z</time>
      </trkpt>
      <trkpt lat="44.33657" lon="6.26634">
        <ele>1737.24</ele>
        <time>2016-05-14T13:40:48Z</time>
      </trkpt>
      <trkpt lat="44.33658" lon="6.26635">
        <ele>1737.24</ele>
        <time>2016-05-14T13:41:22Z</time>
      </trkpt>
      <trkpt lat="44.33659" lon="6.26631">
        <ele>1736.76</ele>
        <time>2016-05-14T13:41:34Z</time>
      </trkpt>
      <trkpt lat="44.3366" lon="6.26632">
        <ele>1736.76</ele>
        <time>2016-05-14T13:42:01Z</time>
      </trkpt>
      <trkpt lat="44.33659" lon="6.26633">
        <ele>1737.72</ele>
        <time>2016-05-14T13:42:03Z</time>
      </trkpt>
      <trkpt lat="44.33658" lon="6.26631">
        <ele>1737.72</ele>
        <time>2016-05-14T13:42:30Z</time>
      </trkpt>
      <trkpt lat="44.33657" lon="6.2663">
        <ele>1737.72</ele>
        <time>2016-05-14T13:42:48Z</time>
      </trkpt>
      <trkpt lat="44.33656" lon="6.2663">
        <ele>1736.28</ele>
        <time>2016-05-14T13:42:58Z</time>
      </trkpt>
      <trkpt lat="44.33658" lon="6.26633">
        <ele>1737.72</ele>
        <time>2016-05-14T13:43:10Z</time>
      </trkpt>
      <trkpt lat="44.33659" lon="6.26636">
        <ele>1738.2</ele>
        <time>2016-05-14T13:43:13Z</time>
      </trkpt>
      <trkpt lat="44.33657" lon="6.26637">
        <ele>1738.2</ele>
        <time>2016-05-14T13:43:25Z</time>
      </trkpt>
      <trkpt lat="44.33657" lon="6.26637">
        <ele>1735.8</ele>
        <time>2016-05-14T13:43:37Z</time>
      </trkpt>
      <trkpt lat="44.33658" lon="6.26643">
        <ele>1737.72</ele>
        <time>2016-05-14T13:43:41Z</time>
      </trkpt>
      <trkpt lat="44.33657" lon="6.26649">
        <ele>1739.16</ele>
        <time>2016-05-14T13:43:47Z</time>
      </trkpt>
      <trkpt lat="44.33654" lon="6.26649">
        <ele>1739.64</ele>
        <time>2016-05-14T13:43:49Z</time>
      </trkpt>
      <trkpt lat="44.33641" lon="6.26645">
        <ele>1741.08</ele>
        <time>2016-05-14T13:44:00Z</time>
      </trkpt>
      <trkpt lat="44.33638" lon="6.26645">
        <ele>1740.12</ele>
        <time>2016-05-14T13:44:07Z</time>
      </trkpt>
      <trkpt lat="44.33637" lon="6.26644">
        <ele>1740.12</ele>
        <time>2016-05-14T13:44:49Z</time>
      </trkpt>
      <trkpt lat="44.3364" lon="6.26644">
        <ele>1741.08</ele>
        <time>2016-05-14T13:45:08Z</time>
      </trkpt>
      <trkpt lat="44.33642" lon="6.26643">
        <ele>1739.64</ele>
        <time>2016-05-14T13:45:10Z</time>
      </trkpt>
      <trkpt lat="44.33645" lon="6.26644">
        <ele>1739.16</ele>
        <time>2016-05-14T13:45:13Z</time>
      </trkpt>
      <trkpt lat="44.33663" lon="6.26654">
        <ele>1737.24</ele>
        <time>2016-05-14T13:45:32Z</time>
      </trkpt>
      <trkpt lat="44.33677" lon="6.2667">
        <ele>1734.84</ele>
        <time>2016-05-14T13:45:50Z</time>
      </trkpt>
      <trkpt lat="44.33682" lon="6.26677">
        <ele>1733.39</ele>
        <time>2016-05-14T13:45:57Z</time>
      </trkpt>
      <trkpt lat="44.33687" lon="6.26696">
        <ele>1731.47</ele>
        <time>2016-05-14T13:46:13Z</time>
      </trkpt>
      <trkpt lat="44.33684" lon="6.26709">
        <ele>1727.63</ele>
        <time>2016-05-14T13:46:26Z</time>
      </trkpt>
      <trkpt lat="44.33682" lon="6.26727">
        <ele>1725.22</ele>
        <time>2016-05-14T13:46:41Z</time>
      </trkpt>
      <trkpt lat="44.33675" lon="6.2675">
        <ele>1721.86</ele>
        <time>2016-05-14T13:46:59Z</time>
      </trkpt>
      <trkpt lat="44.33675" lon="6.26751">
        <ele>1721.86</ele>
        <time>2016-05-14T13:47:00Z</time>
      </trkpt>
      <trkpt lat="44.33682" lon="6.2677">
        <ele>1719.46</ele>
        <time>2016-05-14T13:47:15Z</time>
      </trkpt>
      <trkpt lat="44.33694" lon="6.26774">
        <ele>1717.05</ele>
        <time>2016-05-14T13:47:31Z</time>
      </trkpt>
      <trkpt lat="44.33696" lon="6.2677">
        <ele>1716.57</ele>
        <time>2016-05-14T13:47:35Z</time>
      </trkpt>
      <trkpt lat="44.33704" lon="6.26761">
        <ele>1712.73</ele>
        <time>2016-05-14T13:47:47Z</time>
      </trkpt>
      <trkpt lat="44.33712" lon="6.26775">
        <ele>1710.8</ele>
        <time>2016-05-14T13:48:00Z</time>
      </trkpt>
      <trkpt lat="44.3372" lon="6.26801">
        <ele>1708.4</ele>
        <time>2016-05-14T13:48:19Z</time>
      </trkpt>
      <trkpt lat="44.3372" lon="6.26825">
        <ele>1706.48</ele>
        <time>2016-05-14T13:48:34Z</time>
      </trkpt>
      <trkpt lat="44.33714" lon="6.26854">
        <ele>1704.55</ele>
        <time>2016-05-14T13:48:53Z</time>
      </trkpt>
      <trkpt lat="44.33715" lon="6.26872">
        <ele>1703.11</ele>
        <time>2016-05-14T13:49:05Z</time>
      </trkpt>
      <trkpt lat="44.33712" lon="6.2688">
        <ele>1703.11</ele>
        <time>2016-05-14T13:49:11Z</time>
      </trkpt>
      <trkpt lat="44.33713" lon="6.2689">
        <ele>1704.07</ele>
        <time>2016-05-14T13:49:18Z</time>
      </trkpt>
      <trkpt lat="44.33713" lon="6.26916">
        <ele>1705.04</ele>
        <time>2016-05-14T13:49:37Z</time>
      </trkpt>
      <trkpt lat="44.33712" lon="6.26919">
        <ele>1704.07</ele>
        <time>2016-05-14T13:49:40Z</time>
      </trkpt>
      <trkpt lat="44.33712" lon="6.26937">
        <ele>1701.19</ele>
        <time>2016-05-14T13:49:54Z</time>
      </trkpt>
      <trkpt lat="44.33718" lon="6.26955">
        <ele>1700.71</ele>
        <time>2016-05-14T13:50:07Z</time>
      </trkpt>
      <trkpt lat="44.33731" lon="6.26977">
        <ele>1697.34</ele>
        <time>2016-05-14T13:50:27Z</time>
      </trkpt>
      <trkpt lat="44.33746" lon="6.26998">
        <ele>1694.94</ele>
        <time>2016-05-14T13:50:46Z</time>
      </trkpt>
      <trkpt lat="44.33763" lon="6.27017">
        <ele>1693.5</ele>
        <time>2016-05-14T13:51:05Z</time>
      </trkpt>
      <trkpt lat="44.33767" lon="6.27026">
        <ele>1693.5</ele>
        <time>2016-05-14T13:51:13Z</time>
      </trkpt>
      <trkpt lat="44.33775" lon="6.27046">
        <ele>1691.58</ele>
        <time>2016-05-14T13:51:29Z</time>
      </trkpt>
      <trkpt lat="44.33776" lon="6.27052">
        <ele>1691.58</ele>
        <time>2016-05-14T13:51:33Z</time>
      </trkpt>
      <trkpt lat="44.33774" lon="6.27067">
        <ele>1691.1</ele>
        <time>2016-05-14T13:51:45Z</time>
      </trkpt>
      <trkpt lat="44.33777" lon="6.2707">
        <ele>1690.62</ele>
        <time>2016-05-14T13:51:49Z</time>
      </trkpt>
      <trkpt lat="44.33791" lon="6.27084">
        <ele>1690.62</ele>
        <time>2016-05-14T13:52:07Z</time>
      </trkpt>
      <trkpt lat="44.33789" lon="6.27103">
        <ele>1689.65</ele>
        <time>2016-05-14T13:52:23Z</time>
      </trkpt>
      <trkpt lat="44.33789" lon="6.27104">
        <ele>1689.17</ele>
        <time>2016-05-14T13:52:24Z</time>
      </trkpt>
      <trkpt lat="44.33787" lon="6.27118">
        <ele>1687.25</ele>
        <time>2016-05-14T13:52:35Z</time>
      </trkpt>
      <trkpt lat="44.33799" lon="6.2714">
        <ele>1685.81</ele>
        <time>2016-05-14T13:52:55Z</time>
      </trkpt>
      <trkpt lat="44.33804" lon="6.27154">
        <ele>1687.25</ele>
        <time>2016-05-14T13:53:06Z</time>
      </trkpt>
      <trkpt lat="44.33805" lon="6.27156">
        <ele>1687.73</ele>
        <time>2016-05-14T13:53:08Z</time>
      </trkpt>
      <trkpt lat="44.33811" lon="6.27176">
        <ele>1689.17</ele>
        <time>2016-05-14T13:53:25Z</time>
      </trkpt>
      <trkpt lat="44.33812" lon="6.27177">
        <ele>1689.17</ele>
        <time>2016-05-14T13:53:26Z</time>
      </trkpt>
      <trkpt lat="44.33813" lon="6.27183">
        <ele>1689.17</ele>
        <time>2016-05-14T13:53:30Z</time>
      </trkpt>
      <trkpt lat="44.33818" lon="6.27198">
        <ele>1689.17</ele>
        <time>2016-05-14T13:53:41Z</time>
      </trkpt>
      <trkpt lat="44.33825" lon="6.27221">
        <ele>1689.65</ele>
        <time>2016-05-14T13:53:58Z</time>
      </trkpt>
      <trkpt lat="44.33831" lon="6.27242">
        <ele>1691.1</ele>
        <time>2016-05-14T13:54:15Z</time>
      </trkpt>
      <trkpt lat="44.33834" lon="6.27256">
        <ele>1693.98</ele>
        <time>2016-05-14T13:54:29Z</time>
      </trkpt>
      <trkpt lat="44.33835" lon="6.27266">
        <ele>1696.38</ele>
        <time>2016-05-14T13:54:45Z</time>
      </trkpt>
      <trkpt lat="44.33835" lon="6.27271">
        <ele>1696.38</ele>
        <time>2016-05-14T13:55:01Z</time>
      </trkpt>
      <trkpt lat="44.33839" lon="6.27281">
        <ele>1696.38</ele>
        <time>2016-05-14T13:55:18Z</time>
      </trkpt>
      <trkpt lat="44.3384" lon="6.27283">
        <ele>1696.38</ele>
        <time>2016-05-14T13:55:20Z</time>
      </trkpt>
      <trkpt lat="44.33846" lon="6.27286">
        <ele>1696.38</ele>
        <time>2016-05-14T13:55:38Z</time>
      </trkpt>
      <trkpt lat="44.33844" lon="6.27287">
        <ele>1696.86</ele>
        <time>2016-05-14T13:56:00Z</time>
      </trkpt>
      <trkpt lat="44.33841" lon="6.27287">
        <ele>1696.86</ele>
        <time>2016-05-14T13:56:28Z</time>
      </trkpt>
      <trkpt lat="44.33841" lon="6.2729">
        <ele>1696.86</ele>
        <time>2016-05-14T13:56:42Z</time>
      </trkpt>
      <trkpt lat="44.33844" lon="6.27297">
        <ele>1695.9</ele>
        <time>2016-05-14T13:56:47Z</time>
      </trkpt>
      <trkpt lat="44.33845" lon="6.27313">
        <ele>1694.46</ele>
        <time>2016-05-14T13:56:56Z</time>
      </trkpt>
      <trkpt lat="44.33848" lon="6.27334">
        <ele>1692.54</ele>
        <time>2016-05-14T13:57:10Z</time>
      </trkpt>
      <trkpt lat="44.33857" lon="6.27355">
        <ele>1693.98</ele>
        <time>2016-05-14T13:57:26Z</time>
      </trkpt>
      <trkpt lat="44.33861" lon="6.27367">
        <ele>1694.46</ele>
        <time>2016-05-14T13:57:34Z</time>
      </trkpt>
      <trkpt lat="44.33862" lon="6.27387">
        <ele>1694.94</ele>
        <time>2016-05-14T13:57:47Z</time>
      </trkpt>
      <trkpt lat="44.33863" lon="6.27395">
        <ele>1694.94</ele>
        <time>2016-05-14T13:57:52Z</time>
      </trkpt>
      <trkpt lat="44.33863" lon="6.27409">
        <ele>1695.42</ele>
        <time>2016-05-14T13:58:01Z</time>
      </trkpt>
      <trkpt lat="44.33861" lon="6.27427">
        <ele>1696.38</ele>
        <time>2016-05-14T13:58:17Z</time>
      </trkpt>
      <trkpt lat="44.33864" lon="6.27438">
        <ele>1693.98</ele>
        <time>2016-05-14T13:58:27Z</time>
      </trkpt>
      <trkpt lat="44.33868" lon="6.27442">
        <ele>1693.5</ele>
        <time>2016-05-14T13:58:31Z</time>
      </trkpt>
      <trkpt lat="44.33878" lon="6.27452">
        <ele>1693.5</ele>
        <time>2016-05-14T13:58:46Z</time>
      </trkpt>
      <trkpt lat="44.33878" lon="6.27454">
        <ele>1693.5</ele>
        <time>2016-05-14T13:58:50Z</time>
      </trkpt>
      <trkpt lat="44.33885" lon="6.27457">
        <ele>1694.94</ele>
        <time>2016-05-14T13:58:56Z</time>
      </trkpt>
      <trkpt lat="44.33899" lon="6.27469">
        <ele>1695.42</ele>
        <time>2016-05-14T13:59:09Z</time>
      </trkpt>
      <trkpt lat="44.33917" lon="6.27482">
        <ele>1696.38</ele>
        <time>2016-05-14T13:59:26Z</time>
      </trkpt>
      <trkpt lat="44.33934" lon="6.27499">
        <ele>1697.34</ele>
        <time>2016-05-14T13:59:42Z</time>
      </trkpt>
      <trkpt lat="44.33945" lon="6.27513">
        <ele>1697.34</ele>
        <time>2016-05-14T13:59:57Z</time>
      </trkpt>
      <trkpt lat="44.33958" lon="6.27527">
        <ele>1698.79</ele>
        <time>2016-05-14T14:00:13Z</time>
      </trkpt>
      <trkpt lat="44.33971" lon="6.27539">
        <ele>1699.27</ele>
        <time>2016-05-14T14:00:25Z</time>
      </trkpt>
      <trkpt lat="44.3399" lon="6.2755">
        <ele>1700.23</ele>
        <time>2016-05-14T14:00:42Z</time>
      </trkpt>
      <trkpt lat="44.34001" lon="6.27558">
        <ele>1701.19</ele>
        <time>2016-05-14T14:00:54Z</time>
      </trkpt>
      <trkpt lat="44.34005" lon="6.27566">
        <ele>1701.19</ele>
        <time>2016-05-14T14:01:11Z</time>
      </trkpt>
      <trkpt lat="44.34013" lon="6.27582">
        <ele>1702.63</ele>
        <time>2016-05-14T14:01:25Z</time>
      </trkpt>
      <trkpt lat="44.34029" lon="6.27591">
        <ele>1704.07</ele>
        <time>2016-05-14T14:01:41Z</time>
      </trkpt>
      <trkpt lat="44.34042" lon="6.27603">
        <ele>1704.55</ele>
        <time>2016-05-14T14:01:54Z</time>
      </trkpt>
      <trkpt lat="44.34056" lon="6.27609">
        <ele>1706</ele>
        <time>2016-05-14T14:02:08Z</time>
      </trkpt>
      <trkpt lat="44.34073" lon="6.27609">
        <ele>1707.92</ele>
        <time>2016-05-14T14:02:25Z</time>
      </trkpt>
      <trkpt lat="44.34082" lon="6.27611">
        <ele>1709.84</ele>
        <time>2016-05-14T14:02:41Z</time>
      </trkpt>
      <trkpt lat="44.34084" lon="6.27614">
        <ele>1709.84</ele>
        <time>2016-05-14T14:03:02Z</time>
      </trkpt>
      <trkpt lat="44.34093" lon="6.27628">
        <ele>1710.8</ele>
        <time>2016-05-14T14:03:15Z</time>
      </trkpt>
      <trkpt lat="44.34095" lon="6.27629">
        <ele>1710.8</ele>
        <time>2016-05-14T14:03:16Z</time>
      </trkpt>
      <trkpt lat="44.34107" lon="6.27643">
        <ele>1712.25</ele>
        <time>2016-05-14T14:03:32Z</time>
      </trkpt>
      <trkpt lat="44.3412" lon="6.27654">
        <ele>1713.21</ele>
        <time>2016-05-14T14:03:47Z</time>
      </trkpt>
      <trkpt lat="44.34133" lon="6.27659">
        <ele>1714.17</ele>
        <time>2016-05-14T14:04:01Z</time>
      </trkpt>
      <trkpt lat="44.34149" lon="6.27662">
        <ele>1715.13</ele>
        <time>2016-05-14T14:04:16Z</time>
      </trkpt>
      <trkpt lat="44.34159" lon="6.27669">
        <ele>1717.05</ele>
        <time>2016-05-14T14:04:30Z</time>
      </trkpt>
      <trkpt lat="44.34173" lon="6.27681">
        <ele>1717.53</ele>
        <time>2016-05-14T14:04:42Z</time>
      </trkpt>
      <trkpt lat="44.34182" lon="6.27699">
        <ele>1718.01</ele>
        <time>2016-05-14T14:04:56Z</time>
      </trkpt>
      <trkpt lat="44.34198" lon="6.27699">
        <ele>1718.97</ele>
        <time>2016-05-14T14:05:13Z</time>
      </trkpt>
      <trkpt lat="44.34211" lon="6.27704">
        <ele>1719.46</ele>
        <time>2016-05-14T14:05:26Z</time>
      </trkpt>
      <trkpt lat="44.34215" lon="6.27707">
        <ele>1719.46</ele>
        <time>2016-05-14T14:05:30Z</time>
      </trkpt>
      <trkpt lat="44.34225" lon="6.2771">
        <ele>1719.46</ele>
        <time>2016-05-14T14:05:38Z</time>
      </trkpt>
      <trkpt lat="44.3424" lon="6.27713">
        <ele>1719.94</ele>
        <time>2016-05-14T14:05:54Z</time>
      </trkpt>
      <trkpt lat="44.34258" lon="6.27716">
        <ele>1721.38</ele>
        <time>2016-05-14T14:06:11Z</time>
      </trkpt>
      <trkpt lat="44.34272" lon="6.27716">
        <ele>1723.3</ele>
        <time>2016-05-14T14:06:27Z</time>
      </trkpt>
      <trkpt lat="44.34281" lon="6.27718">
        <ele>1723.78</ele>
        <time>2016-05-14T14:06:44Z</time>
      </trkpt>
      <trkpt lat="44.34283" lon="6.27719">
        <ele>1723.78</ele>
        <time>2016-05-14T14:06:45Z</time>
      </trkpt>
      <trkpt lat="44.34299" lon="6.27719">
        <ele>1725.7</ele>
        <time>2016-05-14T14:07:02Z</time>
      </trkpt>
      <trkpt lat="44.34304" lon="6.27718">
        <ele>1726.18</ele>
        <time>2016-05-14T14:07:07Z</time>
      </trkpt>
      <trkpt lat="44.34315" lon="6.27705">
        <ele>1726.67</ele>
        <time>2016-05-14T14:07:23Z</time>
      </trkpt>
      <trkpt lat="44.34318" lon="6.27697">
        <ele>1727.15</ele>
        <time>2016-05-14T14:07:37Z</time>
      </trkpt>
      <trkpt lat="44.34322" lon="6.27698">
        <ele>1727.15</ele>
        <time>2016-05-14T14:07:51Z</time>
      </trkpt>
      <trkpt lat="44.34338" lon="6.27695">
        <ele>1727.63</ele>
        <time>2016-05-14T14:08:07Z</time>
      </trkpt>
      <trkpt lat="44.3434" lon="6.27694">
        <ele>1727.63</ele>
        <time>2016-05-14T14:08:09Z</time>
      </trkpt>
      <trkpt lat="44.34356" lon="6.27688">
        <ele>1729.07</ele>
        <time>2016-05-14T14:08:26Z</time>
      </trkpt>
      <trkpt lat="44.3436" lon="6.2769">
        <ele>1729.07</ele>
        <time>2016-05-14T14:08:30Z</time>
      </trkpt>
      <trkpt lat="44.3438" lon="6.27711">
        <ele>1729.07</ele>
        <time>2016-05-14T14:08:51Z</time>
      </trkpt>
      <trkpt lat="44.34384" lon="6.27717">
        <ele>1729.55</ele>
        <time>2016-05-14T14:08:56Z</time>
      </trkpt>
      <trkpt lat="44.34403" lon="6.27723">
        <ele>1729.55</ele>
        <time>2016-05-14T14:09:14Z</time>
      </trkpt>
      <trkpt lat="44.34404" lon="6.27721">
        <ele>1730.03</ele>
        <time>2016-05-14T14:09:28Z</time>
      </trkpt>
      <trkpt lat="44.34404" lon="6.2772">
        <ele>1730.03</ele>
        <time>2016-05-14T14:09:35Z</time>
      </trkpt>
      <trkpt lat="44.3442" lon="6.27717">
        <ele>1730.03</ele>
        <time>2016-05-14T14:09:51Z</time>
      </trkpt>
      <trkpt lat="44.34423" lon="6.27717">
        <ele>1730.03</ele>
        <time>2016-05-14T14:09:54Z</time>
      </trkpt>
      <trkpt lat="44.34428" lon="6.27714">
        <ele>1730.03</ele>
        <time>2016-05-14T14:09:59Z</time>
      </trkpt>
      <trkpt lat="44.34432" lon="6.27715">
        <ele>1730.03</ele>
        <time>2016-05-14T14:10:15Z</time>
      </trkpt>
      <trkpt lat="44.34438" lon="6.27703">
        <ele>1730.03</ele>
        <time>2016-05-14T14:10:29Z</time>
      </trkpt>
      <trkpt lat="44.34442" lon="6.27696">
        <ele>1730.03</ele>
        <time>2016-05-14T14:10:36Z</time>
      </trkpt>
      <trkpt lat="44.34444" lon="6.27694">
        <ele>1728.59</ele>
        <time>2016-05-14T14:10:39Z</time>
      </trkpt>
      <trkpt lat="44.34452" lon="6.27695">
        <ele>1728.11</ele>
        <time>2016-05-14T14:10:57Z</time>
      </trkpt>
      <trkpt lat="44.3446" lon="6.27692">
        <ele>1727.15</ele>
        <time>2016-05-14T14:11:13Z</time>
      </trkpt>
      <trkpt lat="44.34467" lon="6.27685">
        <ele>1726.18</ele>
        <time>2016-05-14T14:11:29Z</time>
      </trkpt>
      <trkpt lat="44.3447" lon="6.27686">
        <ele>1726.18</ele>
        <time>2016-05-14T14:11:57Z</time>
      </trkpt>
      <trkpt lat="44.3447" lon="6.27687">
        <ele>1726.18</ele>
        <time>2016-05-14T14:11:58Z</time>
      </trkpt>
      <trkpt lat="44.34483" lon="6.2769">
        <ele>1724.74</ele>
        <time>2016-05-14T14:12:15Z</time>
      </trkpt>
      <trkpt lat="44.3449" lon="6.27686">
        <ele>1724.74</ele>
        <time>2016-05-14T14:12:24Z</time>
      </trkpt>
      <trkpt lat="44.34499" lon="6.27681">
        <ele>1723.3</ele>
        <time>2016-05-14T14:12:33Z</time>
      </trkpt>
      <trkpt lat="44.34513" lon="6.27677">
        <ele>1722.82</ele>
        <time>2016-05-14T14:12:46Z</time>
      </trkpt>
      <trkpt lat="44.34514" lon="6.27675">
        <ele>1721.38</ele>
        <time>2016-05-14T14:12:48Z</time>
      </trkpt>
      <trkpt lat="44.34531" lon="6.27668">
        <ele>1719.46</ele>
        <time>2016-05-14T14:13:03Z</time>
      </trkpt>
      <trkpt lat="44.34549" lon="6.27661">
        <ele>1716.57</ele>
        <time>2016-05-14T14:13:18Z</time>
      </trkpt>
      <trkpt lat="44.34563" lon="6.2765">
        <ele>1713.69</ele>
        <time>2016-05-14T14:13:33Z</time>
      </trkpt>
      <trkpt lat="44.34577" lon="6.27639">
        <ele>1710.32</ele>
        <time>2016-05-14T14:13:48Z</time>
      </trkpt>
      <trkpt lat="44.34588" lon="6.27632">
        <ele>1708.88</ele>
        <time>2016-05-14T14:14:02Z</time>
      </trkpt>
      <trkpt lat="44.34605" lon="6.2762">
        <ele>1706.48</ele>
        <time>2016-05-14T14:14:17Z</time>
      </trkpt>
      <trkpt lat="44.3461" lon="6.27617">
        <ele>1706</ele>
        <time>2016-05-14T14:14:22Z</time>
      </trkpt>
      <trkpt lat="44.34625" lon="6.2761">
        <ele>1705.04</ele>
        <time>2016-05-14T14:14:31Z</time>
      </trkpt>
      <trkpt lat="44.34634" lon="6.27608">
        <ele>1704.55</ele>
        <time>2016-05-14T14:14:37Z</time>
      </trkpt>
      <trkpt lat="44.34637" lon="6.27607">
        <ele>1704.07</ele>
        <time>2016-05-14T14:14:40Z</time>
      </trkpt>
      <trkpt lat="44.34655" lon="6.27603">
        <ele>1703.11</ele>
        <time>2016-05-14T14:14:56Z</time>
      </trkpt>
      <trkpt lat="44.34659" lon="6.27601">
        <ele>1703.11</ele>
        <time>2016-05-14T14:15:01Z</time>
      </trkpt>
      <trkpt lat="44.34668" lon="6.27602">
        <ele>1702.63</ele>
        <time>2016-05-14T14:15:16Z</time>
      </trkpt>
      <trkpt lat="44.34674" lon="6.276">
        <ele>1701.19</ele>
        <time>2016-05-14T14:15:21Z</time>
      </trkpt>
      <trkpt lat="44.34685" lon="6.276">
        <ele>1700.71</ele>
        <time>2016-05-14T14:15:31Z</time>
      </trkpt>
      <trkpt lat="44.34688" lon="6.27599">
        <ele>1700.71</ele>
        <time>2016-05-14T14:15:34Z</time>
      </trkpt>
      <trkpt lat="44.34706" lon="6.27601">
        <ele>1698.79</ele>
        <time>2016-05-14T14:15:51Z</time>
      </trkpt>
      <trkpt lat="44.34716" lon="6.27603">
        <ele>1697.83</ele>
        <time>2016-05-14T14:16:01Z</time>
      </trkpt>
      <trkpt lat="44.34719" lon="6.27603">
        <ele>1696.86</ele>
        <time>2016-05-14T14:16:04Z</time>
      </trkpt>
      <trkpt lat="44.34732" lon="6.27606">
        <ele>1695.9</ele>
        <time>2016-05-14T14:16:14Z</time>
      </trkpt>
      <trkpt lat="44.34755" lon="6.27609">
        <ele>1693.5</ele>
        <time>2016-05-14T14:16:32Z</time>
      </trkpt>
      <trkpt lat="44.34759" lon="6.27608">
        <ele>1693.5</ele>
        <time>2016-05-14T14:16:36Z</time>
      </trkpt>
      <trkpt lat="44.34762" lon="6.27608">
        <ele>1692.54</ele>
        <time>2016-05-14T14:16:38Z</time>
      </trkpt>
      <trkpt lat="44.34768" lon="6.27608">
        <ele>1692.06</ele>
        <time>2016-05-14T14:16:44Z</time>
      </trkpt>
      <trkpt lat="44.34787" lon="6.27604">
        <ele>1690.14</ele>
        <time>2016-05-14T14:17:00Z</time>
      </trkpt>
      <trkpt lat="44.34798" lon="6.27603">
        <ele>1688.69</ele>
        <time>2016-05-14T14:17:11Z</time>
      </trkpt>
      <trkpt lat="44.34816" lon="6.27602">
        <ele>1685.81</ele>
        <time>2016-05-14T14:17:28Z</time>
      </trkpt>
      <trkpt lat="44.34833" lon="6.27601">
        <ele>1684.85</ele>
        <time>2016-05-14T14:17:45Z</time>
      </trkpt>
      <trkpt lat="44.34849" lon="6.27596">
        <ele>1683.89</ele>
        <time>2016-05-14T14:18:00Z</time>
      </trkpt>
      <trkpt lat="44.34864" lon="6.27589">
        <ele>1682.44</ele>
        <time>2016-05-14T14:18:16Z</time>
      </trkpt>
      <trkpt lat="44.34879" lon="6.27578">
        <ele>1680.52</ele>
        <time>2016-05-14T14:18:32Z</time>
      </trkpt>
      <trkpt lat="44.34882" lon="6.2756">
        <ele>1680.52</ele>
        <time>2016-05-14T14:18:49Z</time>
      </trkpt>
      <trkpt lat="44.34885" lon="6.2755">
        <ele>1680.52</ele>
        <time>2016-05-14T14:18:57Z</time>
      </trkpt>
      <trkpt lat="44.34887" lon="6.2754">
        <ele>1680.52</ele>
        <time>2016-05-14T14:19:03Z</time>
      </trkpt>
      <trkpt lat="44.34887" lon="6.27533">
        <ele>1680.04</ele>
        <time>2016-05-14T14:19:08Z</time>
      </trkpt>
      <trkpt lat="44.34885" lon="6.27509">
        <ele>1678.12</ele>
        <time>2016-05-14T14:19:24Z</time>
      </trkpt>
      <trkpt lat="44.34884" lon="6.2751">
        <ele>1679.08</ele>
        <time>2016-05-14T14:19:29Z</time>
      </trkpt>
      <trkpt lat="44.34883" lon="6.27508">
        <ele>1677.64</ele>
        <time>2016-05-14T14:19:31Z</time>
      </trkpt>
      <trkpt lat="44.34882" lon="6.27506">
        <ele>1677.64</ele>
        <time>2016-05-14T14:19:33Z</time>
      </trkpt>
      <trkpt lat="44.3488" lon="6.27501">
        <ele>1676.68</ele>
        <time>2016-05-14T14:19:37Z</time>
      </trkpt>
      <trkpt lat="44.34876" lon="6.2749">
        <ele>1675.72</ele>
        <time>2016-05-14T14:19:45Z</time>
      </trkpt>
      <trkpt lat="44.34876" lon="6.27487">
        <ele>1675.72</ele>
        <time>2016-05-14T14:19:47Z</time>
      </trkpt>
      <trkpt lat="44.34873" lon="6.27481">
        <ele>1674.75</ele>
        <time>2016-05-14T14:19:51Z</time>
      </trkpt>
      <trkpt lat="44.34868" lon="6.27472">
        <ele>1674.27</ele>
        <time>2016-05-14T14:20:04Z</time>
      </trkpt>
      <trkpt lat="44.34868" lon="6.27472">
        <ele>1672.83</ele>
        <time>2016-05-14T14:20:06Z</time>
      </trkpt>
      <trkpt lat="44.34866" lon="6.27468">
        <ele>1672.83</ele>
        <time>2016-05-14T14:20:14Z</time>
      </trkpt>
      <trkpt lat="44.34861" lon="6.27455">
        <ele>1671.39</ele>
        <time>2016-05-14T14:20:25Z</time>
      </trkpt>
      <trkpt lat="44.34855" lon="6.27447">
        <ele>1670.91</ele>
        <time>2016-05-14T14:20:32Z</time>
      </trkpt>
      <trkpt lat="44.34847" lon="6.2744">
        <ele>1669.95</ele>
        <time>2016-05-14T14:20:39Z</time>
      </trkpt>
      <trkpt lat="44.3484" lon="6.27435">
        <ele>1669.47</ele>
        <time>2016-05-14T14:20:44Z</time>
      </trkpt>
      <trkpt lat="44.34838" lon="6.27434">
        <ele>1668.99</ele>
        <time>2016-05-14T14:20:45Z</time>
      </trkpt>
      <trkpt lat="44.34837" lon="6.27432">
        <ele>1668.99</ele>
        <time>2016-05-14T14:20:46Z</time>
      </trkpt>
      <trkpt lat="44.34835" lon="6.2743">
        <ele>1668.99</ele>
        <time>2016-05-14T14:20:47Z</time>
      </trkpt>
      <trkpt lat="44.34834" lon="6.27429">
        <ele>1668.99</ele>
        <time>2016-05-14T14:20:48Z</time>
      </trkpt>
      <trkpt lat="44.34832" lon="6.27427">
        <ele>1668.51</ele>
        <time>2016-05-14T14:20:49Z</time>
      </trkpt>
      <trkpt lat="44.34831" lon="6.27426">
        <ele>1668.51</ele>
        <time>2016-05-14T14:20:50Z</time>
      </trkpt>
      <trkpt lat="44.34829" lon="6.27424">
        <ele>1668.51</ele>
        <time>2016-05-14T14:20:51Z</time>
      </trkpt>
      <trkpt lat="44.3482" lon="6.27412">
        <ele>1667.06</ele>
        <time>2016-05-14T14:20:59Z</time>
      </trkpt>
      <trkpt lat="44.3482" lon="6.27409">
        <ele>1667.06</ele>
        <time>2016-05-14T14:21:02Z</time>
      </trkpt>
      <trkpt lat="44.34824" lon="6.274">
        <ele>1665.14</ele>
        <time>2016-05-14T14:21:10Z</time>
      </trkpt>
      <trkpt lat="44.34825" lon="6.27398">
        <ele>1665.14</ele>
        <time>2016-05-14T14:21:11Z</time>
      </trkpt>
      <trkpt lat="44.34827" lon="6.27396">
        <ele>1665.14</ele>
        <time>2016-05-14T14:21:12Z</time>
      </trkpt>
      <trkpt lat="44.34829" lon="6.27394">
        <ele>1664.66</ele>
        <time>2016-05-14T14:21:13Z</time>
      </trkpt>
      <trkpt lat="44.3483" lon="6.27391">
        <ele>1664.66</ele>
        <time>2016-05-14T14:21:14Z</time>
      </trkpt>
      <trkpt lat="44.34839" lon="6.27376">
        <ele>1661.78</ele>
        <time>2016-05-14T14:21:25Z</time>
      </trkpt>
      <trkpt lat="44.34845" lon="6.2737">
        <ele>1659.85</ele>
        <time>2016-05-14T14:21:36Z</time>
      </trkpt>
      <trkpt lat="44.34853" lon="6.2736">
        <ele>1657.93</ele>
        <time>2016-05-14T14:21:44Z</time>
      </trkpt>
      <trkpt lat="44.34861" lon="6.27355">
        <ele>1656.01</ele>
        <time>2016-05-14T14:21:59Z</time>
      </trkpt>
      <trkpt lat="44.34867" lon="6.27349">
        <ele>1655.05</ele>
        <time>2016-05-14T14:22:09Z</time>
      </trkpt>
      <trkpt lat="44.34881" lon="6.27344">
        <ele>1652.16</ele>
        <time>2016-05-14T14:22:23Z</time>
      </trkpt>
      <trkpt lat="44.34894" lon="6.2734">
        <ele>1648.32</ele>
        <time>2016-05-14T14:22:36Z</time>
      </trkpt>
      <trkpt lat="44.34912" lon="6.27336">
        <ele>1644.95</ele>
        <time>2016-05-14T14:22:52Z</time>
      </trkpt>
      <trkpt lat="44.3493" lon="6.27327">
        <ele>1641.59</ele>
        <time>2016-05-14T14:23:06Z</time>
      </trkpt>
      <trkpt lat="44.34946" lon="6.27318">
        <ele>1638.7</ele>
        <time>2016-05-14T14:23:20Z</time>
      </trkpt>
      <trkpt lat="44.34968" lon="6.27307">
        <ele>1635.82</ele>
        <time>2016-05-14T14:23:36Z</time>
      </trkpt>
      <trkpt lat="44.34986" lon="6.27297">
        <ele>1633.42</ele>
        <time>2016-05-14T14:23:51Z</time>
      </trkpt>
      <trkpt lat="44.35002" lon="6.27285">
        <ele>1631.01</ele>
        <time>2016-05-14T14:24:06Z</time>
      </trkpt>
      <trkpt lat="44.3502" lon="6.27279">
        <ele>1628.13</ele>
        <time>2016-05-14T14:24:20Z</time>
      </trkpt>
      <trkpt lat="44.35025" lon="6.27276">
        <ele>1627.17</ele>
        <time>2016-05-14T14:24:25Z</time>
      </trkpt>
      <trkpt lat="44.35026" lon="6.27276">
        <ele>1626.69</ele>
        <time>2016-05-14T14:24:26Z</time>
      </trkpt>
      <trkpt lat="44.35027" lon="6.27276">
        <ele>1626.69</ele>
        <time>2016-05-14T14:24:27Z</time>
      </trkpt>
      <trkpt lat="44.35043" lon="6.27268">
        <ele>1623.32</ele>
        <time>2016-05-14T14:24:42Z</time>
      </trkpt>
      <trkpt lat="44.35053" lon="6.27261">
        <ele>1620.92</ele>
        <time>2016-05-14T14:24:56Z</time>
      </trkpt>
      <trkpt lat="44.35071" lon="6.27262">
        <ele>1619.48</ele>
        <time>2016-05-14T14:25:13Z</time>
      </trkpt>
      <trkpt lat="44.35076" lon="6.27264">
        <ele>1619.48</ele>
        <time>2016-05-14T14:25:17Z</time>
      </trkpt>
      <trkpt lat="44.35077" lon="6.27265">
        <ele>1619.48</ele>
        <time>2016-05-14T14:25:18Z</time>
      </trkpt>
      <trkpt lat="44.35093" lon="6.27274">
        <ele>1617.56</ele>
        <time>2016-05-14T14:25:35Z</time>
      </trkpt>
      <trkpt lat="44.3511" lon="6.27285">
        <ele>1615.15</ele>
        <time>2016-05-14T14:25:53Z</time>
      </trkpt>
      <trkpt lat="44.3513" lon="6.27288">
        <ele>1612.75</ele>
        <time>2016-05-14T14:26:12Z</time>
      </trkpt>
      <trkpt lat="44.35149" lon="6.27292">
        <ele>1609.38</ele>
        <time>2016-05-14T14:26:30Z</time>
      </trkpt>
      <trkpt lat="44.35152" lon="6.27294">
        <ele>1608.42</ele>
        <time>2016-05-14T14:26:34Z</time>
      </trkpt>
      <trkpt lat="44.35161" lon="6.273">
        <ele>1607.46</ele>
        <time>2016-05-14T14:26:43Z</time>
      </trkpt>
      <trkpt lat="44.35172" lon="6.27309">
        <ele>1605.54</ele>
        <time>2016-05-14T14:26:52Z</time>
      </trkpt>
      <trkpt lat="44.35173" lon="6.2731">
        <ele>1605.54</ele>
        <time>2016-05-14T14:26:53Z</time>
      </trkpt>
      <trkpt lat="44.35174" lon="6.27312">
        <ele>1605.54</ele>
        <time>2016-05-14T14:26:54Z</time>
      </trkpt>
      <trkpt lat="44.35185" lon="6.27333">
        <ele>1604.58</ele>
        <time>2016-05-14T14:27:08Z</time>
      </trkpt>
      <trkpt lat="44.35193" lon="6.27354">
        <ele>1602.66</ele>
        <time>2016-05-14T14:27:24Z</time>
      </trkpt>
      <trkpt lat="44.35212" lon="6.27377">
        <ele>1600.73</ele>
        <time>2016-05-14T14:27:44Z</time>
      </trkpt>
      <trkpt lat="44.35231" lon="6.27395">
        <ele>1598.33</ele>
        <time>2016-05-14T14:28:03Z</time>
      </trkpt>
      <trkpt lat="44.35242" lon="6.27408">
        <ele>1596.41</ele>
        <time>2016-05-14T14:28:16Z</time>
      </trkpt>
      <trkpt lat="44.35243" lon="6.27409">
        <ele>1596.41</ele>
        <time>2016-05-14T14:28:17Z</time>
      </trkpt>
      <trkpt lat="44.35244" lon="6.27411">
        <ele>1596.41</ele>
        <time>2016-05-14T14:28:18Z</time>
      </trkpt>
      <trkpt lat="44.3526" lon="6.27425">
        <ele>1595.93</ele>
        <time>2016-05-14T14:28:32Z</time>
      </trkpt>
      <trkpt lat="44.35263" lon="6.2743">
        <ele>1595.45</ele>
        <time>2016-05-14T14:28:36Z</time>
      </trkpt>
      <trkpt lat="44.35264" lon="6.27432">
        <ele>1595.45</ele>
        <time>2016-05-14T14:28:37Z</time>
      </trkpt>
      <trkpt lat="44.35264" lon="6.27433">
        <ele>1595.45</ele>
        <time>2016-05-14T14:28:38Z</time>
      </trkpt>
      <trkpt lat="44.35271" lon="6.2745">
        <ele>1595.45</ele>
        <time>2016-05-14T14:28:51Z</time>
      </trkpt>
      <trkpt lat="44.35269" lon="6.27459">
        <ele>1595.45</ele>
        <time>2016-05-14T14:29:06Z</time>
      </trkpt>
      <trkpt lat="44.35266" lon="6.27464">
        <ele>1595.45</ele>
        <time>2016-05-14T14:29:18Z</time>
      </trkpt>
      <trkpt lat="44.35269" lon="6.27465">
        <ele>1595.45</ele>
        <time>2016-05-14T14:29:25Z</time>
      </trkpt>
      <trkpt lat="44.35271" lon="6.27465">
        <ele>1595.45</ele>
        <time>2016-05-14T14:29:26Z</time>
      </trkpt>
      <trkpt lat="44.35275" lon="6.27466">
        <ele>1594.96</ele>
        <time>2016-05-14T14:29:29Z</time>
      </trkpt>
      <trkpt lat="44.35276" lon="6.27468">
        <ele>1594.96</ele>
        <time>2016-05-14T14:29:30Z</time>
      </trkpt>
      <trkpt lat="44.35277" lon="6.27469">
        <ele>1594.96</ele>
        <time>2016-05-14T14:29:31Z</time>
      </trkpt>
      <trkpt lat="44.35285" lon="6.27499">
        <ele>1593.52</ele>
        <time>2016-05-14T14:29:52Z</time>
      </trkpt>
      <trkpt lat="44.35289" lon="6.27514">
        <ele>1592.56</ele>
        <time>2016-05-14T14:30:08Z</time>
      </trkpt>
      <trkpt lat="44.35293" lon="6.27542">
        <ele>1591.12</ele>
        <time>2016-05-14T14:30:30Z</time>
      </trkpt>
      <trkpt lat="44.35298" lon="6.27559">
        <ele>1589.2</ele>
        <time>2016-05-14T14:30:47Z</time>
      </trkpt>
      <trkpt lat="44.35298" lon="6.27561">
        <ele>1589.2</ele>
        <time>2016-05-14T14:30:48Z</time>
      </trkpt>
      <trkpt lat="44.35308" lon="6.27586">
        <ele>1587.75</ele>
        <time>2016-05-14T14:31:08Z</time>
      </trkpt>
      <trkpt lat="44.3531" lon="6.27611">
        <ele>1585.35</ele>
        <time>2016-05-14T14:31:25Z</time>
      </trkpt>
      <trkpt lat="44.35311" lon="6.27628">
        <ele>1582.95</ele>
        <time>2016-05-14T14:31:36Z</time>
      </trkpt>
      <trkpt lat="44.35311" lon="6.27629">
        <ele>1582.95</ele>
        <time>2016-05-14T14:31:37Z</time>
      </trkpt>
      <trkpt lat="44.35309" lon="6.27633">
        <ele>1581.51</ele>
        <time>2016-05-14T14:31:42Z</time>
      </trkpt>
      <trkpt lat="44.35308" lon="6.27634">
        <ele>1581.51</ele>
        <time>2016-05-14T14:31:43Z</time>
      </trkpt>
      <trkpt lat="44.35307" lon="6.27634">
        <ele>1581.99</ele>
        <time>2016-05-14T14:31:44Z</time>
      </trkpt>
      <trkpt lat="44.35303" lon="6.27633">
        <ele>1581.51</ele>
        <time>2016-05-14T14:31:48Z</time>
      </trkpt>
      <trkpt lat="44.3529" lon="6.27611">
        <ele>1580.54</ele>
        <time>2016-05-14T14:32:05Z</time>
      </trkpt>
      <trkpt lat="44.35284" lon="6.27599">
        <ele>1580.06</ele>
        <time>2016-05-14T14:32:14Z</time>
      </trkpt>
      <trkpt lat="44.35281" lon="6.27594">
        <ele>1579.1</ele>
        <time>2016-05-14T14:32:18Z</time>
      </trkpt>
      <trkpt lat="44.3528" lon="6.27593">
        <ele>1579.1</ele>
        <time>2016-05-14T14:32:19Z</time>
      </trkpt>
      <trkpt lat="44.35261" lon="6.27578">
        <ele>1577.18</ele>
        <time>2016-05-14T14:32:36Z</time>
      </trkpt>
      <trkpt lat="44.35245" lon="6.27563">
        <ele>1575.26</ele>
        <time>2016-05-14T14:32:50Z</time>
      </trkpt>
      <trkpt lat="44.35244" lon="6.27562">
        <ele>1575.26</ele>
        <time>2016-05-14T14:32:51Z</time>
      </trkpt>
      <trkpt lat="44.35227" lon="6.27537">
        <ele>1572.85</ele>
        <time>2016-05-14T14:33:11Z</time>
      </trkpt>
      <trkpt lat="44.35209" lon="6.2752">
        <ele>1571.89</ele>
        <time>2016-05-14T14:33:29Z</time>
      </trkpt>
      <trkpt lat="44.35208" lon="6.2752">
        <ele>1571.89</ele>
        <time>2016-05-14T14:33:30Z</time>
      </trkpt>
      <trkpt lat="44.35205" lon="6.2752">
        <ele>1571.89</ele>
        <time>2016-05-14T14:33:32Z</time>
      </trkpt>
      <trkpt lat="44.35204" lon="6.27521">
        <ele>1571.89</ele>
        <time>2016-05-14T14:33:33Z</time>
      </trkpt>
      <trkpt lat="44.35202" lon="6.27523">
        <ele>1571.89</ele>
        <time>2016-05-14T14:33:34Z</time>
      </trkpt>
      <trkpt lat="44.35198" lon="6.27531">
        <ele>1572.85</ele>
        <time>2016-05-14T14:33:41Z</time>
      </trkpt>
      <trkpt lat="44.35192" lon="6.27555">
        <ele>1572.85</ele>
        <time>2016-05-14T14:33:57Z</time>
      </trkpt>
      <trkpt lat="44.35185" lon="6.27579">
        <ele>1572.85</ele>
        <time>2016-05-14T14:34:13Z</time>
      </trkpt>
      <trkpt lat="44.35183" lon="6.27603">
        <ele>1572.85</ele>
        <time>2016-05-14T14:34:27Z</time>
      </trkpt>
      <trkpt lat="44.35183" lon="6.27611">
        <ele>1572.85</ele>
        <time>2016-05-14T14:34:32Z</time>
      </trkpt>
      <trkpt lat="44.35184" lon="6.27615">
        <ele>1572.85</ele>
        <time>2016-05-14T14:34:34Z</time>
      </trkpt>
      <trkpt lat="44.35182" lon="6.27622">
        <ele>1572.85</ele>
        <time>2016-05-14T14:34:39Z</time>
      </trkpt>
      <trkpt lat="44.3518" lon="6.27629">
        <ele>1573.33</ele>
        <time>2016-05-14T14:34:43Z</time>
      </trkpt>
      <trkpt lat="44.35178" lon="6.27643">
        <ele>1573.33</ele>
        <time>2016-05-14T14:34:51Z</time>
      </trkpt>
      <trkpt lat="44.35178" lon="6.27646">
        <ele>1573.33</ele>
        <time>2016-05-14T14:34:52Z</time>
      </trkpt>
      <trkpt lat="44.35178" lon="6.27648">
        <ele>1573.82</ele>
        <time>2016-05-14T14:34:53Z</time>
      </trkpt>
      <trkpt lat="44.35178" lon="6.2765">
        <ele>1573.82</ele>
        <time>2016-05-14T14:34:54Z</time>
      </trkpt>
      <trkpt lat="44.35178" lon="6.27652">
        <ele>1573.82</ele>
        <time>2016-05-14T14:34:55Z</time>
      </trkpt>
      <trkpt lat="44.35179" lon="6.27654">
        <ele>1573.82</ele>
        <time>2016-05-14T14:34:56Z</time>
      </trkpt>
      <trkpt lat="44.35178" lon="6.27672">
        <ele>1575.26</ele>
        <time>2016-05-14T14:35:07Z</time>
      </trkpt>
      <trkpt lat="44.35178" lon="6.27673">
        <ele>1575.26</ele>
        <time>2016-05-14T14:35:08Z</time>
      </trkpt>
      <trkpt lat="44.35176" lon="6.27683">
        <ele>1575.74</ele>
        <time>2016-05-14T14:35:15Z</time>
      </trkpt>
      <trkpt lat="44.35172" lon="6.2771">
        <ele>1578.14</ele>
        <time>2016-05-14T14:35:31Z</time>
      </trkpt>
      <trkpt lat="44.3517" lon="6.2772">
        <ele>1578.14</ele>
        <time>2016-05-14T14:35:38Z</time>
      </trkpt>
      <trkpt lat="44.35164" lon="6.27737">
        <ele>1578.62</ele>
        <time>2016-05-14T14:35:50Z</time>
      </trkpt>
      <trkpt lat="44.35155" lon="6.27753">
        <ele>1579.58</ele>
        <time>2016-05-14T14:36:01Z</time>
      </trkpt>
      <trkpt lat="44.35143" lon="6.27769">
        <ele>1581.03</ele>
        <time>2016-05-14T14:36:14Z</time>
      </trkpt>
      <trkpt lat="44.35132" lon="6.27785">
        <ele>1581.99</ele>
        <time>2016-05-14T14:36:27Z</time>
      </trkpt>
      <trkpt lat="44.35129" lon="6.27799">
        <ele>1582.95</ele>
        <time>2016-05-14T14:36:36Z</time>
      </trkpt>
      <trkpt lat="44.35129" lon="6.27801">
        <ele>1582.95</ele>
        <time>2016-05-14T14:36:37Z</time>
      </trkpt>
      <trkpt lat="44.35124" lon="6.27817">
        <ele>1584.39</ele>
        <time>2016-05-14T14:36:50Z</time>
      </trkpt>
      <trkpt lat="44.35121" lon="6.27837">
        <ele>1585.35</ele>
        <time>2016-05-14T14:37:02Z</time>
      </trkpt>
      <trkpt lat="44.3512" lon="6.27845">
        <ele>1585.35</ele>
        <time>2016-05-14T14:37:07Z</time>
      </trkpt>
      <trkpt lat="44.35116" lon="6.27859">
        <ele>1586.79</ele>
        <time>2016-05-14T14:37:18Z</time>
      </trkpt>
      <trkpt lat="44.35111" lon="6.27876">
        <ele>1587.27</ele>
        <time>2016-05-14T14:37:32Z</time>
      </trkpt>
      <trkpt lat="44.35105" lon="6.27893">
        <ele>1588.72</ele>
        <time>2016-05-14T14:37:44Z</time>
      </trkpt>
      <trkpt lat="44.35101" lon="6.27903">
        <ele>1589.2</ele>
        <time>2016-05-14T14:37:51Z</time>
      </trkpt>
      <trkpt lat="44.35091" lon="6.2792">
        <ele>1589.68</ele>
        <time>2016-05-14T14:38:05Z</time>
      </trkpt>
      <trkpt lat="44.35078" lon="6.2793">
        <ele>1590.64</ele>
        <time>2016-05-14T14:38:19Z</time>
      </trkpt>
      <trkpt lat="44.35076" lon="6.27931">
        <ele>1590.64</ele>
        <time>2016-05-14T14:38:20Z</time>
      </trkpt>
      <trkpt lat="44.35067" lon="6.27931">
        <ele>1591.6</ele>
        <time>2016-05-14T14:38:28Z</time>
      </trkpt>
      <trkpt lat="44.35053" lon="6.27932">
        <ele>1591.6</ele>
        <time>2016-05-14T14:38:40Z</time>
      </trkpt>
      <trkpt lat="44.35032" lon="6.27928">
        <ele>1592.08</ele>
        <time>2016-05-14T14:38:56Z</time>
      </trkpt>
      <trkpt lat="44.35019" lon="6.27924">
        <ele>1592.08</ele>
        <time>2016-05-14T14:39:09Z</time>
      </trkpt>
      <trkpt lat="44.35015" lon="6.27923">
        <ele>1592.56</ele>
        <time>2016-05-14T14:39:11Z</time>
      </trkpt>
      <trkpt lat="44.35007" lon="6.27923">
        <ele>1592.56</ele>
        <time>2016-05-14T14:39:19Z</time>
      </trkpt>
      <trkpt lat="44.35003" lon="6.27919">
        <ele>1592.56</ele>
        <time>2016-05-14T14:39:23Z</time>
      </trkpt>
      <trkpt lat="44.34999" lon="6.27915">
        <ele>1592.56</ele>
        <time>2016-05-14T14:39:27Z</time>
      </trkpt>
      <trkpt lat="44.34997" lon="6.27914">
        <ele>1592.56</ele>
        <time>2016-05-14T14:39:29Z</time>
      </trkpt>
      <trkpt lat="44.3498" lon="6.27911">
        <ele>1592.56</ele>
        <time>2016-05-14T14:39:41Z</time>
      </trkpt>
      <trkpt lat="44.34967" lon="6.27897">
        <ele>1591.12</ele>
        <time>2016-05-14T14:39:53Z</time>
      </trkpt>
      <trkpt lat="44.34966" lon="6.27894">
        <ele>1591.12</ele>
        <time>2016-05-14T14:39:55Z</time>
      </trkpt>
      <trkpt lat="44.34957" lon="6.27881">
        <ele>1591.12</ele>
        <time>2016-05-14T14:40:05Z</time>
      </trkpt>
      <trkpt lat="44.34942" lon="6.27862">
        <ele>1590.64</ele>
        <time>2016-05-14T14:40:22Z</time>
      </trkpt>
      <trkpt lat="44.34935" lon="6.27829">
        <ele>1590.64</ele>
        <time>2016-05-14T14:40:39Z</time>
      </trkpt>
      <trkpt lat="44.34921" lon="6.27813">
        <ele>1590.64</ele>
        <time>2016-05-14T14:40:55Z</time>
      </trkpt>
      <trkpt lat="44.34907" lon="6.278">
        <ele>1590.64</ele>
        <time>2016-05-14T14:41:11Z</time>
      </trkpt>
      <trkpt lat="44.34903" lon="6.27806">
        <ele>1590.64</ele>
        <time>2016-05-14T14:41:18Z</time>
      </trkpt>
      <trkpt lat="44.34903" lon="6.27809">
        <ele>1590.64</ele>
        <time>2016-05-14T14:41:19Z</time>
      </trkpt>
      <trkpt lat="44.34902" lon="6.27811">
        <ele>1590.64</ele>
        <time>2016-05-14T14:41:20Z</time>
      </trkpt>
      <trkpt lat="44.34902" lon="6.27813">
        <ele>1590.64</ele>
        <time>2016-05-14T14:41:21Z</time>
      </trkpt>
      <trkpt lat="44.34902" lon="6.27826">
        <ele>1590.64</ele>
        <time>2016-05-14T14:41:29Z</time>
      </trkpt>
      <trkpt lat="44.34901" lon="6.27828">
        <ele>1590.64</ele>
        <time>2016-05-14T14:41:30Z</time>
      </trkpt>
      <trkpt lat="44.34901" lon="6.27829">
        <ele>1590.64</ele>
        <time>2016-05-14T14:41:31Z</time>
      </trkpt>
      <trkpt lat="44.34904" lon="6.27836">
        <ele>1592.08</ele>
        <time>2016-05-14T14:41:36Z</time>
      </trkpt>
      <trkpt lat="44.34902" lon="6.27843">
        <ele>1592.08</ele>
        <time>2016-05-14T14:41:40Z</time>
      </trkpt>
      <trkpt lat="44.34902" lon="6.27845">
        <ele>1592.08</ele>
        <time>2016-05-14T14:41:41Z</time>
      </trkpt>
      <trkpt lat="44.34899" lon="6.27867">
        <ele>1593.04</ele>
        <time>2016-05-14T14:41:55Z</time>
      </trkpt>
      <trkpt lat="44.34898" lon="6.27884">
        <ele>1593.04</ele>
        <time>2016-05-14T14:42:04Z</time>
      </trkpt>
      <trkpt lat="44.34898" lon="6.27885">
        <ele>1593.04</ele>
        <time>2016-05-14T14:42:05Z</time>
      </trkpt>
      <trkpt lat="44.34898" lon="6.27887">
        <ele>1593.04</ele>
        <time>2016-05-14T14:42:06Z</time>
      </trkpt>
      <trkpt lat="44.34898" lon="6.27891">
        <ele>1593.52</ele>
        <time>2016-05-14T14:42:08Z</time>
      </trkpt>
      <trkpt lat="44.34896" lon="6.27912">
        <ele>1594.48</ele>
        <time>2016-05-14T14:42:21Z</time>
      </trkpt>
      <trkpt lat="44.34896" lon="6.27915">
        <ele>1594.48</ele>
        <time>2016-05-14T14:42:23Z</time>
      </trkpt>
      <trkpt lat="44.34897" lon="6.27921">
        <ele>1594.48</ele>
        <time>2016-05-14T14:42:27Z</time>
      </trkpt>
      <trkpt lat="44.34897" lon="6.27923">
        <ele>1594.48</ele>
        <time>2016-05-14T14:42:28Z</time>
      </trkpt>
      <trkpt lat="44.34897" lon="6.27926">
        <ele>1594.96</ele>
        <time>2016-05-14T14:42:30Z</time>
      </trkpt>
      <trkpt lat="44.34897" lon="6.27953">
        <ele>1594.96</ele>
        <time>2016-05-14T14:42:48Z</time>
      </trkpt>
      <trkpt lat="44.34895" lon="6.27964">
        <ele>1595.45</ele>
        <time>2016-05-14T14:42:55Z</time>
      </trkpt>
      <trkpt lat="44.34895" lon="6.27966">
        <ele>1595.93</ele>
        <time>2016-05-14T14:42:56Z</time>
      </trkpt>
      <trkpt lat="44.34896" lon="6.27993">
        <ele>1597.37</ele>
        <time>2016-05-14T14:43:12Z</time>
      </trkpt>
      <trkpt lat="44.34888" lon="6.28009">
        <ele>1597.37</ele>
        <time>2016-05-14T14:43:24Z</time>
      </trkpt>
      <trkpt lat="44.34886" lon="6.28009">
        <ele>1597.37</ele>
        <time>2016-05-14T14:43:25Z</time>
      </trkpt>
      <trkpt lat="44.34877" lon="6.2801">
        <ele>1597.37</ele>
        <time>2016-05-14T14:43:32Z</time>
      </trkpt>
      <trkpt lat="44.34875" lon="6.2801">
        <ele>1597.37</ele>
        <time>2016-05-14T14:43:33Z</time>
      </trkpt>
      <trkpt lat="44.34861" lon="6.28014">
        <ele>1597.37</ele>
        <time>2016-05-14T14:43:48Z</time>
      </trkpt>
      <trkpt lat="44.34858" lon="6.28015">
        <ele>1597.37</ele>
        <time>2016-05-14T14:43:51Z</time>
      </trkpt>
      <trkpt lat="44.34857" lon="6.28016">
        <ele>1597.37</ele>
        <time>2016-05-14T14:43:52Z</time>
      </trkpt>
      <trkpt lat="44.34845" lon="6.28016">
        <ele>1596.89</ele>
        <time>2016-05-14T14:44:03Z</time>
      </trkpt>
      <trkpt lat="44.3484" lon="6.28014">
        <ele>1597.37</ele>
        <time>2016-05-14T14:44:07Z</time>
      </trkpt>
      <trkpt lat="44.34826" lon="6.28015">
        <ele>1598.33</ele>
        <time>2016-05-14T14:44:17Z</time>
      </trkpt>
      <trkpt lat="44.34825" lon="6.28016">
        <ele>1598.33</ele>
        <time>2016-05-14T14:44:18Z</time>
      </trkpt>
      <trkpt lat="44.34823" lon="6.28017">
        <ele>1598.33</ele>
        <time>2016-05-14T14:44:19Z</time>
      </trkpt>
      <trkpt lat="44.34821" lon="6.28018">
        <ele>1598.33</ele>
        <time>2016-05-14T14:44:20Z</time>
      </trkpt>
      <trkpt lat="44.34819" lon="6.28028">
        <ele>1599.29</ele>
        <time>2016-05-14T14:44:26Z</time>
      </trkpt>
      <trkpt lat="44.34819" lon="6.2803">
        <ele>1599.29</ele>
        <time>2016-05-14T14:44:27Z</time>
      </trkpt>
      <trkpt lat="44.34819" lon="6.28047">
        <ele>1600.73</ele>
        <time>2016-05-14T14:44:38Z</time>
      </trkpt>
      <trkpt lat="44.34819" lon="6.28049">
        <ele>1600.73</ele>
        <time>2016-05-14T14:44:39Z</time>
      </trkpt>
      <trkpt lat="44.34824" lon="6.28061">
        <ele>1601.21</ele>
        <time>2016-05-14T14:44:47Z</time>
      </trkpt>
      <trkpt lat="44.34824" lon="6.28063">
        <ele>1601.21</ele>
        <time>2016-05-14T14:44:48Z</time>
      </trkpt>
      <trkpt lat="44.34825" lon="6.28064">
        <ele>1601.21</ele>
        <time>2016-05-14T14:44:49Z</time>
      </trkpt>
      <trkpt lat="44.34835" lon="6.28078">
        <ele>1601.21</ele>
        <time>2016-05-14T14:45:00Z</time>
      </trkpt>
      <trkpt lat="44.34838" lon="6.28086">
        <ele>1601.69</ele>
        <time>2016-05-14T14:45:06Z</time>
      </trkpt>
      <trkpt lat="44.34839" lon="6.28087">
        <ele>1601.69</ele>
        <time>2016-05-14T14:45:07Z</time>
      </trkpt>
      <trkpt lat="44.34851" lon="6.28104">
        <ele>1603.14</ele>
        <time>2016-05-14T14:45:20Z</time>
      </trkpt>
      <trkpt lat="44.34856" lon="6.28119">
        <ele>1603.62</ele>
        <time>2016-05-14T14:45:33Z</time>
      </trkpt>
      <trkpt lat="44.34856" lon="6.28121">
        <ele>1603.62</ele>
        <time>2016-05-14T14:45:34Z</time>
      </trkpt>
      <trkpt lat="44.34862" lon="6.28134">
        <ele>1604.58</ele>
        <time>2016-05-14T14:45:45Z</time>
      </trkpt>
      <trkpt lat="44.34868" lon="6.28141">
        <ele>1604.58</ele>
        <time>2016-05-14T14:45:51Z</time>
      </trkpt>
      <trkpt lat="44.34878" lon="6.28153">
        <ele>1606.02</ele>
        <time>2016-05-14T14:46:02Z</time>
      </trkpt>
      <trkpt lat="44.34884" lon="6.28163">
        <ele>1606.5</ele>
        <time>2016-05-14T14:46:11Z</time>
      </trkpt>
      <trkpt lat="44.34896" lon="6.2818">
        <ele>1607.46</ele>
        <time>2016-05-14T14:46:26Z</time>
      </trkpt>
      <trkpt lat="44.34897" lon="6.28181">
        <ele>1607.46</ele>
        <time>2016-05-14T14:46:27Z</time>
      </trkpt>
      <trkpt lat="44.34898" lon="6.28182">
        <ele>1607.46</ele>
        <time>2016-05-14T14:46:28Z</time>
      </trkpt>
      <trkpt lat="44.34899" lon="6.28183">
        <ele>1607.46</ele>
        <time>2016-05-14T14:46:29Z</time>
      </trkpt>
      <trkpt lat="44.349" lon="6.28184">
        <ele>1608.42</ele>
        <time>2016-05-14T14:46:30Z</time>
      </trkpt>
      <trkpt lat="44.34909" lon="6.28199">
        <ele>1609.38</ele>
        <time>2016-05-14T14:46:44Z</time>
      </trkpt>
      <trkpt lat="44.34911" lon="6.28203">
        <ele>1609.38</ele>
        <time>2016-05-14T14:46:47Z</time>
      </trkpt>
      <trkpt lat="44.34916" lon="6.28207">
        <ele>1609.86</ele>
        <time>2016-05-14T14:46:51Z</time>
      </trkpt>
      <trkpt lat="44.34931" lon="6.28222">
        <ele>1610.35</ele>
        <time>2016-05-14T14:47:06Z</time>
      </trkpt>
      <trkpt lat="44.34943" lon="6.28235">
        <ele>1611.79</ele>
        <time>2016-05-14T14:47:20Z</time>
      </trkpt>
      <trkpt lat="44.34954" lon="6.28246">
        <ele>1612.75</ele>
        <time>2016-05-14T14:47:32Z</time>
      </trkpt>
      <trkpt lat="44.34968" lon="6.28266">
        <ele>1614.19</ele>
        <time>2016-05-14T14:47:49Z</time>
      </trkpt>
      <trkpt lat="44.34971" lon="6.28274">
        <ele>1614.67</ele>
        <time>2016-05-14T14:47:55Z</time>
      </trkpt>
      <trkpt lat="44.34972" lon="6.28291">
        <ele>1615.15</ele>
        <time>2016-05-14T14:48:07Z</time>
      </trkpt>
      <trkpt lat="44.34971" lon="6.283">
        <ele>1615.63</ele>
        <time>2016-05-14T14:48:13Z</time>
      </trkpt>
      <trkpt lat="44.3497" lon="6.28301">
        <ele>1615.63</ele>
        <time>2016-05-14T14:48:14Z</time>
      </trkpt>
      <trkpt lat="44.34969" lon="6.28331">
        <ele>1616.11</ele>
        <time>2016-05-14T14:48:31Z</time>
      </trkpt>
      <trkpt lat="44.3496" lon="6.28362">
        <ele>1616.59</ele>
        <time>2016-05-14T14:48:50Z</time>
      </trkpt>
      <trkpt lat="44.34946" lon="6.28376">
        <ele>1616.59</ele>
        <time>2016-05-14T14:49:06Z</time>
      </trkpt>
      <trkpt lat="44.34925" lon="6.28388">
        <ele>1616.59</ele>
        <time>2016-05-14T14:49:25Z</time>
      </trkpt>
      <trkpt lat="44.34908" lon="6.28392">
        <ele>1618.04</ele>
        <time>2016-05-14T14:49:40Z</time>
      </trkpt>
      <trkpt lat="44.34883" lon="6.284">
        <ele>1619</ele>
        <time>2016-05-14T14:49:59Z</time>
      </trkpt>
      <trkpt lat="44.34868" lon="6.28403">
        <ele>1620.92</ele>
        <time>2016-05-14T14:50:15Z</time>
      </trkpt>
      <trkpt lat="44.34864" lon="6.28408">
        <ele>1620.92</ele>
        <time>2016-05-14T14:50:20Z</time>
      </trkpt>
      <trkpt lat="44.3485" lon="6.28417">
        <ele>1617.56</ele>
        <time>2016-05-14T14:50:33Z</time>
      </trkpt>
      <trkpt lat="44.34848" lon="6.28419">
        <ele>1617.07</ele>
        <time>2016-05-14T14:50:36Z</time>
      </trkpt>
      <trkpt lat="44.34846" lon="6.2842">
        <ele>1617.07</ele>
        <time>2016-05-14T14:50:37Z</time>
      </trkpt>
      <trkpt lat="44.34829" lon="6.2843">
        <ele>1614.67</ele>
        <time>2016-05-14T14:50:52Z</time>
      </trkpt>
      <trkpt lat="44.34811" lon="6.28438">
        <ele>1613.23</ele>
        <time>2016-05-14T14:51:07Z</time>
      </trkpt>
      <trkpt lat="44.34799" lon="6.28446">
        <ele>1610.83</ele>
        <time>2016-05-14T14:51:20Z</time>
      </trkpt>
      <trkpt lat="44.3478" lon="6.2845">
        <ele>1608.42</ele>
        <time>2016-05-14T14:51:35Z</time>
      </trkpt>
      <trkpt lat="44.34759" lon="6.28443">
        <ele>1606.5</ele>
        <time>2016-05-14T14:51:52Z</time>
      </trkpt>
      <trkpt lat="44.34742" lon="6.28434">
        <ele>1604.1</ele>
        <time>2016-05-14T14:52:09Z</time>
      </trkpt>
      <trkpt lat="44.34725" lon="6.28425">
        <ele>1601.21</ele>
        <time>2016-05-14T14:52:26Z</time>
      </trkpt>
      <trkpt lat="44.34718" lon="6.28424">
        <ele>1599.77</ele>
        <time>2016-05-14T14:52:34Z</time>
      </trkpt>
      <trkpt lat="44.34717" lon="6.28425">
        <ele>1599.77</ele>
        <time>2016-05-14T14:52:35Z</time>
      </trkpt>
      <trkpt lat="44.34709" lon="6.28438">
        <ele>1597.37</ele>
        <time>2016-05-14T14:52:47Z</time>
      </trkpt>
      <trkpt lat="44.34708" lon="6.2844">
        <ele>1597.37</ele>
        <time>2016-05-14T14:52:48Z</time>
      </trkpt>
      <trkpt lat="44.34705" lon="6.28446">
        <ele>1596.41</ele>
        <time>2016-05-14T14:52:52Z</time>
      </trkpt>
      <trkpt lat="44.34705" lon="6.28447">
        <ele>1596.41</ele>
        <time>2016-05-14T14:52:53Z</time>
      </trkpt>
      <trkpt lat="44.34703" lon="6.28476">
        <ele>1595.45</ele>
        <time>2016-05-14T14:53:12Z</time>
      </trkpt>
      <trkpt lat="44.34704" lon="6.28478">
        <ele>1594.96</ele>
        <time>2016-05-14T14:53:14Z</time>
      </trkpt>
      <trkpt lat="44.34704" lon="6.2848">
        <ele>1594.96</ele>
        <time>2016-05-14T14:53:15Z</time>
      </trkpt>
      <trkpt lat="44.34704" lon="6.28482">
        <ele>1594.96</ele>
        <time>2016-05-14T14:53:16Z</time>
      </trkpt>
      <trkpt lat="44.34708" lon="6.28516">
        <ele>1594</ele>
        <time>2016-05-14T14:53:35Z</time>
      </trkpt>
      <trkpt lat="44.34711" lon="6.28529">
        <ele>1594</ele>
        <time>2016-05-14T14:53:45Z</time>
      </trkpt>
      <trkpt lat="44.34715" lon="6.28544">
        <ele>1593.52</ele>
        <time>2016-05-14T14:53:53Z</time>
      </trkpt>
      <trkpt lat="44.34717" lon="6.28558">
        <ele>1592.56</ele>
        <time>2016-05-14T14:54:02Z</time>
      </trkpt>
      <trkpt lat="44.34716" lon="6.28562">
        <ele>1592.56</ele>
        <time>2016-05-14T14:54:04Z</time>
      </trkpt>
      <trkpt lat="44.34712" lon="6.28587">
        <ele>1590.16</ele>
        <time>2016-05-14T14:54:21Z</time>
      </trkpt>
      <trkpt lat="44.3471" lon="6.28593">
        <ele>1590.64</ele>
        <time>2016-05-14T14:54:26Z</time>
      </trkpt>
      <trkpt lat="44.34708" lon="6.28595">
        <ele>1590.16</ele>
        <time>2016-05-14T14:54:29Z</time>
      </trkpt>
      <trkpt lat="44.34708" lon="6.28596">
        <ele>1590.16</ele>
        <time>2016-05-14T14:54:30Z</time>
      </trkpt>
      <trkpt lat="44.34705" lon="6.28602">
        <ele>1589.2</ele>
        <time>2016-05-14T14:54:37Z</time>
      </trkpt>
      <trkpt lat="44.34704" lon="6.28603">
        <ele>1588.72</ele>
        <time>2016-05-14T14:54:38Z</time>
      </trkpt>
      <trkpt lat="44.34699" lon="6.28608">
        <ele>1588.24</ele>
        <time>2016-05-14T14:54:44Z</time>
      </trkpt>
      <trkpt lat="44.34698" lon="6.28609">
        <ele>1588.24</ele>
        <time>2016-05-14T14:54:45Z</time>
      </trkpt>
      <trkpt lat="44.34695" lon="6.2861">
        <ele>1587.27</ele>
        <time>2016-05-14T14:54:47Z</time>
      </trkpt>
      <trkpt lat="44.34694" lon="6.28611">
        <ele>1587.27</ele>
        <time>2016-05-14T14:54:48Z</time>
      </trkpt>
      <trkpt lat="44.34692" lon="6.28611">
        <ele>1587.27</ele>
        <time>2016-05-14T14:54:49Z</time>
      </trkpt>
      <trkpt lat="44.34682" lon="6.28619">
        <ele>1586.31</ele>
        <time>2016-05-14T14:54:59Z</time>
      </trkpt>
      <trkpt lat="44.34674" lon="6.28625">
        <ele>1586.31</ele>
        <time>2016-05-14T14:55:06Z</time>
      </trkpt>
      <trkpt lat="44.34663" lon="6.28633">
        <ele>1584.39</ele>
        <time>2016-05-14T14:55:16Z</time>
      </trkpt>
      <trkpt lat="44.34661" lon="6.28636">
        <ele>1584.39</ele>
        <time>2016-05-14T14:55:18Z</time>
      </trkpt>
      <trkpt lat="44.3466" lon="6.28638">
        <ele>1584.39</ele>
        <time>2016-05-14T14:55:19Z</time>
      </trkpt>
      <trkpt lat="44.34659" lon="6.28639">
        <ele>1584.39</ele>
        <time>2016-05-14T14:55:20Z</time>
      </trkpt>
      <trkpt lat="44.34643" lon="6.28653">
        <ele>1583.43</ele>
        <time>2016-05-14T14:55:35Z</time>
      </trkpt>
      <trkpt lat="44.34628" lon="6.28666">
        <ele>1581.99</ele>
        <time>2016-05-14T14:55:52Z</time>
      </trkpt>
      <trkpt lat="44.346" lon="6.28684">
        <ele>1581.03</ele>
        <time>2016-05-14T14:56:10Z</time>
      </trkpt>
      <trkpt lat="44.34587" lon="6.28706">
        <ele>1580.54</ele>
        <time>2016-05-14T14:56:27Z</time>
      </trkpt>
      <trkpt lat="44.34577" lon="6.28734">
        <ele>1580.54</ele>
        <time>2016-05-14T14:56:46Z</time>
      </trkpt>
      <trkpt lat="44.34571" lon="6.28747">
        <ele>1580.54</ele>
        <time>2016-05-14T14:56:56Z</time>
      </trkpt>
      <trkpt lat="44.34569" lon="6.28748">
        <ele>1580.54</ele>
        <time>2016-05-14T14:56:57Z</time>
      </trkpt>
      <trkpt lat="44.34568" lon="6.28749">
        <ele>1580.54</ele>
        <time>2016-05-14T14:56:58Z</time>
      </trkpt>
      <trkpt lat="44.34567" lon="6.2875">
        <ele>1580.54</ele>
        <time>2016-05-14T14:56:59Z</time>
      </trkpt>
      <trkpt lat="44.34566" lon="6.28751">
        <ele>1580.54</ele>
        <time>2016-05-14T14:57:00Z</time>
      </trkpt>
      <trkpt lat="44.34565" lon="6.28752">
        <ele>1580.06</ele>
        <time>2016-05-14T14:57:01Z</time>
      </trkpt>
      <trkpt lat="44.34564" lon="6.28753">
        <ele>1581.51</ele>
        <time>2016-05-14T14:57:02Z</time>
      </trkpt>
      <trkpt lat="44.34554" lon="6.28755">
        <ele>1581.99</ele>
        <time>2016-05-14T14:57:17Z</time>
      </trkpt>
      <trkpt lat="44.34535" lon="6.28765">
        <ele>1581.99</ele>
        <time>2016-05-14T14:57:36Z</time>
      </trkpt>
      <trkpt lat="44.34516" lon="6.28775">
        <ele>1581.99</ele>
        <time>2016-05-14T14:57:52Z</time>
      </trkpt>
      <trkpt lat="44.34498" lon="6.28776">
        <ele>1581.03</ele>
        <time>2016-05-14T14:58:08Z</time>
      </trkpt>
      <trkpt lat="44.34484" lon="6.28789">
        <ele>1580.06</ele>
        <time>2016-05-14T14:58:22Z</time>
      </trkpt>
      <trkpt lat="44.34486" lon="6.28812">
        <ele>1580.06</ele>
        <time>2016-05-14T14:58:35Z</time>
      </trkpt>
      <trkpt lat="44.34501" lon="6.28829">
        <ele>1580.06</ele>
        <time>2016-05-14T14:58:50Z</time>
      </trkpt>
      <trkpt lat="44.34518" lon="6.28847">
        <ele>1580.06</ele>
        <time>2016-05-14T14:59:08Z</time>
      </trkpt>
      <trkpt lat="44.34525" lon="6.28852">
        <ele>1580.06</ele>
        <time>2016-05-14T14:59:15Z</time>
      </trkpt>
      <trkpt lat="44.34526" lon="6.28854">
        <ele>1580.06</ele>
        <time>2016-05-14T14:59:16Z</time>
      </trkpt>
      <trkpt lat="44.34527" lon="6.28855">
        <ele>1580.06</ele>
        <time>2016-05-14T14:59:17Z</time>
      </trkpt>
      <trkpt lat="44.34529" lon="6.28856">
        <ele>1580.06</ele>
        <time>2016-05-14T14:59:18Z</time>
      </trkpt>
      <trkpt lat="44.3453" lon="6.28858">
        <ele>1580.06</ele>
        <time>2016-05-14T14:59:19Z</time>
      </trkpt>
      <trkpt lat="44.34532" lon="6.28859">
        <ele>1580.06</ele>
        <time>2016-05-14T14:59:20Z</time>
      </trkpt>
      <trkpt lat="44.34545" lon="6.28872">
        <ele>1580.06</ele>
        <time>2016-05-14T14:59:33Z</time>
      </trkpt>
      <trkpt lat="44.34549" lon="6.28882">
        <ele>1580.06</ele>
        <time>2016-05-14T14:59:42Z</time>
      </trkpt>
      <trkpt lat="44.34553" lon="6.28888">
        <ele>1581.51</ele>
        <time>2016-05-14T14:59:48Z</time>
      </trkpt>
      <trkpt lat="44.34556" lon="6.28915">
        <ele>1581.99</ele>
        <time>2016-05-14T15:00:06Z</time>
      </trkpt>
      <trkpt lat="44.34556" lon="6.28918">
        <ele>1581.99</ele>
        <time>2016-05-14T15:00:08Z</time>
      </trkpt>
      <trkpt lat="44.34556" lon="6.2892">
        <ele>1581.99</ele>
        <time>2016-05-14T15:00:09Z</time>
      </trkpt>
      <trkpt lat="44.34555" lon="6.28928">
        <ele>1582.95</ele>
        <time>2016-05-14T15:00:25Z</time>
      </trkpt>
      <trkpt lat="44.34551" lon="6.28934">
        <ele>1583.43</ele>
        <time>2016-05-14T15:00:44Z</time>
      </trkpt>
      <trkpt lat="44.34539" lon="6.28952">
        <ele>1584.39</ele>
        <time>2016-05-14T15:00:59Z</time>
      </trkpt>
      <trkpt lat="44.34526" lon="6.28966">
        <ele>1585.83</ele>
        <time>2016-05-14T15:01:13Z</time>
      </trkpt>
      <trkpt lat="44.34525" lon="6.28966">
        <ele>1586.31</ele>
        <time>2016-05-14T15:01:14Z</time>
      </trkpt>
      <trkpt lat="44.34524" lon="6.28966">
        <ele>1586.31</ele>
        <time>2016-05-14T15:01:15Z</time>
      </trkpt>
      <trkpt lat="44.34523" lon="6.28966">
        <ele>1586.31</ele>
        <time>2016-05-14T15:01:16Z</time>
      </trkpt>
      <trkpt lat="44.34512" lon="6.28977">
        <ele>1588.72</ele>
        <time>2016-05-14T15:01:29Z</time>
      </trkpt>
      <trkpt lat="44.34511" lon="6.28978">
        <ele>1588.72</ele>
        <time>2016-05-14T15:01:30Z</time>
      </trkpt>
      <trkpt lat="44.34505" lon="6.28984">
        <ele>1588.72</ele>
        <time>2016-05-14T15:01:37Z</time>
      </trkpt>
      <trkpt lat="44.34502" lon="6.28987">
        <ele>1588.72</ele>
        <time>2016-05-14T15:01:40Z</time>
      </trkpt>
      <trkpt lat="44.34488" lon="6.28999">
        <ele>1589.68</ele>
        <time>2016-05-14T15:01:54Z</time>
      </trkpt>
      <trkpt lat="44.34485" lon="6.29005">
        <ele>1589.68</ele>
        <time>2016-05-14T15:01:58Z</time>
      </trkpt>
      <trkpt lat="44.34484" lon="6.2901">
        <ele>1589.68</ele>
        <time>2016-05-14T15:02:02Z</time>
      </trkpt>
      <trkpt lat="44.34485" lon="6.29025">
        <ele>1591.12</ele>
        <time>2016-05-14T15:02:14Z</time>
      </trkpt>
      <trkpt lat="44.34498" lon="6.29032">
        <ele>1592.08</ele>
        <time>2016-05-14T15:02:24Z</time>
      </trkpt>
      <trkpt lat="44.34502" lon="6.29039">
        <ele>1593.04</ele>
        <time>2016-05-14T15:02:39Z</time>
      </trkpt>
      <trkpt lat="44.3451" lon="6.29044">
        <ele>1593.52</ele>
        <time>2016-05-14T15:02:50Z</time>
      </trkpt>
      <trkpt lat="44.34511" lon="6.29045">
        <ele>1594</ele>
        <time>2016-05-14T15:02:51Z</time>
      </trkpt>
      <trkpt lat="44.34524" lon="6.29052">
        <ele>1595.45</ele>
        <time>2016-05-14T15:03:05Z</time>
      </trkpt>
      <trkpt lat="44.34527" lon="6.29055">
        <ele>1594.96</ele>
        <time>2016-05-14T15:03:11Z</time>
      </trkpt>
      <trkpt lat="44.34533" lon="6.29058">
        <ele>1596.41</ele>
        <time>2016-05-14T15:03:19Z</time>
      </trkpt>
      <trkpt lat="44.34537" lon="6.2906">
        <ele>1596.41</ele>
        <time>2016-05-14T15:03:21Z</time>
      </trkpt>
      <trkpt lat="44.34539" lon="6.29061">
        <ele>1596.41</ele>
        <time>2016-05-14T15:03:22Z</time>
      </trkpt>
      <trkpt lat="44.34554" lon="6.29067">
        <ele>1597.37</ele>
        <time>2016-05-14T15:03:35Z</time>
      </trkpt>
      <trkpt lat="44.34556" lon="6.29068">
        <ele>1597.37</ele>
        <time>2016-05-14T15:03:36Z</time>
      </trkpt>
      <trkpt lat="44.34585" lon="6.29076">
        <ele>1598.33</ele>
        <time>2016-05-14T15:03:50Z</time>
      </trkpt>
      <trkpt lat="44.34598" lon="6.29086">
        <ele>1598.81</ele>
        <time>2016-05-14T15:04:01Z</time>
      </trkpt>
      <trkpt lat="44.34612" lon="6.29099">
        <ele>1599.29</ele>
        <time>2016-05-14T15:04:14Z</time>
      </trkpt>
      <trkpt lat="44.34612" lon="6.291">
        <ele>1599.29</ele>
        <time>2016-05-14T15:04:15Z</time>
      </trkpt>
      <trkpt lat="44.34613" lon="6.29101">
        <ele>1599.29</ele>
        <time>2016-05-14T15:04:16Z</time>
      </trkpt>
      <trkpt lat="44.34613" lon="6.29103">
        <ele>1599.29</ele>
        <time>2016-05-14T15:04:17Z</time>
      </trkpt>
      <trkpt lat="44.34614" lon="6.29104">
        <ele>1599.29</ele>
        <time>2016-05-14T15:04:18Z</time>
      </trkpt>
      <trkpt lat="44.34616" lon="6.29131">
        <ele>1598.81</ele>
        <time>2016-05-14T15:04:34Z</time>
      </trkpt>
      <trkpt lat="44.34616" lon="6.29158">
        <ele>1599.29</ele>
        <time>2016-05-14T15:04:51Z</time>
      </trkpt>
      <trkpt lat="44.34616" lon="6.29161">
        <ele>1599.29</ele>
        <time>2016-05-14T15:04:53Z</time>
      </trkpt>
      <trkpt lat="44.34616" lon="6.29182">
        <ele>1600.25</ele>
        <time>2016-05-14T15:05:11Z</time>
      </trkpt>
      <trkpt lat="44.34621" lon="6.29185">
        <ele>1600.73</ele>
        <time>2016-05-14T15:05:26Z</time>
      </trkpt>
      <trkpt lat="44.34621" lon="6.29186">
        <ele>1600.73</ele>
        <time>2016-05-14T15:05:27Z</time>
      </trkpt>
      <trkpt lat="44.34621" lon="6.292">
        <ele>1600.73</ele>
        <time>2016-05-14T15:05:37Z</time>
      </trkpt>
      <trkpt lat="44.34616" lon="6.29218">
        <ele>1601.21</ele>
        <time>2016-05-14T15:05:52Z</time>
      </trkpt>
      <trkpt lat="44.34626" lon="6.29245">
        <ele>1601.69</ele>
        <time>2016-05-14T15:06:08Z</time>
      </trkpt>
      <trkpt lat="44.34631" lon="6.29257">
        <ele>1602.17</ele>
        <time>2016-05-14T15:06:19Z</time>
      </trkpt>
      <trkpt lat="44.34637" lon="6.29261">
        <ele>1602.17</ele>
        <time>2016-05-14T15:06:25Z</time>
      </trkpt>
      <trkpt lat="44.34656" lon="6.29257">
        <ele>1603.14</ele>
        <time>2016-05-14T15:06:39Z</time>
      </trkpt>
      <trkpt lat="44.34663" lon="6.29254">
        <ele>1603.14</ele>
        <time>2016-05-14T15:06:45Z</time>
      </trkpt>
      <trkpt lat="44.34665" lon="6.29253">
        <ele>1603.14</ele>
        <time>2016-05-14T15:06:46Z</time>
      </trkpt>
      <trkpt lat="44.34677" lon="6.29244">
        <ele>1601.69</ele>
        <time>2016-05-14T15:06:57Z</time>
      </trkpt>
      <trkpt lat="44.34696" lon="6.29232">
        <ele>1601.69</ele>
        <time>2016-05-14T15:07:14Z</time>
      </trkpt>
      <trkpt lat="44.34716" lon="6.29228">
        <ele>1601.69</ele>
        <time>2016-05-14T15:07:32Z</time>
      </trkpt>
      <trkpt lat="44.34722" lon="6.29229">
        <ele>1601.69</ele>
        <time>2016-05-14T15:07:35Z</time>
      </trkpt>
      <trkpt lat="44.34745" lon="6.29242">
        <ele>1600.73</ele>
        <time>2016-05-14T15:07:53Z</time>
      </trkpt>
      <trkpt lat="44.34759" lon="6.29263">
        <ele>1600.25</ele>
        <time>2016-05-14T15:08:10Z</time>
      </trkpt>
      <trkpt lat="44.34763" lon="6.29269">
        <ele>1599.77</ele>
        <time>2016-05-14T15:08:15Z</time>
      </trkpt>
      <trkpt lat="44.34766" lon="6.29279">
        <ele>1599.77</ele>
        <time>2016-05-14T15:08:22Z</time>
      </trkpt>
      <trkpt lat="44.34766" lon="6.2928">
        <ele>1599.77</ele>
        <time>2016-05-14T15:08:23Z</time>
      </trkpt>
      <trkpt lat="44.34767" lon="6.29282">
        <ele>1599.77</ele>
        <time>2016-05-14T15:08:24Z</time>
      </trkpt>
      <trkpt lat="44.34767" lon="6.29284">
        <ele>1599.77</ele>
        <time>2016-05-14T15:08:25Z</time>
      </trkpt>
      <trkpt lat="44.34767" lon="6.29286">
        <ele>1599.77</ele>
        <time>2016-05-14T15:08:26Z</time>
      </trkpt>
      <trkpt lat="44.34767" lon="6.29288">
        <ele>1599.77</ele>
        <time>2016-05-14T15:08:27Z</time>
      </trkpt>
      <trkpt lat="44.34766" lon="6.2929">
        <ele>1599.77</ele>
        <time>2016-05-14T15:08:28Z</time>
      </trkpt>
      <trkpt lat="44.34766" lon="6.29292">
        <ele>1599.77</ele>
        <time>2016-05-14T15:08:29Z</time>
      </trkpt>
      <trkpt lat="44.34766" lon="6.29293">
        <ele>1599.77</ele>
        <time>2016-05-14T15:08:30Z</time>
      </trkpt>
      <trkpt lat="44.34766" lon="6.29295">
        <ele>1599.77</ele>
        <time>2016-05-14T15:08:31Z</time>
      </trkpt>
      <trkpt lat="44.34765" lon="6.29321">
        <ele>1599.29</ele>
        <time>2016-05-14T15:08:46Z</time>
      </trkpt>
      <trkpt lat="44.34752" lon="6.29347">
        <ele>1600.25</ele>
        <time>2016-05-14T15:09:04Z</time>
      </trkpt>
      <trkpt lat="44.3475" lon="6.29348">
        <ele>1600.25</ele>
        <time>2016-05-14T15:09:06Z</time>
      </trkpt>
      <trkpt lat="44.34751" lon="6.29367">
        <ele>1600.73</ele>
        <time>2016-05-14T15:09:19Z</time>
      </trkpt>
      <trkpt lat="44.34749" lon="6.29382">
        <ele>1601.21</ele>
        <time>2016-05-14T15:09:30Z</time>
      </trkpt>
      <trkpt lat="44.34749" lon="6.29384">
        <ele>1601.21</ele>
        <time>2016-05-14T15:09:31Z</time>
      </trkpt>
      <trkpt lat="44.34749" lon="6.29385">
        <ele>1601.21</ele>
        <time>2016-05-14T15:09:32Z</time>
      </trkpt>
      <trkpt lat="44.34749" lon="6.29387">
        <ele>1601.21</ele>
        <time>2016-05-14T15:09:33Z</time>
      </trkpt>
      <trkpt lat="44.34749" lon="6.29416">
        <ele>1601.21</ele>
        <time>2016-05-14T15:09:51Z</time>
      </trkpt>
      <trkpt lat="44.34749" lon="6.29419">
        <ele>1599.77</ele>
        <time>2016-05-14T15:09:53Z</time>
      </trkpt>
      <trkpt lat="44.34748" lon="6.29434">
        <ele>1599.77</ele>
        <time>2016-05-14T15:10:02Z</time>
      </trkpt>
      <trkpt lat="44.34739" lon="6.2947">
        <ele>1599.29</ele>
        <time>2016-05-14T15:10:24Z</time>
      </trkpt>
      <trkpt lat="44.34736" lon="6.29491">
        <ele>1599.29</ele>
        <time>2016-05-14T15:10:41Z</time>
      </trkpt>
      <trkpt lat="44.34731" lon="6.29508">
        <ele>1599.29</ele>
        <time>2016-05-14T15:10:56Z</time>
      </trkpt>
      <trkpt lat="44.34723" lon="6.29539">
        <ele>1599.29</ele>
        <time>2016-05-14T15:11:16Z</time>
      </trkpt>
      <trkpt lat="44.34717" lon="6.29553">
        <ele>1598.81</ele>
        <time>2016-05-14T15:11:27Z</time>
      </trkpt>
      <trkpt lat="44.34712" lon="6.29576">
        <ele>1597.85</ele>
        <time>2016-05-14T15:11:42Z</time>
      </trkpt>
      <trkpt lat="44.34712" lon="6.29578">
        <ele>1597.85</ele>
        <time>2016-05-14T15:11:43Z</time>
      </trkpt>
      <trkpt lat="44.34713" lon="6.2958">
        <ele>1597.85</ele>
        <time>2016-05-14T15:11:44Z</time>
      </trkpt>
      <trkpt lat="44.34712" lon="6.29589">
        <ele>1597.37</ele>
        <time>2016-05-14T15:11:50Z</time>
      </trkpt>
      <trkpt lat="44.3471" lon="6.29594">
        <ele>1596.89</ele>
        <time>2016-05-14T15:11:53Z</time>
      </trkpt>
      <trkpt lat="44.3471" lon="6.29603">
        <ele>1596.41</ele>
        <time>2016-05-14T15:11:58Z</time>
      </trkpt>
      <trkpt lat="44.3471" lon="6.29605">
        <ele>1596.41</ele>
        <time>2016-05-14T15:11:59Z</time>
      </trkpt>
      <trkpt lat="44.34709" lon="6.29606">
        <ele>1596.41</ele>
        <time>2016-05-14T15:12:00Z</time>
      </trkpt>
      <trkpt lat="44.34702" lon="6.29633">
        <ele>1595.45</ele>
        <time>2016-05-14T15:12:16Z</time>
      </trkpt>
      <trkpt lat="44.34701" lon="6.29641">
        <ele>1595.45</ele>
        <time>2016-05-14T15:12:21Z</time>
      </trkpt>
      <trkpt lat="44.34701" lon="6.29642">
        <ele>1594.96</ele>
        <time>2016-05-14T15:12:22Z</time>
      </trkpt>
      <trkpt lat="44.34696" lon="6.29677">
        <ele>1594.48</ele>
        <time>2016-05-14T15:12:43Z</time>
      </trkpt>
      <trkpt lat="44.34691" lon="6.29699">
        <ele>1594</ele>
        <time>2016-05-14T15:12:58Z</time>
      </trkpt>
      <trkpt lat="44.34689" lon="6.29701">
        <ele>1594</ele>
        <time>2016-05-14T15:12:59Z</time>
      </trkpt>
      <trkpt lat="44.34688" lon="6.29702">
        <ele>1594</ele>
        <time>2016-05-14T15:13:00Z</time>
      </trkpt>
      <trkpt lat="44.34687" lon="6.29704">
        <ele>1594</ele>
        <time>2016-05-14T15:13:01Z</time>
      </trkpt>
      <trkpt lat="44.34686" lon="6.29705">
        <ele>1594</ele>
        <time>2016-05-14T15:13:02Z</time>
      </trkpt>
      <trkpt lat="44.34685" lon="6.29707">
        <ele>1594</ele>
        <time>2016-05-14T15:13:03Z</time>
      </trkpt>
      <trkpt lat="44.34684" lon="6.29708">
        <ele>1594</ele>
        <time>2016-05-14T15:13:04Z</time>
      </trkpt>
      <trkpt lat="44.34684" lon="6.2971">
        <ele>1594</ele>
        <time>2016-05-14T15:13:05Z</time>
      </trkpt>
      <trkpt lat="44.34677" lon="6.29739">
        <ele>1593.52</ele>
        <time>2016-05-14T15:13:24Z</time>
      </trkpt>
      <trkpt lat="44.34677" lon="6.29771">
        <ele>1592.56</ele>
        <time>2016-05-14T15:13:43Z</time>
      </trkpt>
      <trkpt lat="44.34677" lon="6.29778">
        <ele>1592.08</ele>
        <time>2016-05-14T15:13:47Z</time>
      </trkpt>
      <trkpt lat="44.34673" lon="6.29802">
        <ele>1591.6</ele>
        <time>2016-05-14T15:14:01Z</time>
      </trkpt>
      <trkpt lat="44.34668" lon="6.2983">
        <ele>1590.64</ele>
        <time>2016-05-14T15:14:19Z</time>
      </trkpt>
      <trkpt lat="44.34668" lon="6.29832">
        <ele>1590.64</ele>
        <time>2016-05-14T15:14:20Z</time>
      </trkpt>
      <trkpt lat="44.34664" lon="6.29857">
        <ele>1589.68</ele>
        <time>2016-05-14T15:14:35Z</time>
      </trkpt>
      <trkpt lat="44.34667" lon="6.29884">
        <ele>1588.24</ele>
        <time>2016-05-14T15:14:51Z</time>
      </trkpt>
      <trkpt lat="44.34666" lon="6.29885">
        <ele>1588.24</ele>
        <time>2016-05-14T15:14:52Z</time>
      </trkpt>
      <trkpt lat="44.34668" lon="6.29916">
        <ele>1586.79</ele>
        <time>2016-05-14T15:15:10Z</time>
      </trkpt>
      <trkpt lat="44.34661" lon="6.29931">
        <ele>1585.83</ele>
        <time>2016-05-14T15:15:21Z</time>
      </trkpt>
      <trkpt lat="44.34666" lon="6.29942">
        <ele>1584.87</ele>
        <time>2016-05-14T15:15:29Z</time>
      </trkpt>
      <trkpt lat="44.3468" lon="6.29961">
        <ele>1583.91</ele>
        <time>2016-05-14T15:15:45Z</time>
      </trkpt>
      <trkpt lat="44.34701" lon="6.29974">
        <ele>1582.95</ele>
        <time>2016-05-14T15:16:01Z</time>
      </trkpt>
      <trkpt lat="44.34723" lon="6.29986">
        <ele>1581.51</ele>
        <time>2016-05-14T15:16:17Z</time>
      </trkpt>
      <trkpt lat="44.34739" lon="6.29995">
        <ele>1581.51</ele>
        <time>2016-05-14T15:16:30Z</time>
      </trkpt>
      <trkpt lat="44.34746" lon="6.30003">
        <ele>1581.51</ele>
        <time>2016-05-14T15:16:39Z</time>
      </trkpt>
      <trkpt lat="44.34747" lon="6.30003">
        <ele>1580.06</ele>
        <time>2016-05-14T15:16:40Z</time>
      </trkpt>
      <trkpt lat="44.34747" lon="6.30004">
        <ele>1580.06</ele>
        <time>2016-05-14T15:16:41Z</time>
      </trkpt>
      <trkpt lat="44.3476" lon="6.30012">
        <ele>1579.1</ele>
        <time>2016-05-14T15:16:55Z</time>
      </trkpt>
      <trkpt lat="44.34763" lon="6.30014">
        <ele>1578.62</ele>
        <time>2016-05-14T15:17:01Z</time>
      </trkpt>
      <trkpt lat="44.34773" lon="6.30019">
        <ele>1577.66</ele>
        <time>2016-05-14T15:17:12Z</time>
      </trkpt>
      <trkpt lat="44.34778" lon="6.3002">
        <ele>1577.18</ele>
        <time>2016-05-14T15:17:15Z</time>
      </trkpt>
      <trkpt lat="44.34795" lon="6.30029">
        <ele>1575.74</ele>
        <time>2016-05-14T15:17:27Z</time>
      </trkpt>
      <trkpt lat="44.34809" lon="6.30038">
        <ele>1574.3</ele>
        <time>2016-05-14T15:17:44Z</time>
      </trkpt>
      <trkpt lat="44.34827" lon="6.30042">
        <ele>1572.37</ele>
        <time>2016-05-14T15:17:59Z</time>
      </trkpt>
      <trkpt lat="44.34841" lon="6.30047">
        <ele>1570.93</ele>
        <time>2016-05-14T15:18:15Z</time>
      </trkpt>
      <trkpt lat="44.34855" lon="6.30055">
        <ele>1569.49</ele>
        <time>2016-05-14T15:18:28Z</time>
      </trkpt>
      <trkpt lat="44.34863" lon="6.30063">
        <ele>1568.53</ele>
        <time>2016-05-14T15:18:36Z</time>
      </trkpt>
      <trkpt lat="44.34864" lon="6.30065">
        <ele>1568.53</ele>
        <time>2016-05-14T15:18:37Z</time>
      </trkpt>
      <trkpt lat="44.34866" lon="6.30067">
        <ele>1568.53</ele>
        <time>2016-05-14T15:18:38Z</time>
      </trkpt>
      <trkpt lat="44.34867" lon="6.30068">
        <ele>1568.05</ele>
        <time>2016-05-14T15:18:39Z</time>
      </trkpt>
      <trkpt lat="44.3487" lon="6.30068">
        <ele>1568.05</ele>
        <time>2016-05-14T15:18:40Z</time>
      </trkpt>
      <trkpt lat="44.34884" lon="6.30068">
        <ele>1566.61</ele>
        <time>2016-05-14T15:18:56Z</time>
      </trkpt>
      <trkpt lat="44.34904" lon="6.30078">
        <ele>1565.16</ele>
        <time>2016-05-14T15:19:12Z</time>
      </trkpt>
      <trkpt lat="44.34929" lon="6.30088">
        <ele>1563.72</ele>
        <time>2016-05-14T15:19:27Z</time>
      </trkpt>
      <trkpt lat="44.34948" lon="6.30097">
        <ele>1563.24</ele>
        <time>2016-05-14T15:19:39Z</time>
      </trkpt>
      <trkpt lat="44.34952" lon="6.30109">
        <ele>1561.8</ele>
        <time>2016-05-14T15:19:55Z</time>
      </trkpt>
      <trkpt lat="44.34953" lon="6.3011">
        <ele>1561.8</ele>
        <time>2016-05-14T15:19:56Z</time>
      </trkpt>
      <trkpt lat="44.34954" lon="6.30121">
        <ele>1561.32</ele>
        <time>2016-05-14T15:20:02Z</time>
      </trkpt>
      <trkpt lat="44.34955" lon="6.30123">
        <ele>1561.32</ele>
        <time>2016-05-14T15:20:03Z</time>
      </trkpt>
      <trkpt lat="44.34954" lon="6.30146">
        <ele>1561.32</ele>
        <time>2016-05-14T15:20:17Z</time>
      </trkpt>
      <trkpt lat="44.34952" lon="6.30177">
        <ele>1560.36</ele>
        <time>2016-05-14T15:20:34Z</time>
      </trkpt>
      <trkpt lat="44.3495" lon="6.3021">
        <ele>1559.4</ele>
        <time>2016-05-14T15:20:53Z</time>
      </trkpt>
      <trkpt lat="44.34952" lon="6.3024">
        <ele>1557.95</ele>
        <time>2016-05-14T15:21:10Z</time>
      </trkpt>
      <trkpt lat="44.34956" lon="6.30271">
        <ele>1556.51</ele>
        <time>2016-05-14T15:21:28Z</time>
      </trkpt>
      <trkpt lat="44.34957" lon="6.30276">
        <ele>1556.51</ele>
        <time>2016-05-14T15:21:31Z</time>
      </trkpt>
      <trkpt lat="44.34958" lon="6.30278">
        <ele>1556.03</ele>
        <time>2016-05-14T15:21:32Z</time>
      </trkpt>
      <trkpt lat="44.34968" lon="6.30303">
        <ele>1555.07</ele>
        <time>2016-05-14T15:21:50Z</time>
      </trkpt>
      <trkpt lat="44.34965" lon="6.30325">
        <ele>1554.11</ele>
        <time>2016-05-14T15:22:07Z</time>
      </trkpt>
      <trkpt lat="44.34963" lon="6.30345">
        <ele>1552.67</ele>
        <time>2016-05-14T15:22:23Z</time>
      </trkpt>
      <trkpt lat="44.34974" lon="6.3037">
        <ele>1550.74</ele>
        <time>2016-05-14T15:22:38Z</time>
      </trkpt>
      <trkpt lat="44.34975" lon="6.30381">
        <ele>1550.26</ele>
        <time>2016-05-14T15:22:45Z</time>
      </trkpt>
      <trkpt lat="44.34975" lon="6.30382">
        <ele>1550.26</ele>
        <time>2016-05-14T15:22:46Z</time>
      </trkpt>
      <trkpt lat="44.34976" lon="6.30385">
        <ele>1550.26</ele>
        <time>2016-05-14T15:22:48Z</time>
      </trkpt>
      <trkpt lat="44.34977" lon="6.30398">
        <ele>1548.82</ele>
        <time>2016-05-14T15:22:59Z</time>
      </trkpt>
      <trkpt lat="44.34981" lon="6.30405">
        <ele>1548.82</ele>
        <time>2016-05-14T15:23:06Z</time>
      </trkpt>
      <trkpt lat="44.34988" lon="6.30419">
        <ele>1547.38</ele>
        <time>2016-05-14T15:23:19Z</time>
      </trkpt>
      <trkpt lat="44.35001" lon="6.30444">
        <ele>1545.94</ele>
        <time>2016-05-14T15:23:34Z</time>
      </trkpt>
      <trkpt lat="44.35011" lon="6.30465">
        <ele>1544.5</ele>
        <time>2016-05-14T15:23:47Z</time>
      </trkpt>
      <trkpt lat="44.35014" lon="6.30493">
        <ele>1542.57</ele>
        <time>2016-05-14T15:24:05Z</time>
      </trkpt>
      <trkpt lat="44.35012" lon="6.30514">
        <ele>1541.13</ele>
        <time>2016-05-14T15:24:20Z</time>
      </trkpt>
      <trkpt lat="44.35011" lon="6.30525">
        <ele>1540.17</ele>
        <time>2016-05-14T15:24:28Z</time>
      </trkpt>
      <trkpt lat="44.35011" lon="6.30529">
        <ele>1540.17</ele>
        <time>2016-05-14T15:24:30Z</time>
      </trkpt>
      <trkpt lat="44.3501" lon="6.30533">
        <ele>1539.69</ele>
        <time>2016-05-14T15:24:34Z</time>
      </trkpt>
      <trkpt lat="44.35007" lon="6.30546">
        <ele>1537.77</ele>
        <time>2016-05-14T15:24:47Z</time>
      </trkpt>
      <trkpt lat="44.3501" lon="6.30549">
        <ele>1537.77</ele>
        <time>2016-05-14T15:24:49Z</time>
      </trkpt>
      <trkpt lat="44.35012" lon="6.30551">
        <ele>1537.77</ele>
        <time>2016-05-14T15:24:50Z</time>
      </trkpt>
      <trkpt lat="44.35015" lon="6.30552">
        <ele>1537.77</ele>
        <time>2016-05-14T15:24:51Z</time>
      </trkpt>
      <trkpt lat="44.35021" lon="6.30556">
        <ele>1537.77</ele>
        <time>2016-05-14T15:24:54Z</time>
      </trkpt>
      <trkpt lat="44.35039" lon="6.30571">
        <ele>1536.8</ele>
        <time>2016-05-14T15:25:04Z</time>
      </trkpt>
      <trkpt lat="44.3504" lon="6.30573">
        <ele>1536.8</ele>
        <time>2016-05-14T15:25:05Z</time>
      </trkpt>
      <trkpt lat="44.35043" lon="6.30583">
        <ele>1535.36</ele>
        <time>2016-05-14T15:25:12Z</time>
      </trkpt>
      <trkpt lat="44.35044" lon="6.30584">
        <ele>1535.36</ele>
        <time>2016-05-14T15:25:13Z</time>
      </trkpt>
      <trkpt lat="44.35046" lon="6.30586">
        <ele>1535.36</ele>
        <time>2016-05-14T15:25:14Z</time>
      </trkpt>
      <trkpt lat="44.35048" lon="6.30589">
        <ele>1534.88</ele>
        <time>2016-05-14T15:25:16Z</time>
      </trkpt>
      <trkpt lat="44.35049" lon="6.30591">
        <ele>1534.4</ele>
        <time>2016-05-14T15:25:17Z</time>
      </trkpt>
      <trkpt lat="44.35049" lon="6.30593">
        <ele>1534.4</ele>
        <time>2016-05-14T15:25:18Z</time>
      </trkpt>
      <trkpt lat="44.35046" lon="6.3061">
        <ele>1532.96</ele>
        <time>2016-05-14T15:25:31Z</time>
      </trkpt>
      <trkpt lat="44.35041" lon="6.30625">
        <ele>1532</ele>
        <time>2016-05-14T15:25:37Z</time>
      </trkpt>
      <trkpt lat="44.3504" lon="6.30626">
        <ele>1532</ele>
        <time>2016-05-14T15:25:38Z</time>
      </trkpt>
      <trkpt lat="44.35039" lon="6.30627">
        <ele>1532</ele>
        <time>2016-05-14T15:25:39Z</time>
      </trkpt>
      <trkpt lat="44.35032" lon="6.30635">
        <ele>1531.04</ele>
        <time>2016-05-14T15:25:50Z</time>
      </trkpt>
      <trkpt lat="44.35031" lon="6.30637">
        <ele>1530.56</ele>
        <time>2016-05-14T15:25:51Z</time>
      </trkpt>
      <trkpt lat="44.35032" lon="6.30655">
        <ele>1529.59</ele>
        <time>2016-05-14T15:26:02Z</time>
      </trkpt>
      <trkpt lat="44.35037" lon="6.30677">
        <ele>1528.63</ele>
        <time>2016-05-14T15:26:14Z</time>
      </trkpt>
      <trkpt lat="44.35036" lon="6.30678">
        <ele>1528.63</ele>
        <time>2016-05-14T15:26:15Z</time>
      </trkpt>
      <trkpt lat="44.35024" lon="6.30694">
        <ele>1528.63</ele>
        <time>2016-05-14T15:26:30Z</time>
      </trkpt>
      <trkpt lat="44.3502" lon="6.30698">
        <ele>1528.63</ele>
        <time>2016-05-14T15:26:35Z</time>
      </trkpt>
      <trkpt lat="44.35018" lon="6.307">
        <ele>1528.63</ele>
        <time>2016-05-14T15:26:37Z</time>
      </trkpt>
      <trkpt lat="44.35007" lon="6.30716">
        <ele>1531.04</ele>
        <time>2016-05-14T15:26:51Z</time>
      </trkpt>
      <trkpt lat="44.35001" lon="6.30727">
        <ele>1531.52</ele>
        <time>2016-05-14T15:27:02Z</time>
      </trkpt>
      <trkpt lat="44.34999" lon="6.30726">
        <ele>1531.52</ele>
        <time>2016-05-14T15:27:17Z</time>
      </trkpt>
    </trkseg>
  </trk>
</gpx>